[[{"header":{"parameterUnit":"m.s-1","parameterCategory":1,"la1":30.6,"la2":28.766,"lo1":-90.7593,"lo2":-88.6598,"dx":0.0162,"dy":0.0183,"nx":116,"ny":114,"refTime":"2023-01-20T18:00:00:Z","depth":0,"parameterNumber":2,"parameterNumberName":"U-component_of_WINDS"},"data":[0.0,0.0,0.0,0.0,0.0,0.0,0.0,0.0,0.0,0.0,0.0,0.0,0.0,0.0,0.0,0.0,0.0,0.0,0.0,0.0,0.0,0.0,0.0,0.0,0.0,0.0,0.0,0.0,0.0,0.0,0.0,0.0,0.0,0.0,0.0,0.0,0.0,0.0,0.0,0.0,0.0,0.0,0.0,0.0,0.0,0.0,0.0,0.0,0.0,0.0,0.0,0.0,0.0,0.0,0.0,0.0,0.0,0.0,0.0,0.0,0.0,0.0,0.0,0.0,0.0,0.0,0.0,0.0,0.0,0.0,0.0,0.0,0.0,0.0,0.0,0.0,0.0,0.0,0.0,0.0,0.0,0.0,0.0,0.0,0.0,0.0,0.0,0.0,0.0,0.0,0.0,0.0,0.0,0.0,0.0,0.0,0.0,0.0,0.0,0.0,0.0,0.0,0.0,0.0,0.0,0.0,0.0,0.0,0.0,0.0,0.0,0.0,0.0,0.0,0.0,0.0,0.0,0.0,0.0,0.0,0.0,0.0,0.0,0.0,0.0,0.0,0.0,0.0,0.0,0.0,0.0,0.0,0.0,0.0,0.0,0.0,0.0,0.0,0.0,0.0,0.0,0.0,0.0,0.0,0.0,0.0,0.0,0.0,0.0,0.0,0.0,0.0,0.0,0.0,0.0,0.0,0.0,0.0,0.0,0.0,0.0,0.0,0.0,0.0,0.0,0.0,0.0,0.0,0.0,0.0,0.0,0.0,0.0,0.0,0.0,0.0,0.0,0.0,0.0,0.0,0.0,0.0,0.0,0.0,0.0,0.0,0.0,0.0,0.0,0.0,0.0,0.0,0.0,0.0,0.0,0.0,0.0,0.0,0.0,0.0,0.0,0.0,0.0,0.0,0.0,0.0,0.0,0.0,0.0,0.0,0.0,0.0,0.0,0.0,0.0,0.0,0.0,0.0,0.0,0.0,0.0,0.0,0.0,0.0,0.0,0.0,0.0,0.0,0.0,0.0,0.0,0.0,0.0,0.0,0.0,0.0,0.0,0.0,0.0,0.0,0.0,0.0,0.0,0.0,0.0,0.0,0.0,0.0,0.0,0.0,0.0,0.0,0.0,0.0,0.0,0.0,0.0,0.0,0.0,0.0,0.0,0.0,0.0,0.0,0.0,0.0,0.0,0.0,0.0,0.0,0.0,0.0,0.0,0.0,0.0,0.0,0.0,0.0,0.0,0.0,0.0,0.0,0.0,0.0,0.0,0.0,0.0,0.0,0.0,0.0,0.0,0.0,0.0,0.0,0.0,0.0,0.0,0.0,0.0,0.0,0.0,0.0,0.0,0.0,0.0,0.0,0.0,0.0,0.0,0.0,0.0,0.0,0.0,0.0,0.0,0.0,0.0,0.0,0.0,0.0,0.0,0.0,0.0,0.0,0.0,0.0,0.0,0.0,0.0,0.0,0.0,0.0,0.0,0.0,0.0,0.0,0.0,0.0,0.0,0.0,0.0,0.0,0.0,0.0,0.0,0.0,0.0,0.0,0.0,0.0,0.0,0.0,0.0,0.0,0.0,0.0,0.0,0.0,0.0,0.0,0.0,0.0,0.0,0.0,0.0,0.0,0.0,0.0,0.0,0.0,0.0,0.0,0.0,0.0,0.0,0.0,0.0,0.0,0.0,0.0,0.0,0.0,0.0,0.0,0.0,0.0,0.0,0.0,0.0,0.0,0.0,0.0,0.0,0.0,0.0,0.0,0.0,0.0,0.0,0.0,0.0,0.0,0.0,0.0,0.0,0.0,0.0,0.0,0.0,0.0,0.0,0.0,0.0,0.0,0.0,0.0,0.0,0.0,0.0,0.0,0.0,0.0,0.0,0.0,0.0,0.0,0.0,0.0,0.0,0.0,0.0,0.0,0.0,0.0,0.0,0.0,0.0,0.0,0.0,0.0,0.0,0.0,0.0,0.0,0.0,0.0,0.0,0.0,0.0,0.0,0.0,0.0,0.0,0.0,0.0,0.0,0.0,0.0,0.0,0.0,0.0,0.0,0.0,0.0,0.0,0.0,0.0,0.0,0.0,0.0,0.0,0.0,0.0,0.0,0.0,0.0,0.0,0.0,0.0,0.0,0.0,0.0,0.0,0.0,0.0,0.0,0.0,0.0,0.0,0.0,0.0,0.0,0.0,0.0,0.0,0.0,0.0,0.0,0.0,0.0,0.0,0.0,0.0,0.0,0.0,0.0,0.0,0.0,0.0,0.0,0.0,0.0,0.0,0.0,0.0,0.0,0.0,0.0,0.0,0.0,0.0,0.0,0.0,0.0,0.0,0.0,0.0,0.0,0.0,0.0,0.0,0.0,0.0,0.0,0.0,0.0,0.0,0.0,0.0,0.0,0.0,0.0,0.0,0.0,0.0,0.0,0.0,0.0,0.0,0.0,0.0,0.0,0.0,0.0,0.0,0.0,0.0,0.0,0.0,0.0,0.0,0.0,0.0,0.0,0.0,0.0,0.0,0.0,0.0,0.0,0.0,0.0,0.0,0.0,0.0,0.0,0.0,0.0,0.0,0.0,0.0,0.0,0.0,0.0,0.0,0.0,0.0,0.0,0.0,0.0,0.0,0.0,0.0,0.0,0.0,0.0,0.0,0.0,0.0,0.0,0.0,0.0,0.0,0.0,0.0,0.0,0.0,0.0,0.0,0.0,0.0,0.0,0.0,0.0,0.0,0.0,0.0,0.0,0.0,0.0,0.0,0.0,0.0,0.0,0.0,0.0,0.0,0.0,0.0,0.0,0.0,0.0,0.0,0.0,0.0,0.0,0.0,0.0,0.0,0.0,0.0,0.0,0.0,0.0,0.0,0.0,0.0,0.0,0.0,0.0,0.0,0.0,0.0,0.0,0.0,0.0,0.0,0.0,0.0,0.0,0.0,0.0,0.0,0.0,0.0,0.0,0.0,0.0,0.0,0.0,0.0,0.0,0.0,0.0,0.0,0.0,0.0,0.0,0.0,0.0,0.0,0.0,0.0,0.0,0.0,0.0,0.0,0.0,0.0,0.0,0.0,0.0,0.0,0.0,0.0,0.0,0.0,0.0,0.0,0.0,0.0,0.0,0.0,0.0,0.0,0.0,0.0,0.0,0.0,0.0,0.0,0.0,0.0,0.0,0.0,0.0,0.0,0.0,0.0,0.0,0.0,0.0,0.0,0.0,0.0,0.0,0.0,0.0,0.0,0.0,0.0,0.0,0.0,0.0,0.0,0.0,0.0,0.0,0.0,0.0,0.0,0.0,0.0,0.0,0.0,0.0,0.0,0.0,0.0,0.0,0.0,0.0,0.0,0.0,0.0,0.0,0.0,0.0,0.0,0.0,0.0,0.0,0.0,0.0,0.0,0.0,0.0,0.0,0.0,0.0,0.0,0.0,0.0,0.0,0.0,0.0,0.0,0.0,0.0,0.0,0.0,0.0,0.0,0.0,0.0,0.0,0.0,0.0,0.0,0.0,0.0,0.0,0.0,0.0,0.0,0.0,0.0,0.0,0.0,0.0,0.0,0.0,0.0,0.0,0.0,0.0,0.0,0.0,0.0,0.0,0.0,0.0,0.0,0.0,0.0,0.0,0.0,0.0,0.0,0.0,0.0,0.0,0.0,0.0,0.0,0.0,0.0,0.0,0.0,0.0,0.0,0.0,0.0,0.0,0.0,0.0,0.0,0.0,0.0,0.0,0.0,0.0,0.0,0.0,0.0,0.0,0.0,0.0,0.0,0.0,0.0,0.0,0.0,0.0,0.0,0.0,0.0,0.0,0.0,0.0,0.0,0.0,0.0,0.0,0.0,0.0,0.0,0.0,0.0,0.0,0.0,0.0,0.0,0.0,0.0,0.0,0.0,0.0,0.0,0.0,0.0,0.0,0.0,0.0,0.0,0.0,0.0,0.0,0.0,0.0,0.0,0.0,0.0,0.0,0.0,0.0,0.0,0.0,0.0,0.0,0.0,0.0,0.0,0.0,0.0,0.0,0.0,0.0,0.0,0.0,0.0,0.0,0.0,0.0,0.0,0.0,0.0,0.0,0.0,0.0,0.0,0.0,0.0,0.0,0.0,0.0,0.0,0.0,0.0,0.0,0.0,0.0,0.0,0.0,0.0,0.0,0.0,0.0,0.0,0.0,0.0,0.0,0.0,0.0,0.0,0.0,0.0,0.0,0.0,0.0,0.0,0.0,0.0,0.0,0.0,0.0,0.0,0.0,0.0,0.0,0.0,0.0,0.0,0.0,0.0,0.0,0.0,0.0,0.0,0.0,0.0,0.0,0.0,0.0,0.0,0.0,0.0,0.0,0.0,0.0,0.0,0.0,0.0,0.0,0.0,0.0,0.0,0.0,0.0,0.0,0.0,0.0,0.0,0.0,0.0,0.0,0.0,0.0,0.0,0.0,0.0,0.0,0.0,0.0,0.0,0.0,0.0,0.0,0.0,0.0,0.0,0.0,0.0,0.0,0.0,0.0,0.0,0.0,0.0,0.0,0.0,0.0,0.0,0.0,0.0,0.0,0.0,0.0,0.0,0.0,0.0,0.0,0.0,0.0,0.0,0.0,0.0,0.0,0.0,0.0,0.0,0.0,0.0,0.0,0.0,0.0,0.0,0.0,0.0,0.0,0.0,0.0,0.0,0.0,0.0,0.0,0.0,0.0,0.0,0.0,0.0,0.0,0.0,0.0,0.0,0.0,0.0,0.0,0.0,0.0,0.0,0.0,0.0,0.0,0.0,0.0,0.0,0.0,0.0,0.0,0.0,0.0,0.0,0.0,0.0,0.0,0.0,0.0,0.0,0.0,0.0,0.0,0.0,0.0,0.0,0.0,0.0,0.0,0.0,0.0,0.0,0.0,0.0,0.0,0.0,0.0,0.0,0.0,0.0,0.0,0.0,0.0,0.0,0.0,0.0,0.0,0.0,0.0,0.0,0.0,0.0,0.0,0.0,0.0,0.0,0.0,0.0,0.0,0.0,0.0,0.0,0.0,0.0,0.0,0.0,0.0,0.0,0.0,0.0,0.0,0.0,0.0,0.0,0.0,0.0,0.0,0.0,0.0,0.0,0.0,0.0,0.0,0.0,0.0,0.0,0.0,0.0,0.0,0.0,0.0,0.0,0.0,0.0,0.0,0.0,0.0,0.0,0.0,0.0,0.0,0.0,0.0,0.0,0.0,0.0,0.0,0.0,0.0,0.0,0.0,0.0,0.0,0.0,0.0,0.0,0.0,0.0,0.0,0.0,0.0,0.0,0.0,0.0,0.0,0.0,0.0,0.0,0.0,0.0,0.0,0.0,0.0,0.0,0.0,0.0,0.0,0.0,0.0,0.0,0.0,0.0,0.0,0.0,0.0,0.0,0.0,0.0,0.0,0.0,0.0,0.0,0.0,0.0,0.0,0.0,0.0,0.0,0.0,0.0,0.0,0.0,0.0,0.0,0.0,0.0,0.0,0.0,0.0,0.0,0.0,0.0,0.0,0.0,0.0,0.0,0.0,0.0,0.0,0.0,0.0,0.0,0.0,0.0,0.0,0.0,0.0,0.0,0.0,0.0,0.0,0.0,0.0,0.0,0.0,0.0,0.0,0.0,0.0,0.0,0.0,0.0,0.0,0.0,0.0,0.0,0.0,0.0,0.0,0.0,0.0,0.0,0.0,0.0,0.0,0.0,0.0,0.0,0.0,0.0,0.0,0.0,0.0,0.0,0.0,0.0,0.0,0.0,0.0,0.0,0.0,0.0,0.0,0.0,0.0,0.0,0.0,0.0,0.0,0.0,0.0,0.0,0.0,0.0,0.0,0.0,0.0,0.0,0.0,0.0,0.0,0.0,0.0,0.0,0.0,0.0,0.0,0.0,0.0,0.0,0.0,0.0,0.0,0.0,0.0,0.0,0.0,0.0,0.0,0.0,0.0,0.0,0.0,0.0,0.0,0.0,0.0,0.0,0.0,0.0,0.0,0.0,0.0,0.0,0.0,0.0,0.0,0.0,0.0,0.0,0.0,0.0,0.0,0.0,0.0,0.0,0.0,0.0,0.0,0.0,0.0,0.0,0.0,0.0,0.0,0.0,0.0,0.0,0.0,0.0,0.0,0.0,0.0,0.0,0.0,0.0,0.0,0.0,0.0,0.0,0.0,0.0,0.0,0.0,0.0,0.0,0.0,0.0,0.0,0.0,0.0,0.0,0.0,0.0,0.0,0.0,0.0,0.0,0.0,0.0,0.0,0.0,0.0,0.0,0.0,0.0,0.0,0.0,0.0,0.0,0.0,0.3052,0.4316,0.6284,0.6624,0.7304,0.8117,0.0,0.0,0.0,0.0,0.0,0.0,0.0,0.0,0.0,0.0,0.0,0.0,0.0,0.0,0.0,0.0,0.0,0.0,0.0,0.0,0.0,0.0,0.0,0.0,0.0,0.0,0.0,0.0,0.0,0.0,0.0,0.0,0.0,0.0,0.0,0.0,0.0,0.0,0.0,0.0,0.0,0.0,0.0,0.0,0.0,0.0,0.0,0.0,0.0,0.0,0.0,0.0,0.0,0.0,0.0,0.0,0.0,0.0,0.0,0.0,0.0,0.0,0.0,0.0,0.0,0.0,0.0,0.0,0.0,0.0,0.0,0.0,0.0,0.0,0.0,0.0,0.0,0.0,0.0,0.0,0.0,0.0,0.0,0.0,0.0,0.0,0.0,0.0,0.0,0.0,0.0,0.0,0.0,0.0,0.0,0.0,0.3168,0.4491,0.6013,0.0,0.0,0.0,0.0,0.0,0.0,0.0,0.0,0.0,0.0,0.2515,0.3877,0.5877,0.8365,0.8688,0.8988,0.9228,0.9646,0.0,0.0,0.0,0.0,0.0,0.0,0.0,0.0,0.0,0.0,0.0,0.0,0.0,0.0,0.0,0.0,0.0,0.0,0.0,0.0,0.0,0.0,0.0,0.0,0.0,0.0,0.0,0.0,0.0,0.0,0.0,0.0,0.0,0.0,0.0,0.0,0.0,0.0,0.0,0.0,0.0,0.0,0.0,0.0,0.0,0.0,0.0,0.0,0.0,0.0,0.0,0.0,0.0,0.0,0.0,0.0,0.0,0.0,0.0,0.0,0.0,0.0,0.0,0.0,0.0,0.0,0.0,0.0,0.0,0.0,0.0,0.0,0.0,0.0,0.0,0.0,0.0,0.0,0.0,0.0,0.0,0.0,0.0,0.0,0.0,0.0,0.0,0.0,0.0,0.0,0.0,0.0,0.0,0.0,0.3294,0.4801,0.6236,0.7735,0.8121,0.0,0.0,0.0,0.0,0.0,0.0,0.0,0.0951,0.1007,0.2473,0.4847,0.6346,0.7011,0.8186,0.8886,0.9207,0.9103,0.9242,0.9666,0.0,0.0,0.0,0.0,0.0,0.0,0.0,0.0,0.0,0.0,0.0,0.0,0.0,0.0,0.0,0.0,0.0,0.0,0.0,0.0,0.0,0.0,0.0,0.0,0.0,0.0,0.0,0.0,0.0,0.0,0.0,0.0,0.0,0.0,0.0,0.0,0.0,0.0,0.0,0.0,0.0,0.2455,0.2648,0.0,0.0,0.0,0.0,0.0,0.0,0.0,0.0,0.0,0.0,0.0,0.0,0.0,0.0,0.0,0.0,0.0,0.0,0.0,0.0,0.0,0.0,0.0,0.0,0.0,0.0,0.0,0.0,0.0,0.0,0.0,0.0,0.0,0.0,0.0,0.0,0.0,0.0,0.0,0.0,0.0,0.0,0.0,0.0,0.0,0.0,0.0,0.0,0.0,0.2992,0.457,0.5229,0.6664,0.726,0.6644,0.0,0.0,0.0,0.0,0.095,0.0941,0.0356,0.0699,0.2119,0.5167,0.6583,0.6493,0.8053,0.8906,0.9028,0.8912,0.9191,0.9612,0.9612,0.0,0.0,0.0,0.0,0.0,0.0,0.0,0.0,0.0,0.0,0.0,0.0,0.0,0.0,0.0,0.0,0.0,0.0,0.0,0.0,0.0,0.0,0.0,0.0,0.0,0.0,0.0,0.0,0.0,0.0,0.0,0.0,0.0,0.0,0.0,0.0,0.0,0.0,0.0,0.2233,0.3095,0.4174,0.3388,0.2707,0.0,0.0,0.0,0.0,0.0,0.0,0.0,0.0,0.0,0.0,0.0,0.0,0.0,0.0,0.0,0.0,0.0,0.0,0.0,0.0,0.0,0.0,0.0,0.0,0.0,0.0,0.0,0.0,0.0,0.0,0.0,0.0,0.0,0.0,0.0,0.0,0.0,0.0,0.0,0.0,0.0,0.0,0.0,0.0,0.0,0.0,0.1126,0.2715,0.4015,0.4827,0.5592,0.5794,0.5426,0.3402,0.0,0.0,0.0,0.0,0.0,0.0,0.0469,0.1354,0.4705,0.6276,0.605,0.8156,0.892,0.8577,0.8451,0.859,0.8902,0.8934,0.7075,0.4147,0.0,0.0,0.0,0.0,0.0,0.0,0.0,0.0,0.0,0.0,0.0,0.0,0.0,0.0,0.0,0.0,0.0,0.0,0.0,0.0,0.0,0.0,0.0,0.0,0.0,0.0,0.0,0.0,0.0,0.0,0.0,0.0,0.0,0.0,0.0,0.0,0.0,0.2369,0.2728,0.4696,0.3223,0.2029,0.0,0.0,0.0,0.0,0.0,0.0,0.0,0.0,0.0,0.0,0.0,0.0,0.0,0.0,0.0,0.0,0.0,0.0,0.0,0.0,0.0,0.0,0.0,0.0,0.0,0.0,0.0,0.0,0.0,0.0,0.0,0.0,0.0,0.0,0.0,0.0,0.0,0.0,0.0,0.0,0.0,0.0,0.0,0.0,0.0,0.1142,0.4151,0.3155,0.35,0.6522,0.5414,0.3968,0.2515,0.2254,0.1572,0.018,0.0061,0.0,0.0,0.0,0.0,0.0061,0.3382,0.5043,0.5236,0.8299,0.8995,0.7643,0.7306,0.7104,0.7054,0.7169,0.5463,0.2607,0.2762,0.0,0.0,0.0,0.0,0.0,0.0,0.0,0.0,0.0,0.0,0.0,0.0,0.0,0.0,0.0,0.0,0.0,0.0,0.0,0.0,0.0,0.0,0.0,0.0,0.0,0.0,0.0,0.0,0.0,0.0,0.0,0.0,0.0,0.0,0.0,0.0,0.0,0.0,0.2825,0.1338,0.0,0.0,0.0,0.0,0.0,0.0,0.0,0.0,0.0,0.0,0.0,0.0,0.0,0.0,0.0,0.0,0.0,0.0,0.0,0.0,0.0,0.0,0.0,0.0,0.0,0.0,0.0,0.0,0.0,0.0,0.0,0.0,0.0,0.0,0.0,0.0,0.0,0.0,0.0,0.0,0.0,0.0,0.0,0.0,0.0,0.0,0.0404,0.1556,0.1895,0.2542,0.362,0.3218,0.2645,0.2083,0.1279,0.0528,0.0,0.0,0.0,0.0,0.0,0.0,0.0,0.227,0.3377,0.3504,0.5634,0.6383,0.5854,0.5729,0.5083,0.4125,0.4891,0.4047,0.221,0.226,0.1322,0.0,0.0,0.0,0.0,0.0,0.0,0.0,0.0,0.0,0.0,0.0,0.0,0.0,0.0,0.0,0.0,0.0,0.0,0.0,0.0,0.0,0.0,0.0,0.0,0.0,0.0,0.0,0.0,0.0,0.0,0.0,0.0,0.0,0.0,0.0,0.0,0.0,0.2702,0.1149,0.0,0.0,0.0,0.0,0.0,0.0,0.0,0.0,0.0,0.0,0.0,0.0,0.0,0.0,0.0,0.0,0.0,0.0,0.0,0.0,0.0,0.0,0.0,0.0,0.0,0.0,0.0,0.0,0.0,0.0,0.0,0.0,0.0,0.0,0.0,0.0,0.0,0.0,0.0,0.0,0.0,0.0,0.0,0.0,0.0,0.0,0.0235,0.0787,0.1153,0.1528,0.212,0.1671,0.1344,0.1314,0.0471,0.0,0.0,0.0,0.0,0.0,0.0,0.0,0.0,0.1711,0.2587,0.2629,0.4245,0.466,0.4129,0.4083,0.3163,0.1688,0.2482,0.2202,0.1336,0.135,0.0823,0.0,0.0,0.0,0.0,0.0,0.0,0.0,0.0,0.0,0.0,0.0,0.0,0.0,0.0,0.0,0.0,0.0,0.0,0.0,0.0,0.0,0.0,0.0,0.0,0.0,0.0,0.0,0.0,0.0,0.0,0.0,0.0,0.0,0.0,0.0,0.1211,0.0705,0.2682,0.1157,0.0,0.0,0.0,0.0,0.0,0.0,0.0,0.0,0.0,0.0,0.0,0.0,0.0,0.0,0.0,0.0,0.0,0.0,0.0,0.0,0.0,0.0,0.0,0.0,0.0,0.0,0.0,0.0,0.0,0.0,0.0,0.0,0.0,0.0,0.0,0.0,0.0,0.0,0.0,0.0,0.0,0.0,0.0,0.0,0.0,0.0,0.0626,0.2232,0.0971,0.0626,0.2251,0.0916,0.0,0.0,0.0,0.0,0.0,0.0,0.0,0.0,0.0,0.0,0.0,0.1788,0.2611,0.2678,0.4195,0.4132,0.2614,0.251,0.1485,0.0,0.0,0.0,0.0,0.0,0.0,0.0,0.0,0.0,0.0,0.0,0.0,0.0,0.0,0.0,0.0,0.0,0.0,0.0,0.0,0.0,0.0,0.0,0.0,0.0,0.0,0.0,0.0,0.0,0.0,0.0,0.0,0.0,0.0,0.0,0.0,0.0,0.0,0.0,0.0,0.2571,0.1198,0.0668,0.2561,0.1146,0.0,0.0,0.0,0.0,0.0,0.0,0.0,0.0,0.0,0.0,0.0,0.0,0.0,0.0,0.0,0.0,0.0,0.0,0.0,0.0,0.0,0.0,0.0,0.0,0.0,0.0,0.0,0.0,0.0,0.0,0.0,0.0,0.0,0.0,0.0,0.0,0.0,0.0,0.0,0.0,0.0,0.0,0.0,0.0,0.0,0.0,0.0183,0.0637,0.026,0.02,0.0615,0.0251,0.0,0.0,0.0,0.0,0.0,0.0,0.0,0.0,0.0,0.0,0.0,0.0507,0.0724,0.0718,0.1215,0.1155,0.0738,0.074,0.045,0.0,0.0,0.0,0.0,0.0,0.0,0.0,0.0,0.0,0.0,0.0,0.0,0.0,0.0,0.0,0.0,0.0,0.0,0.0,0.0,0.0,0.0,0.0,0.0,0.0,0.0,0.0,0.0,0.0,0.0,0.0,0.0,0.0,0.0,0.0,0.0,0.0,0.0,0.0,0.0157,0.0717,0.0333,0.0174,0.0722,0.0279,0.0,0.0,0.0,0.0,0.0,0.0,0.0,0.0,0.0,0.0,0.0,0.0,0.0,0.0,0.0,0.0,0.0,0.0,0.0,0.0,0.0,0.0,0.0,0.0,0.0,0.0,0.0,0.0,0.0,0.0,0.0,0.0,0.0,0.0,0.0,0.0,0.0,0.0,0.0,0.0,0.0,0.0,0.0,0.0,0.0,0.0,0.0,0.0,0.0,0.0,0.0,-0.0691,-0.0792,-0.0063,0.0,0.0,0.0,0.0,0.0,0.0,0.0,0.0,0.0,0.0,0.0,0.0,0.0,0.0,0.0,0.0,0.0,0.0,0.0,0.0,0.0,0.0,0.0,0.0,0.0,0.0,0.0,0.0,0.0,0.0,0.0,0.0,0.0,0.0,0.0,0.0,0.0,0.0,0.0,0.0,0.0,0.0,0.0,0.0,0.0,0.0,0.0,0.0,0.0,0.0,0.0,0.0,0.0,0.0,0.0,0.1452,0.1163,0.0171,0.0,0.0,0.0,0.0,0.0,0.0,0.0,0.0,0.0,0.0,0.0,0.0,0.0,0.0,0.0,0.0,0.0,0.0,0.0,0.0,0.0,0.0,0.0,0.0,0.0,0.0,0.0,0.0,0.0,0.0,0.0,0.0,0.0,0.0,0.0,0.0,0.0,0.0,0.0,0.0,0.0,0.0,0.0,0.0,0.0,0.0,0.0,0.0,0.0,0.0,0.0,0.0,-0.0126,-0.0259,-0.0253,-0.1918,-0.2159,-0.0379,-0.0267,-0.0207,0.0,0.0,0.0,0.0,0.0,0.0,0.0,0.0,-0.0153,-0.0382,-0.0153,-0.031,-0.0792,-0.0486,-0.0576,-0.0833,-0.0843,-0.0848,-0.0847,-0.0504,-0.0247,0.0,0.0,0.0,0.0,0.0,0.0,0.0,0.0,0.0,0.0,0.0,0.0,0.0,0.0,0.0,0.0,0.0,0.0,0.0,0.0,0.0,0.0,0.0,0.0,0.0,0.0,0.0,0.0,0.0,0.0,0.0,0.0,0.303,0.2453,0.0277,0.0,0.0,0.0,0.0,0.0,0.0,0.0,0.0,0.0,0.0,0.0,0.0,0.0,0.0,0.0,0.0,0.0,0.0,0.0,0.0,0.0,0.0,0.0,0.0,0.0,0.0,0.0,0.0,0.0,0.0,0.0,0.0,0.0,0.0,0.0,0.0,0.0,0.0,0.0,0.0,0.0,0.0,0.0,0.0,0.0,0.0,0.0,0.0,0.0,0.0,0.0,0.0,-0.097,-0.1751,-0.2015,-0.3298,-0.3525,-0.2106,-0.2007,-0.1407,-0.0074,0.0,0.0,0.0,0.0,0.0,0.0,0.0,-0.0882,-0.2642,-0.081,-0.1965,-0.5465,-0.3694,-0.3994,-0.5753,-0.587,-0.6007,-0.5833,-0.383,-0.1806,0.0,0.0,0.0,0.0,0.0,0.0,0.0,0.0,0.0,0.0,0.0,0.0,0.0,0.0,0.0,0.0,0.0,0.0,0.0,0.0,0.0,0.0,0.0,0.0,0.0,0.0,0.0,0.0,0.0,0.0,0.0,0.0951,0.0621,0.0549,0.0095,0.0,0.0,0.0,0.0,0.0,0.0,0.0,0.0,0.0,0.0,0.0,0.0,0.0,0.0,0.0,0.0,0.0,0.0,0.0,0.0,0.0,0.0,0.0,0.0,0.0,0.0,0.0,0.0,0.0,0.0,0.0,0.0,0.0,0.0,0.0,0.0,0.0,0.0,0.0,0.0,0.0,0.0,0.0,0.0,0.0,0.0,0.0,0.0,0.0,0.0,0.0,0.0,-0.124,-0.2165,-0.2346,-0.3788,-0.4943,-0.5464,-0.3695,-0.2343,-0.1706,-0.175,-0.1776,-0.1705,-0.2904,-0.3485,-0.3325,-0.3446,-0.4042,-0.5111,-0.3982,-0.4712,-0.6956,-0.5874,-0.601,-0.7132,-0.7335,-0.7387,-0.7211,-0.4744,-0.304,-0.1806,-0.0508,0.0,0.0,0.0,0.0,0.0,0.0,0.0,0.0,0.0,0.0,0.0,0.0,0.0,0.0,0.0,0.0,0.0,0.0,0.0,0.0,0.0,0.0,0.0,0.0,0.0,0.1988,0.2992,0.0,0.3043,0.1797,0.1654,0.1414,0.0195,0.0,0.0,0.0,0.0,0.0,0.0,0.0,0.0,0.0,0.0,0.0,0.0,0.0,0.0,0.0,0.0,0.0,0.0,0.0,0.0,0.0,0.0,0.0,0.0,0.0,0.0,0.0,0.0,0.0,0.0,0.0,0.0,0.0,0.0,0.0,0.0,0.0,0.0,0.0,0.0,0.0,0.0,0.0,0.0,0.0,0.0,0.0,0.0,0.0,0.0,0.0,0.0,-0.1315,-0.2424,-0.3036,-0.4788,-0.6621,-0.8357,-0.5597,-0.396,-0.4094,-0.4233,-0.4199,-0.4069,-0.6057,-0.6958,-0.6682,-0.6822,-0.7143,-0.7566,-0.7073,-0.7448,-0.844,-0.8033,-0.8087,-0.8518,-0.8808,-0.8853,-0.8588,-0.5718,-0.4512,-0.4197,-0.1164,0.0,0.0,0.0,0.0,0.0,0.0,0.0,0.0,0.0,0.0,0.0,0.0,0.0,0.0,0.0,0.0,0.0,0.0,0.0,0.0,0.0,0.0,0.0475,0.2143,0.1537,0.1571,0.4567,0.427,0.3318,0.2575,0.2728,0.2215,0.0297,0.0,0.0,0.0,0.0,0.0,0.0,0.0,0.0,0.0,0.0,0.0,0.0,0.0,0.0,0.0,0.0,0.0,0.0,0.0,0.0,0.0,0.0,0.0,0.0,0.0,0.0,0.0,0.0,0.0,0.0,0.0,0.0,0.0,0.0,0.0,0.0,0.0,0.0,0.0,0.0,0.0,0.0,0.0,0.0,0.0,0.0,0.0,0.0,0.0,0.0,0.0,0.0,-0.1231,-0.3223,-0.61,-0.8112,-0.8961,-0.8329,-0.8172,-0.7606,-0.6563,-0.6643,-0.6607,-0.6531,-0.6874,-0.701,-0.6676,-0.6842,-0.79,-0.9859,-0.7808,-0.9198,-1.3197,-1.1287,-1.1659,-1.3688,-1.4055,-1.4171,-1.3703,-0.9051,-0.7184,-0.6604,-0.1829,0.0,0.0,0.0,0.0,0.0,0.0,0.0,0.0,0.0,0.0,0.0,0.0,0.0,0.0,0.0,0.0,0.0,0.0,0.0,0.0,0.0,0.0,0.0081,0.0316,0.1721,0.2459,0.1012,0.2211,0.2761,0.0648,0.0379,0.0291,0.0,0.0,0.0,0.0,0.0,0.0,0.0,0.0,0.0,0.0,0.0,0.0,0.0,0.0,0.0,0.0,0.0,0.0,0.0,0.0,0.0,0.0,0.0,0.0,0.0,0.0,0.0,0.0,0.0,0.0,0.0,0.0,0.0,0.0,0.0,0.0,0.0,0.0,0.0,0.0,0.0,0.0,0.0,0.0,0.0,0.0,0.0,0.0,0.0,0.0,-0.0466,0.0,0.0,-0.1278,-0.3427,-0.6611,-0.7825,-0.8872,-0.9926,-0.9108,-0.8667,-0.8764,-0.8919,-0.8972,-0.8847,-1.0265,-1.0864,-1.0632,-1.0815,-1.1425,-1.2289,-1.1463,-1.2207,-1.4211,-1.3337,-1.3598,-1.4529,-1.4841,-1.497,-1.4686,-1.1124,-0.8849,-0.7214,-0.3542,-0.1861,-0.147,-0.0351,0.0,0.0,0.0,0.0,0.0,0.0,0.0,0.0,0.0,0.0,0.0,0.0,0.0,0.0,0.0,0.0,0.0,0.0,0.0,0.0,0.0,0.0761,0.1127,0.0176,0.0815,0.1115,0.0188,0.0,0.0,0.0,0.0,0.0,0.0,0.0,0.0,0.0,0.0,0.0,0.0,0.0,0.0,0.0,0.0,0.0,0.0,0.0,0.0,0.0,0.0,0.0,0.0,0.0,0.0,0.0,0.0,0.0,0.0,0.0,0.0,0.0,0.0,0.0,0.0,0.0,0.0,0.0,0.0,0.0,-0.0185,0.0,0.0,0.0,0.0,0.0,0.0,0.0,0.0,0.0,0.0,-0.1159,-0.0407,-0.0052,-0.1336,-0.3298,-0.6039,-0.6955,-0.8448,-1.0907,-1.0006,-0.9812,-1.0749,-1.1042,-1.1141,-1.1141,-1.2844,-1.3715,-1.3464,-1.3715,-1.3865,-1.3905,-1.4021,-1.4156,-1.4306,-1.4448,-1.4509,-1.4529,-1.4794,-1.4909,-1.4718,-1.2102,-0.9959,-0.8073,-0.5319,-0.396,-0.335,-0.1544,-0.1194,-0.1588,-0.174,-0.1734,-0.1651,-0.1075,-0.0829,-0.0747,-0.0166,0.0,0.0,0.0,0.0,0.0,0.0,0.0,0.0,0.0,0.0,0.0,0.0,0.0,0.0,0.0,0.0,0.0,0.0,0.0,0.0,0.0,0.0,0.0,0.0,0.0,0.0,0.0,0.0,0.0,0.0,0.0,0.0,0.0,0.0,0.0,0.0,0.0,0.0,0.0,0.0,0.0,0.0,0.0,0.0,0.0,-0.072,-0.1005,-0.1079,-0.1759,-0.2031,-0.2001,-0.2009,-0.1995,-0.1876,-0.1214,-0.1384,-0.1911,-0.1271,-0.1003,-0.1283,0.0,0.0,0.0,0.0,0.0,0.0,0.0,0.0,0.0,0.0,0.0,0.0,0.0,-0.133,-0.2876,-0.4615,-0.6364,-0.8312,-1.0551,-1.1224,-1.1817,-1.2568,-1.3098,-1.3327,-1.3327,-1.361,-1.377,-1.362,-1.377,-1.3919,-1.4061,-1.4068,-1.4156,-1.4306,-1.4448,-1.4509,-1.4523,-1.4679,-1.4746,-1.4473,-1.1969,-1.067,-0.9908,-0.705,-0.5832,-0.546,-0.3641,-0.4142,-0.5651,-0.5981,-0.6123,-0.5755,-0.3674,-0.2994,-0.2596,-0.0581,0.0,0.0,0.0,0.0,0.0,0.0,0.0,0.0,0.0,0.0,0.0,0.0,0.0,0.0,0.0,0.0,0.0,0.0,0.0,0.0,0.0,0.0,0.0,0.0,0.0,0.0,0.0,0.0,0.0,0.0,0.0,0.0,0.0,0.0,0.0,0.0,0.0,0.0,0.0,0.0,0.0,0.0,0.0,0.0,-0.0104,-0.2544,-0.369,-0.3816,-0.6293,-0.7285,-0.721,-0.7142,-0.7017,-0.6625,-0.4399,-0.491,-0.6619,-0.4314,-0.3494,-0.3494,0.0,0.0,0.0,0.0,0.0,0.0,0.0,0.0,0.0,0.0,0.0,0.0,0.0,0.0,0.0,0.0,-0.5226,-0.6941,-1.0039,-1.0649,-1.1206,-1.1959,-1.223,-1.2454,-1.2657,-1.2854,-1.2976,-1.303,-1.3275,-1.3424,-1.3478,-1.3682,-1.3858,-1.4007,-1.4258,-1.4421,-1.4516,-1.4563,-1.4475,-1.4183,-1.3009,-1.1419,-0.955,-0.8487,-0.7863,-0.739,0.0,-0.6476,-0.5936,-0.6068,-0.522,-0.407,-0.3304,-0.2159,-0.0894,-0.0243,0.0,0.0,0.0,0.0,0.0,0.0,0.0,0.0,0.0,0.0,0.0,0.0,0.0,0.0,0.0,0.0,0.0,0.0,0.0,0.0,0.0,0.0,0.0,0.0,0.0,-0.0655,-0.2221,-0.0974,0.0,0.0,0.0,0.0,0.0,0.0,0.0,0.0,-0.1775,-0.2613,-0.2613,-0.4372,-0.53,-0.53,-0.5355,-0.4396,-0.2744,-0.5279,-0.6446,-0.6331,-0.7262,-0.744,-0.719,-0.7302,-0.7286,-0.7049,-0.6233,-0.638,-0.7004,-0.6174,-0.6971,-0.8308,0.0,0.0,0.0,0.0,0.0,0.0,0.0,0.0,0.0,0.0,0.0,0.0,0.0,0.0,0.0,0.0,0.0,-0.6125,-0.9539,-1.0086,-1.0541,-1.1185,-1.1409,-1.166,-1.1965,-1.2115,-1.2284,-1.2488,-1.2576,-1.2698,-1.2861,-1.3003,-1.3146,-1.3302,-1.36,-1.379,-1.3871,-1.3871,-1.3824,-1.3709,-1.3261,-1.2042,-1.0375,-1.0162,-0.9796,0.0,-0.9612,-0.9005,-0.7962,-0.7356,-0.6318,-0.5009,-0.3523,-0.1702,0.0,0.0,0.0,0.0,0.0,0.0,0.0,0.0,0.0,0.0,0.0,0.0,0.0,0.0,0.0,0.0,0.0,0.0,0.0,0.0,0.0,-0.0263,-0.1166,-0.1256,-0.161,-0.2405,-0.2533,-0.3185,-0.4677,-0.3439,-0.2213,-0.1388,-0.1296,-0.0904,0.0,-0.0816,-0.1331,-0.1438,-0.4009,-0.5359,-0.548,-0.7108,-0.8007,-0.798,-0.8035,-0.7065,-0.54,-0.7969,-0.91,-0.896,-0.9843,-1.0064,-0.9848,-0.9876,-0.983,-0.9554,-0.8684,-0.893,-0.9553,-0.8664,-0.9913,-1.1876,0.0,0.0,0.0,0.0,0.0,0.0,0.0,0.0,0.0,0.0,0.0,0.0,0.0,0.0,0.0,0.0,0.0,0.0,-0.918,-0.9632,-0.9978,-1.0419,-1.0717,-1.1023,-1.1314,-1.1477,-1.178,-1.2148,-1.1873,-1.1955,-1.2381,-1.2319,-1.2339,-1.2277,-1.2654,-1.279,-1.2718,-1.2712,-1.2861,-1.3064,-1.2623,-1.2352,-1.2176,-1.1755,-1.1504,-1.1362,-1.1233,-1.1457,-1.1544,-0.9739,-0.9025,-0.8197,-0.4219,-0.1586,0.0,0.0,0.0,0.0,0.0,0.0,0.0,0.0,0.0,0.0,0.0,0.0,0.0,0.0,0.0,0.0,0.0,0.0,0.0,0.0,-0.0081,-0.0977,-0.3314,-0.3709,-0.4616,-0.6852,-0.7102,-0.7119,-0.7304,-0.7279,-0.6386,-0.4121,-0.3885,-0.2837,-0.0491,-0.2669,-0.4085,-0.4222,-0.6687,-0.8076,-0.8253,-0.8389,-0.8312,-0.8242,-0.8335,-0.8296,-0.812,-1.0685,-1.1737,-1.1709,-1.4045,-1.4875,-1.4706,-1.457,-1.4428,-1.4033,-1.1788,-1.2237,-1.4027,-1.1699,-1.2325,-1.3938,0.0,0.0,0.0,0.0,0.0,0.0,0.0,0.0,0.0,0.0,0.0,0.0,0.0,0.0,0.0,0.0,0.0,0.0,-0.9027,-0.9337,-0.9429,-0.9652,-0.9849,-1.0086,-1.0321,-1.0649,-1.1528,-1.2995,-1.3043,-1.3068,-1.3201,-1.475,-1.4171,-1.2033,-1.3612,-1.367,-1.2556,-1.2447,-1.2311,-1.2142,-1.1809,-1.1518,-1.1287,-1.128,-1.1253,-1.1246,-1.1436,-1.1572,-1.1405,-0.9617,-0.7059,-0.4233,-0.1623,-0.0445,0.0,0.0,0.0,0.0,0.0,0.0,0.0,0.0,0.0,0.0,0.0,0.0,0.0,0.0,0.0,0.0,0.0,0.0,0.0,0.0,-0.1472,-0.2864,-0.3517,-0.5137,-0.646,-0.7041,-0.7102,-0.7829,-0.9592,-0.9763,-0.955,-0.9103,-0.7397,-0.621,-0.5668,-0.6273,-0.6702,-0.6862,-0.9368,-1.0822,-1.1023,-1.3017,-1.2984,-1.1045,-1.2963,-1.2804,-1.089,-1.3336,-1.4267,-1.4132,-1.4719,-1.476,-1.4421,-1.4482,-1.4428,-1.421,-1.3584,-1.3761,-1.421,-1.3584,-1.3761,-1.421,0.0,0.0,0.0,0.0,0.0,0.0,0.0,0.0,0.0,0.0,0.0,0.0,0.0,0.0,0.0,0.0,0.0,0.0,0.0,-0.9055,-0.9123,-0.933,-0.9361,-0.9517,-0.9747,-0.9917,-1.0615,-1.1827,-1.177,-1.1862,-1.2086,-1.3104,-1.274,-1.1234,-1.2511,-1.2604,-1.1816,-1.1735,-1.1674,0.0,0.0,-1.1077,-1.105,-1.1131,-1.1234,-1.1275,-1.1511,-1.0491,-0.8867,-0.7888,-0.4917,-0.1549,-0.0373,0.0,0.0,0.0,0.0,0.0,0.0,0.0,0.0,0.0,0.0,0.0,0.0,0.0,0.0,0.0,0.0,0.0,0.0,-0.0721,-0.1317,-0.1546,-0.3499,-0.5363,-0.6644,-0.7991,-0.9282,-1.0249,-1.0431,-1.0888,-1.2144,-1.2384,-1.2495,-1.2507,-1.0302,-0.8528,-0.7664,-0.8665,-0.9322,-0.9542,-1.2107,-1.3574,-1.386,-1.5373,-1.534,-1.3772,-1.5133,-1.4938,-1.3394,-1.4679,-1.5126,-1.4964,-1.4828,-1.4624,-1.4387,-1.434,-1.4312,-1.4292,-1.4224,-1.4238,-1.4299,-1.4299,-1.4299,-1.4299,0.0,0.0,0.0,0.0,0.0,0.0,0.0,0.0,0.0,0.0,0.0,0.0,0.0,0.0,0.0,0.0,0.0,0.0,0.0,0.0,0.0,-0.9173,-0.918,-0.9262,-0.9374,-0.9361,-0.9689,-1.026,-0.9902,-1.0046,-1.0524,-1.0512,-1.0424,-1.0263,-1.0816,-1.0958,-1.082,-1.084,-1.107,-1.1267,-1.088,-1.0873,-1.1104,0.0,0.0,-1.1172,-1.1457,-0.91,-0.5767,-0.5781,-0.3203,0.0,0.0,0.0,0.0,0.0,0.0,0.0,0.0,0.0,0.0,0.0,0.0,-0.0086,-0.0336,-0.0161,-0.0077,-0.0302,-0.0147,0.0,0.0,-0.1591,-0.3017,-0.3527,-0.5587,-0.8023,-1.0486,-1.1308,-1.2378,-1.4289,-1.4631,-1.4624,-1.4326,-1.455,-1.4652,-1.4523,-1.2522,-1.0519,-0.8672,-1.0643,-1.2047,-1.2299,-1.4498,-1.5818,-1.6083,-1.6083,-1.5995,-1.5825,-1.5676,-1.552,-1.5343,-1.5065,-1.493,-1.4896,-1.4631,-1.4502,-1.4462,-1.4183,-1.4163,-1.4285,-1.4129,-1.4163,-1.4299,-1.4299,-1.4299,-1.4299,0.0,0.0,0.0,0.0,0.0,0.0,0.0,0.0,0.0,0.0,0.0,0.0,0.0,0.0,0.0,0.0,0.0,0.0,0.0,0.0,0.0,0.0,-0.8974,-0.9103,-0.9374,-0.9316,-1.0099,-1.1845,-1.1659,-1.1684,-1.1894,-1.3368,-1.2663,-1.01,-1.1915,-1.1892,-1.0582,-1.0704,-1.0792,-1.0833,-1.0751,-1.0751,-1.0812,0.0,0.0,0.0,-1.1179,-0.8906,-0.5764,-0.5689,-0.315,0.0,0.0,0.0,0.0,0.0,0.0,0.0,0.0,0.0,0.0,0.0,0.0,-0.0414,-0.192,-0.1063,-0.0436,-0.195,-0.1051,0.0,0.0,-0.1512,-0.2894,-0.3533,-0.6822,-0.9592,-1.0637,-1.2562,-1.3988,-1.4258,-1.4577,-1.4624,-1.4326,-1.4448,-1.4536,-1.4516,-1.408,-1.379,-1.3474,-1.4078,-1.4536,-1.4938,-1.5676,-1.6029,-1.6083,-1.6083,-1.5947,-1.5676,-1.552,-1.5309,-1.5038,-1.4862,-1.4713,-1.459,-1.4536,-1.4441,-1.4326,-1.4143,-1.4163,-1.4285,-1.4129,-1.4163,-1.4299,-1.4299,-1.4299,-1.4299,0.0,0.0,0.0,0.0,0.0,0.0,0.0,0.0,0.0,0.0,0.0,0.0,0.0,0.0,0.0,0.0,0.0,0.0,0.0,0.0,0.0,0.0,0.0,0.0,-0.915,-0.915,-0.9737,-1.0838,0.0,-1.0845,-1.1088,-1.1926,-1.1494,-1.0059,-1.1158,-1.1248,-1.05,-1.0656,-1.0717,-1.0717,-1.0717,-1.0717,-1.0738,0.0,0.0,0.0,0.0,-0.944,-0.7078,-0.7035,-0.4522,-0.1261,-0.0312,0.0,0.0,0.0,0.0,0.0,0.0,0.0,0.0,0.0,0.0,-0.0475,-0.2301,-0.2042,-0.1682,-0.254,-0.2767,-0.2517,-0.1576,-0.3698,-0.5803,-0.6259,-0.889,-1.1149,-1.2063,-1.322,-1.4143,-1.438,-1.4604,-1.4624,-1.4326,-1.4502,-1.4563,-1.4414,-1.4468,-1.4577,-1.4733,-1.5031,-1.5296,-1.5513,-1.5886,-1.6042,-1.5961,-1.5961,-1.5811,-1.552,-1.5289,-1.5065,-1.4841,-1.4618,-1.4509,-1.4509,-1.4434,-1.4319,-1.417,-1.4014,-1.4041,-1.4163,-1.4014,-1.4095,-1.4476,-1.569,-1.6122,-1.6122,0.0,0.0,0.0,0.0,0.0,0.0,0.0,0.0,0.0,0.0,0.0,0.0,0.0,0.0,0.0,0.0,0.0,0.0,0.0,0.0,0.0,0.0,0.0,0.0,-0.8981,0.0,0.0,-0.9612,-0.9612,0.0,0.0,0.0,0.0,0.0,-1.0161,-1.029,-1.0405,-1.0561,-1.0622,0.0,0.0,-1.067,-1.069,0.0,0.0,0.0,0.0,-0.9855,-0.828,-0.8262,-0.5997,-0.2939,-0.1175,-0.033,0.0,0.0,0.0,0.0,0.0,0.0,0.0,0.0,-0.024,-0.099,-0.2884,-0.3246,-0.3341,-0.3732,-0.4669,-0.4975,-0.3548,-0.599,-0.8354,-0.8862,-1.0535,-1.2196,-1.337,-1.3587,-1.3824,-1.4353,-1.4611,-1.4624,-1.4326,-1.4536,-1.4584,-1.4319,-1.4407,-1.455,-1.4726,-1.5106,-1.5343,-1.5411,-1.5784,-1.5927,-1.5811,-1.5805,-1.5642,-1.5316,-1.5079,-1.4855,-1.4638,-1.4407,-1.436,-1.4462,-1.4312,-1.4204,-1.4102,-1.3885,-1.3926,-1.4102,-1.3912,-1.4027,-1.4557,-1.6896,-1.7763,-1.7763,0.0,0.0,0.0,0.0,0.0,0.0,0.0,0.0,0.0,0.0,0.0,0.0,0.0,0.0,0.0,0.0,0.0,0.0,0.0,0.0,0.0,0.0,0.0,0.0,0.0,0.0,0.0,-0.9612,-0.9612,0.0,0.0,0.0,0.0,0.0,0.0,-1.0017,-1.0038,-1.0256,0.0,0.0,0.0,0.0,0.0,0.0,0.0,0.0,0.0,-0.9697,-0.8293,-0.8109,-0.676,-0.4808,-0.3046,-0.1326,0.0,0.0,0.0,0.0,0.0,0.0,0.0,0.0,-0.1179,-0.2772,-0.4685,-0.5003,-0.5357,-0.7169,-0.638,-0.5372,-0.5171,-0.6711,-0.8188,-0.8775,-1.0462,-1.2006,-1.3064,-1.3451,-1.3749,-1.4075,-1.4482,-1.4624,-1.4326,-1.4441,-1.4468,-1.4312,-1.4312,-1.4441,-1.4726,-1.4909,-1.5133,-1.5404,-1.5588,-1.5676,-1.5655,-1.5655,-1.5438,-1.5011,-1.4984,-1.4753,-1.434,-1.4312,-1.4306,-1.4312,-1.4156,-1.4163,-1.4245,-1.3824,-1.3899,-1.4251,-1.3953,-1.4027,-1.4557,-1.6896,-1.7763,-1.7763,0.0,0.0,0.0,0.0,0.0,0.0,0.0,0.0,0.0,0.0,0.0,0.0,0.0,0.0,0.0,0.0,0.0,0.0,0.0,0.0,0.0,0.0,0.0,0.0,0.0,0.0,-0.9395,-0.9612,-0.9693,0.0,0.0,0.0,0.0,0.0,0.0,-0.9984,-0.9997,-1.0215,0.0,0.0,0.0,0.0,0.0,0.0,0.0,0.0,0.0,0.0,-0.9734,-0.9667,-0.7752,-0.5269,-0.453,-0.2304,0.0,0.0,0.0,0.0,0.0,0.0,0.0,0.0,-0.1311,-0.3074,-0.4958,-0.5362,-0.5796,-0.7607,-0.7431,-0.6965,-0.6965,-0.8435,-0.9716,-0.993,-1.0512,-1.1246,-1.2115,-1.2345,-1.2732,-1.3566,-1.3905,-1.4129,-1.4285,-1.4353,-1.436,-1.4306,-1.4299,-1.4428,-1.4726,-1.4889,-1.5065,-1.5269,-1.5513,-1.5594,-1.5499,-1.5411,-1.5228,-1.497,-1.478,-1.4557,-1.4299,-1.4299,-1.4299,-1.4292,-1.4136,-1.4055,-1.4,-1.3736,-1.3783,-1.4014,-1.3885,-1.488,-1.6729,-1.8976,-2.0702,-2.1739,0.0,0.0,0.0,0.0,0.0,0.0,0.0,0.0,0.0,0.0,0.0,0.0,0.0,0.0,0.0,0.0,0.0,0.0,0.0,0.0,0.0,0.0,0.0,0.0,0.0,0.0,-0.9435,-0.9544,-0.9727,-0.9822,0.0,0.0,-0.9822,-0.9829,0.0,0.0,0.0,0.0,0.0,0.0,0.0,0.0,0.0,0.0,0.0,0.0,0.0,0.0,0.0,0.0,0.0,-0.6,-0.5556,-0.3265,-0.0704,-0.0152,0.0,0.0,0.0,0.0,-0.0165,-0.0633,-0.21,-0.3925,-0.5716,-0.6132,-0.6653,-0.8408,-0.8363,-0.8163,-0.8701,-0.9842,-1.0717,-1.0717,-1.0629,-1.0792,-1.1457,-1.1592,-1.1979,-1.2956,-1.3207,-1.3471,-1.3926,-1.4129,-1.4231,-1.4231,-1.4272,-1.4407,-1.4658,-1.4774,-1.4923,-1.5113,-1.5282,-1.5323,-1.5215,-1.5106,-1.4977,-1.4835,-1.4618,-1.4434,-1.4299,-1.4251,-1.4231,-1.4224,-1.4027,-1.3905,-1.3824,-1.3641,-1.3695,-1.3991,-1.4614,-1.6074,-1.8191,-2.1135,-2.3298,-2.4423,0.0,0.0,0.0,0.0,0.0,0.0,0.0,0.0,0.0,0.0,0.0,0.0,0.0,0.0,0.0,0.0,0.0,0.0,0.0,0.0,0.0,0.0,0.0,0.0,0.0,0.0,0.0,-0.9381,-0.968,-0.9822,-0.9822,-0.9822,-0.9822,-0.9822,0.0,0.0,0.0,0.0,0.0,0.0,0.0,0.0,0.0,0.0,0.0,0.0,0.0,0.0,0.0,0.0,0.0,0.0,0.0,-0.416,-0.231,-0.0503,0.0,0.0,0.0,0.0,-0.0467,-0.2247,-0.3889,-0.5566,-0.7542,-0.7897,-0.8296,-1.0287,-0.9238,-0.8568,-1.0319,-1.0717,-1.0717,-1.0717,-1.0717,-1.0873,-1.1328,-1.1525,-1.1789,-1.225,-1.2427,-1.2691,-1.3139,-1.3722,-1.4075,-1.4075,-1.4217,-1.4367,-1.4509,-1.4516,-1.4658,-1.4964,-1.4828,-1.4746,-1.4746,-1.4746,-1.4665,-1.4516,-1.4516,-1.4434,-1.4292,-1.4143,-1.4075,-1.4055,-1.3763,-1.3709,-1.3817,-1.3526,-1.3668,-1.4308,-1.6438,-1.7519,-1.8366,-2.2955,-2.4691,-2.4691,0.0,0.0,0.0,0.0,0.0,0.0,0.0,0.0,0.0,0.0,0.0,0.0,0.0,0.0,0.0,0.0,0.0,0.0,0.0,0.0,0.0,0.0,0.0,0.0,0.0,0.0,0.0,0.0,0.0,-0.9822,-0.9822,-0.9822,-0.9822,-0.9815,-0.972,-0.968,0.0,0.0,0.0,0.0,0.0,0.0,0.0,0.0,0.0,0.0,0.0,0.0,0.0,0.0,0.0,0.0,0.0,0.0,0.0,-0.312,-0.1943,0.0,0.0,-0.0913,-0.1974,-0.2579,-0.4926,-0.6953,-0.6381,-0.6207,-0.6664,-0.8496,-0.7431,-0.7165,-1.018,-1.0717,-1.0717,-1.0717,-1.0717,-1.0772,-1.0914,-1.124,-1.1633,-1.2081,-1.2807,-1.337,-1.3607,-1.3899,-1.4116,-1.4217,-1.4272,-1.436,-1.4502,-1.4421,-1.4502,-1.4801,-1.4767,-1.474,-1.474,-1.4638,-1.4557,-1.4509,-1.4414,-1.4285,-1.4143,-1.4095,-1.4014,-1.3905,-1.3715,-1.3654,-1.3682,-1.3485,-1.4517,-1.6361,-1.7061,-1.9477,-2.2697,-2.4166,-2.5726,-2.6842,0.0,0.0,0.0,0.0,0.0,0.0,0.0,0.0,0.0,0.0,0.0,0.0,0.0,0.0,0.0,0.0,0.0,0.0,0.0,0.0,0.0,0.0,0.0,0.0,0.0,0.0,0.0,0.0,0.0,0.0,0.0,0.0,-0.9795,-0.9741,-0.9646,-0.9867,0.0,0.0,0.0,0.0,0.0,0.0,0.0,0.0,0.0,0.0,0.0,0.0,0.0,0.0,0.0,0.0,0.0,0.0,0.0,0.0,-0.3806,-0.2058,-0.2023,-0.2836,-0.3846,-0.4564,-0.6353,-0.7883,-0.7481,-0.6875,-0.6898,-0.8634,-0.7631,-0.7231,-1.018,-1.0717,-1.0717,-1.0717,-1.0717,-1.0717,-1.0717,-1.1056,-1.145,-1.185,-1.2671,-1.3261,-1.3403,-1.3763,-1.4048,-1.4204,-1.4265,-1.434,-1.4428,-1.4346,-1.4387,-1.457,-1.4577,-1.4577,-1.4577,-1.4482,-1.4434,-1.4428,-1.4285,-1.4163,-1.4068,-1.3899,-1.3797,-1.3749,-1.3492,-1.3444,0.0,-1.4278,-1.5542,-1.7365,-1.9109,-2.1716,-2.4635,-2.5689,-2.6927,-2.7968,0.0,0.0,0.0,0.0,0.0,0.0,0.0,0.0,0.0,0.0,0.0,0.0,0.0,0.0,0.0,0.0,0.0,0.0,0.0,0.0,0.0,0.0,0.0,0.0,0.0,0.0,0.0,0.0,-0.9537,-0.968,-0.9822,0.0,0.0,0.0,-0.9598,-1.031,0.0,0.0,0.0,0.0,0.0,0.0,0.0,0.0,0.0,0.0,0.0,0.0,0.0,0.0,0.0,0.0,0.0,0.0,0.0,0.0,0.0,0.0,0.0,-0.5656,-0.5945,-0.7573,-0.8107,-0.8568,-1.018,-0.9238,0.0,-1.018,-0.9172,-0.8562,-1.0366,-1.0704,-1.0704,-1.069,-1.0697,-1.0704,-1.069,-1.0968,-1.1294,-1.1599,-1.2176,-1.2603,-1.2732,-1.3417,-1.3919,-1.4075,-1.4217,-1.4292,-1.4285,-1.4292,-1.4292,-1.4285,-1.4285,-1.4285,-1.4285,-1.4285,-1.4278,-1.4265,-1.4122,-1.4048,-1.4007,-1.3593,-1.3464,-1.3559,-1.3139,-1.3119,-1.3521,-1.5569,-1.6678,-1.7592,-2.2196,-2.414,-2.4759,-2.7207,-2.8194,-2.8221,0.0,0.0,0.0,0.0,0.0,0.0,0.0,0.0,0.0,0.0,0.0,0.0,0.0,0.0,0.0,0.0,0.0,0.0,0.0,0.0,0.0,0.0,0.0,0.0,0.0,0.0,0.0,-0.9381,-0.9537,-0.968,-0.9822,-0.9822,0.0,0.0,0.0,0.0,0.0,0.0,0.0,0.0,0.0,0.0,0.0,0.0,0.0,0.0,-0.7727,-0.5851,0.0,0.0,0.0,0.0,0.0,0.0,0.0,0.0,-0.8365,0.0,-0.9046,0.0,-0.7464,-0.7871,-0.9056,-0.9842,0.0,-0.8296,-0.8097,-0.8568,-0.8296,-0.8541,-1.0234,-1.0548,-1.0507,-1.0399,-1.0473,-1.0507,-1.0399,-1.0934,-1.145,-1.1748,-1.2508,-1.299,-1.2915,-1.358,-1.4082,-1.4238,-1.4278,-1.4251,-1.4129,-1.4238,-1.4245,-1.4129,-1.4129,-1.4129,-1.4129,-1.4129,-1.4068,-1.3946,-1.3912,-1.3777,-1.3553,-1.3451,-1.3295,-1.3112,-1.301,-1.3003,-1.3233,-1.5465,-1.7557,-1.9672,-2.2527,-2.4989,-2.6908,-2.7357,-2.7832,-2.8194,0.0,0.0,0.0,0.0,0.0,0.0,0.0,0.0,0.0,0.0,0.0,0.0,0.0,0.0,0.0,0.0,0.0,0.0,0.0,0.0,0.0,0.0,0.0,0.0,0.0,0.0,0.0,0.0,0.0,-0.9578,0.0,0.0,0.0,0.0,0.0,0.0,0.0,0.0,0.0,0.0,0.0,0.0,0.0,0.0,0.0,0.0,-0.6464,-0.4321,0.0,-0.1434,-0.1941,-0.2833,0.0,0.0,0.0,0.0,-0.9888,0.0,-1.0346,-0.993,-0.9226,-0.9162,-0.988,-1.0333,-0.9276,-0.9109,-0.9133,-0.9074,-0.9109,-0.9377,-1.0225,-1.0337,-1.029,-1.0283,-1.0283,-1.0358,-1.0561,-1.0989,-1.1477,-1.1979,-1.2589,-1.3024,-1.3152,-1.3648,-1.4,-1.4082,-1.4089,-1.4055,-1.3973,-1.4041,-1.4048,-1.3966,-1.3905,-1.3933,-1.4068,-1.4,-1.3926,-1.3838,-1.3702,-1.3553,-1.3397,-1.3186,-1.3044,-1.2956,-1.2813,-1.3375,-1.4533,-1.6669,-1.9056,-2.1541,-2.3981,-2.5899,-2.7308,-2.7428,-2.7669,-2.7909,0.0,0.0,0.0,0.0,0.0,0.0,0.0,0.0,0.0,0.0,0.0,0.0,0.0,0.0,0.0,0.0,0.0,0.0,0.0,0.0,0.0,0.0,0.0,0.0,0.0,0.0,0.0,0.0,0.0,0.0,0.0,0.0,0.0,0.0,0.0,0.0,0.0,0.0,0.0,0.0,0.0,0.0,0.0,0.0,0.0,0.0,0.0,0.0,0.0,-0.0308,-0.149,-0.3189,-0.4877,0.0,0.0,0.0,0.0,0.0,-1.046,-1.0534,-1.0588,-1.0487,-1.046,-1.0426,-1.031,-1.0371,-1.0426,-1.0304,-1.0378,-1.0412,-1.0243,-1.012,-1.0024,-1.0195,-1.0154,-1.0267,-1.086,-1.1138,-1.1477,-1.2142,-1.2562,-1.2935,-1.3302,-1.3641,-1.3831,-1.381,-1.381,-1.3797,-1.3777,-1.3797,-1.3797,-1.3777,-1.3654,-1.3702,-1.3933,-1.3804,-1.3729,-1.3702,-1.3451,-1.3322,-1.3288,-1.2901,-1.2786,-1.2954,-1.2922,-1.4104,-1.6075,-1.8493,-2.0681,-2.2827,-2.5387,-2.6507,-2.6814,-2.7321,-2.7562,-2.7629,0.0,0.0,0.0,0.0,0.0,0.0,0.0,0.0,0.0,0.0,0.0,0.0,0.0,0.0,0.0,0.0,0.0,0.0,0.0,0.0,0.0,0.0,0.0,0.0,0.0,0.0,0.0,0.0,0.0,0.0,-0.9612,-0.9754,-0.9666,0.0,0.0,0.0,0.0,0.0,0.0,0.0,-1.0377,0.0,0.0,0.0,0.0,0.0,0.0,0.0,0.0,-0.1656,-0.3176,-0.4848,-0.6499,0.0,0.0,0.0,0.0,0.0,-1.031,-1.0236,-1.0118,-1.0283,-1.031,-1.031,-1.0283,-1.0297,-1.0304,-1.0283,-1.0297,-1.0229,-0.9944,-0.9916,-0.995,-0.991,-1.0188,-1.0636,-1.124,-1.1457,-1.164,-1.187,-1.261,-1.3085,-1.303,-1.3519,-1.379,-1.3675,-1.3661,-1.3607,-1.3478,-1.3593,-1.36,-1.3471,-1.3444,-1.3397,-1.3308,-1.3288,-1.3214,-1.3091,-1.3051,-1.2963,-1.2834,-1.2759,-1.2671,-1.2647,-1.4353,-1.5267,-1.5863,-1.9906,-2.1796,-2.2383,-2.5011,-2.6199,-2.6466,-2.656,-2.6907,-2.7295,0.0,0.0,0.0,0.0,0.0,0.0,0.0,0.0,0.0,0.0,0.0,0.0,0.0,0.0,0.0,0.0,0.0,0.0,0.0,0.0,0.0,0.0,0.0,0.0,0.0,0.0,0.0,0.0,0.0,-0.951,-0.972,-0.9625,-0.951,-0.9367,0.0,0.0,0.0,0.0,0.0,0.0,0.0,0.0,0.0,0.0,0.0,0.0,0.0,0.0,0.0,0.0,-0.4019,-0.6248,-0.7015,0.0,0.0,0.0,0.0,0.0,-1.0154,-1.0044,-0.995,-0.9836,-0.9856,-0.9876,-0.9707,-0.9802,-0.9917,-0.9917,-0.9978,-0.9992,-0.9849,-0.9883,-1.0017,-1.0168,-1.0561,-1.0948,-1.1226,-1.1402,-1.1667,-1.2135,-1.263,-1.2969,-1.3064,-1.3397,-1.3512,-1.3281,-1.3268,-1.3234,-1.3166,-1.3227,-1.32,-1.3044,-1.2956,-1.284,-1.2698,-1.2617,-1.2664,-1.2834,-1.2752,-1.2678,-1.261,-1.261,-1.3184,-1.4176,-1.5081,-1.6751,-1.895,-2.0966,-2.2552,-2.3782,-2.5066,-2.5758,-2.6199,-2.6507,-2.7495,-2.8504,0.0,0.0,0.0,0.0,0.0,0.0,0.0,0.0,0.0,0.0,0.0,0.0,0.0,0.0,0.0,0.0,0.0,0.0,0.0,0.0,0.0,0.0,0.0,0.0,0.0,0.0,0.0,-0.8885,-0.9388,-0.968,-0.9815,-0.9557,-0.9415,0.0,0.0,0.0,0.0,0.0,0.0,0.0,0.0,0.0,0.0,0.0,0.0,0.0,0.0,0.0,0.0,0.0,0.0,0.0,0.0,0.0,0.0,-0.9903,-0.9936,-0.9936,-0.9936,-0.9909,-0.9795,-0.9476,-0.9523,-0.9578,-0.933,-0.9469,-0.9713,-0.9713,-0.9829,-0.9903,-0.9836,-0.9883,-1.0098,-1.0493,-1.0894,-1.1199,-1.1307,-1.145,-1.1796,-1.2474,-1.2657,-1.2847,-1.3146,-1.3214,-1.3152,-1.2922,-1.2874,-1.2868,-1.2901,-1.2874,-1.28,-1.2678,-1.2528,-1.2386,-1.2237,-1.2088,-1.2216,-1.2623,-1.2508,-1.2454,-1.2454,-1.2454,-1.3586,-1.5472,-1.592,-1.822,-2.159,-2.2064,-2.3551,-2.5629,-2.5194,-2.5675,-2.6854,-2.7923,-2.9187,-3.0293,0.0,0.0,0.0,0.0,0.0,0.0,0.0,0.0,0.0,0.0,0.0,0.0,0.0,0.0,0.0,0.0,0.0,0.0,0.0,0.0,0.0,0.0,0.0,0.0,0.0,-0.8606,-0.8784,-0.8885,-0.9388,-0.968,-0.9815,-0.9666,-0.9517,-0.9381,0.0,0.0,0.0,0.0,0.0,0.0,0.0,0.0,0.0,0.0,0.0,0.0,0.0,0.0,0.0,0.0,0.0,0.0,0.0,0.0,-0.9822,-0.9836,-0.9836,-0.9836,-0.9836,-0.9741,-0.9598,-0.9422,-0.9598,-0.9727,-0.9435,-0.97,-0.9957,-0.9957,-1.0141,-1.0161,-0.9876,-0.9883,-1.0132,-1.0629,-1.0962,-1.1307,-1.1721,-1.1918,-1.2189,-1.2657,-1.2725,-1.2847,-1.3146,-1.2935,-1.2766,-1.2745,-1.2617,-1.2596,-1.2739,-1.261,-1.2528,-1.2522,-1.2379,-1.223,-1.2155,-1.1925,-1.2006,-1.2325,-1.2311,-1.2305,-1.2305,-1.2305,-1.3422,-1.5428,-1.7281,-1.9415,-2.1727,-2.3366,-2.5316,-2.7187,-2.5313,-2.636,-2.9121,-3.1692,-3.2511,-3.2359,0.0,0.0,0.0,0.0,0.0,0.0,0.0,0.0,0.0,0.0,0.0,0.0,0.0,0.0,0.0,0.0,0.0,0.0,0.0,0.0,0.0,0.0,0.0,-0.8174,-0.832,-0.8791,-0.911,-0.9354,-0.9612,-0.9727,-0.9686,-0.9442,0.0,0.0,0.0,0.0,0.0,0.0,0.0,0.0,0.0,0.0,0.0,0.0,0.0,0.0,0.0,0.0,0.0,0.0,-0.6298,-0.8507,-0.924,-0.9571,-0.9707,-0.9795,-0.9822,-0.9802,-0.9713,-0.9585,-0.9429,-0.9337,-0.9395,-0.9517,-0.9408,-0.9652,-0.9849,-0.9849,-1.0107,-1.027,-1.0243,-1.0365,-1.0489,-1.0752,-1.1192,-1.1504,-1.1674,-1.1904,-1.2189,-1.2549,-1.2589,-1.263,-1.2745,-1.2576,-1.2461,-1.2461,-1.24,-1.2393,-1.2454,-1.2311,-1.2142,-1.1959,-1.1809,-1.166,-1.1504,-1.1443,-1.1572,-1.187,-1.1959,-1.2006,-1.2006,-1.3349,-1.5076,-1.7252,-1.9042,-2.112,-2.3366,-2.4927,-2.6183,-2.7308,-2.842,-2.9486,-3.0655,-3.2195,-3.3441,-3.4169,0.0,0.0,0.0,0.0,0.0,0.0,0.0,0.0,0.0,0.0,0.0,0.0,0.0,0.0,0.0,0.0,0.0,0.0,0.0,0.0,0.0,0.0,0.0,-0.878,-0.894,-0.98,-1.0201,-1.0084,-1.0694,-1.0747,-1.023,0.0,0.0,0.0,0.0,0.0,0.0,0.0,0.0,0.0,0.0,0.0,0.0,0.0,0.0,0.0,0.0,0.0,0.0,0.0,-0.7022,-0.9303,-0.9347,-0.9517,-0.9686,-0.9741,-0.972,-0.9652,-0.9503,-0.9388,-0.9273,-0.9123,-0.9273,-0.9462,-0.951,-0.9788,-1.0059,-1.0154,-1.0304,-1.0446,-1.0548,-1.0575,-1.0643,-1.0779,-1.1212,-1.1511,-1.1606,-1.1877,-1.2155,-1.2406,-1.2433,-1.2433,-1.2433,-1.2257,-1.2162,-1.2216,-1.2169,-1.2149,-1.2149,-1.2006,-1.1809,-1.1552,-1.1396,-1.1267,-1.1234,-1.1234,-1.1538,-1.2313,-1.2466,-1.2598,-1.2773,-1.4188,-1.6351,-1.9041,-2.012,-2.1954,-2.4179,-2.5664,-2.6813,-2.8037,-3.1786,-3.2933,-3.2526,-3.4087,-3.5399,-3.6294,0.0,0.0,0.0,0.0,0.0,0.0,0.0,0.0,0.0,0.0,0.0,0.0,0.0,0.0,0.0,0.0,0.0,0.0,0.0,0.0,0.0,0.0,0.0,-1.0247,-1.0379,-1.1825,-1.2147,-1.1109,-1.287,-1.2956,-1.1478,-1.1478,0.0,0.0,0.0,0.0,0.0,0.0,0.0,0.0,0.0,0.0,0.0,0.0,0.0,0.0,0.0,0.0,0.0,0.0,-0.7873,-0.9381,-0.9381,-0.9585,-0.9788,-0.9652,-0.9503,-0.9347,-0.9255,-0.9207,-0.9173,-0.8981,-0.9273,-0.9646,-0.9795,-1.0168,-1.0575,-1.082,-1.0759,-1.0717,-1.0717,-1.048,-1.0378,-1.067,-1.0968,-1.1267,-1.1572,-1.187,-1.2115,-1.2271,-1.2284,-1.2284,-1.2284,-1.2006,-1.1891,-1.2047,-1.1918,-1.183,-1.183,-1.1694,-1.1545,-1.1389,-1.124,-1.1227,-1.1227,-1.1227,-1.2109,-1.3806,-1.4121,-1.441,-1.4711,-1.4711,-1.6865,-2.0509,-2.0509,-2.174,-2.3883,-2.5415,-2.7289,-2.978,-3.5172,-3.6185,-3.4938,-3.8032,-3.8926,-3.8633,0.0,0.0,0.0,0.0,0.0,0.0,0.0,0.0,0.0,0.0,0.0,0.0,0.0,0.0,0.0,0.0,0.0,0.0,0.0,0.0,0.0,0.0,0.0,0.0,0.0,0.0,-1.3424,-1.2671,-1.324,-1.2805,0.0,0.0,0.0,-0.9282,0.0,0.0,0.0,0.0,0.0,0.0,0.0,0.0,0.0,0.0,0.0,0.0,0.0,0.0,0.0,0.0,0.0,0.0,-0.9347,-0.9442,-0.9523,-0.9591,-0.9503,-0.9347,-0.9255,-0.9001,-0.8906,-0.9184,-0.9273,-0.9462,-1.0141,-1.0317,-1.046,-1.0799,-1.0744,-1.0595,-1.0704,-1.0561,-1.046,-1.0548,-1.0812,-1.1077,-1.1274,-1.1558,-1.1803,-1.1952,-1.1877,-1.1816,-1.1816,-1.164,-1.1538,-1.1586,-1.1742,-1.1742,-1.1531,-1.1484,-1.1341,-1.109,-1.0934,-1.1442,-1.2696,-1.2696,-1.3619,-1.5414,-1.5481,-1.5797,-1.6199,-1.776,-1.9208,-2.0568,-2.1729,-2.2667,-2.3741,-2.7054,-3.0224,-3.3348,-3.6186,-3.6932,-3.6674,-3.8253,-3.8691,-3.8793,0.0,0.0,0.0,0.0,0.0,0.0,0.0,0.0,0.0,0.0,0.0,0.0,0.0,0.0,0.0,0.0,0.0,0.0,0.0,0.0,0.0,0.0,0.0,0.0,0.0,-1.4131,-1.493,0.0,0.0,0.0,0.0,0.0,0.0,-0.9309,0.0,-0.9442,0.0,0.0,0.0,0.0,0.0,0.0,0.0,0.0,0.0,0.0,0.0,0.0,0.0,0.0,0.0,0.0,-0.9401,-0.9429,-0.9388,-0.9415,-0.9279,-0.9069,-0.8914,-0.8716,-0.8682,-0.8954,-0.9178,-0.9523,-1.0243,-1.0568,-1.0799,-1.107,-1.0887,-1.0704,-1.0725,-1.0636,-1.0514,-1.0575,-1.0785,-1.0914,-1.1063,-1.1335,-1.1538,-1.1558,-1.1545,-1.1504,-1.1443,-1.1355,-1.1301,-1.1301,-1.1463,-1.1463,-1.1226,-1.1212,-1.1104,-1.0799,-1.1423,-1.2215,-1.3325,-1.397,-1.5267,-1.7043,-1.7194,-1.7785,-1.8754,-1.9529,-2.0467,-2.1545,-2.3174,-2.4431,-2.552,-2.8806,-3.2397,-3.5831,-3.728,-3.8458,-3.9426,-3.9914,-4.0418,-4.09,0.0,0.0,0.0,0.0,0.0,0.0,0.0,0.0,0.0,0.0,0.0,0.0,0.0,0.0,0.0,0.0,0.0,0.0,0.0,0.0,0.0,0.0,0.0,0.0,0.0,0.0,0.0,0.0,0.0,0.0,0.0,0.0,-1.2166,-0.9395,0.0,-0.9646,0.0,0.0,0.0,0.0,0.0,0.0,0.0,0.0,0.0,0.0,0.0,0.0,0.0,0.0,0.0,0.0,-0.9483,-0.9483,-0.9354,-0.9255,-0.894,-0.8655,-0.8384,-0.8391,-0.8492,-0.8554,-0.9144,-0.9822,-1.0243,-1.0867,-1.1348,-1.1335,-1.1124,-1.088,-1.088,-1.0711,-1.0561,-1.0697,-1.0766,-1.0867,-1.088,-1.1179,-1.1307,-1.1179,-1.1274,-1.1294,-1.1158,-1.1145,-1.1138,-1.1193,-1.1145,-1.109,-1.0867,-1.0873,-1.088,-1.0923,-1.2479,-1.3456,-1.3774,-1.5329,-1.7012,-1.8768,-1.9071,-2.0061,-2.1577,-2.0367,-2.0953,-2.2956,-2.468,-2.6475,-2.8394,-3.05,-3.3746,-3.7403,-3.8241,-4.0188,-4.2504,-4.2527,-4.313,-4.3982,0.0,0.0,0.0,0.0,0.0,0.0,0.0,0.0,0.0,0.0,0.0,0.0,0.0,0.0,0.0,0.0,0.0,0.0,0.0,0.0,0.0,0.0,0.0,0.0,0.0,0.0,0.0,0.0,0.0,0.0,0.0,0.0,0.0,-0.9388,0.0,-0.9551,0.0,0.0,0.0,0.0,0.0,0.0,0.0,0.0,0.0,0.0,0.0,0.0,0.0,0.0,0.0,0.0,-0.9323,-0.9313,-0.9354,-0.9255,-0.894,-0.8696,-0.8635,-0.8554,-0.8594,-0.9069,-0.9842,-1.0541,-1.0691,-1.086,-1.1009,-1.0887,-1.0907,-1.088,-1.088,-1.0799,-1.0683,-1.0717,-1.0751,-1.0812,-1.086,-1.0934,-1.107,-1.1151,-1.109,-1.1029,-1.0995,-1.0927,-1.0941,-1.0826,-1.1029,-1.105,-1.0785,-1.0813,-1.1471,-1.2676,-1.3128,-1.4623,-1.7345,-1.7731,-1.8832,-2.0526,-2.0591,-2.1003,-2.1628,-2.1516,-2.1831,-2.2579,-2.4413,-2.6339,-2.8394,-3.05,-3.3746,-3.7403,-3.8241,-3.9972,-4.2079,-4.2862,-4.3287,-4.3759,0.0,0.0,0.0,0.0,0.0,0.0,0.0,0.0,0.0,0.0,0.0,0.0,0.0,0.0,0.0,0.0,0.0,0.0,0.0,0.0,0.0,0.0,0.0,0.0,0.0,0.0,0.0,0.0,0.0,0.0,0.0,0.0,0.0,-1.0296,0.0,-0.9415,0.0,0.0,0.0,0.0,0.0,0.0,0.0,0.0,0.0,0.0,0.0,0.0,0.0,0.0,0.0,0.0,0.0,0.0,-0.9316,-0.9234,-0.894,-0.8676,-0.854,-0.8547,-0.875,-0.9422,-1.0053,-1.0568,-1.0785,-1.0772,-1.0799,-1.0643,-1.0731,-1.0772,-1.0772,-1.0772,-1.0717,-1.0717,-1.0717,-1.0751,-1.0759,-1.0778,-1.0785,-1.0934,-1.0819,-1.0758,-1.0833,-1.0772,-1.0806,-1.0724,-1.0867,-1.1284,-1.1901,-1.1976,-1.2839,-1.4493,-1.5329,-1.6689,-1.85,-1.9355,-2.0195,-2.1109,-2.1109,-2.1619,-2.2546,-2.2168,-2.2602,-2.3795,-2.555,-2.7491,-2.9687,-3.2388,-3.5513,-3.8666,-3.9885,-4.2161,-4.4768,-4.5012,-4.577,-4.6846,0.0,0.0,0.0,0.0,0.0,0.0,0.0,0.0,0.0,0.0,0.0,0.0,0.0,0.0,0.0,0.0,0.0,0.0,0.0,0.0,0.0,0.0,0.0,0.0,0.0,0.0,0.0,0.0,0.0,0.0,0.0,0.0,0.0,-1.1604,0.0,0.0,0.0,0.0,0.0,0.0,0.0,0.0,0.0,0.0,0.0,0.0,0.0,0.0,0.0,0.0,0.0,0.0,0.0,0.0,-0.9207,-0.918,-0.892,-0.8655,-0.8411,-0.8581,-0.8974,-0.9591,-1.0019,-1.0344,-1.0588,-1.0643,-1.0609,-1.048,-1.0575,-1.067,-1.0649,-1.0663,-1.0683,-1.0683,-1.0683,-1.0683,-1.0683,-1.0555,-1.05,-1.0629,-1.0534,-1.0507,-1.0629,-1.0643,-1.0656,-1.0677,-1.0941,-1.1732,-1.3193,-1.3578,-1.4558,-1.6302,-1.7731,-1.864,-1.896,-2.0386,-2.1109,-2.1109,-2.1109,-2.1978,-2.3589,-2.2686,-2.3434,-2.5524,-2.7567,-2.9474,-3.1441,-3.4841,-3.7811,-4.0418,-4.1801,-4.4707,-4.814,-4.7911,-4.9214,-5.1036,0.0,0.0,0.0,0.0,0.0,0.0,0.0,0.0,0.0,0.0,0.0,0.0,0.0,0.0,0.0,0.0,0.0,0.0,0.0,0.0,0.0,0.0,0.0,0.0,0.0,0.0,0.0,0.0,0.0,0.0,0.0,0.0,0.0,-1.3164,0.0,0.0,0.0,0.0,0.0,0.0,0.0,0.0,0.0,0.0,0.0,0.0,0.0,0.0,0.0,-0.7129,-0.715,0.0,0.0,0.0,-0.9187,-0.9001,-0.8845,-0.8703,-0.8662,-0.8967,-0.9313,-0.9415,-0.9863,-1.029,-1.0331,-1.0337,-1.0331,-1.031,-1.0426,-1.0487,-1.0365,-1.0439,-1.0521,-1.0521,-1.0521,-1.0521,-1.0521,-1.0399,-1.0317,-1.0337,-1.0324,-1.0317,-1.0337,-1.0337,-1.0392,-1.0514,-1.1926,-1.2953,-1.3251,-1.4744,-1.6366,-1.8116,-1.8372,-1.9215,-2.0716,-2.0982,-2.1109,-2.1109,-2.1109,-2.1978,-2.3574,-2.3476,-2.4653,-2.7029,-3.0137,-3.2031,-3.314,-3.6474,-3.9528,-4.2005,-4.2245,-4.5156,-4.9377,-5.0356,-5.2111,-5.397,0.0,0.0,0.0,0.0,0.0,0.0,0.0,0.0,0.0,0.0,0.0,0.0,0.0,0.0,0.0,0.0,0.0,0.0,0.0,0.0,0.0,0.0,0.0,0.0,0.0,0.0,0.0,0.0,0.0,0.0,0.0,-1.3631,-1.3189,0.0,0.0,0.0,0.0,0.0,0.0,0.0,0.0,0.0,0.0,0.0,0.0,0.0,0.0,0.0,-0.7122,-0.7938,-0.7618,-0.7033,-0.7914,0.0,0.0,0.0,-0.9555,-1.0155,-1.0802,-1.0582,-1.0174,-1.0398,-1.0754,-1.0873,-1.0412,-1.0283,-1.0256,-1.0168,-1.0202,-1.0249,-1.0276,-1.0331,-1.0371,-1.0371,-1.0371,-1.0371,-1.0371,-1.0243,-1.0181,-1.027,-1.0202,-1.0181,-1.027,-1.0283,-1.0778,-1.188,-1.266,-1.4015,-1.6097,-1.6947,-1.818,-1.9877,-1.9941,-2.0322,-2.1109,-2.1109,-2.1538,-2.2529,-2.2529,-2.4255,-2.7526,-2.7526,-2.8371,-3.0002,-3.145,-3.3579,-3.6231,-3.8911,-4.1591,-4.419,-4.5448,-4.8486,-5.2348,-5.2892,-5.4353,-5.6016,0.0,0.0,0.0,0.0,0.0,0.0,0.0,0.0,0.0,0.0,0.0,0.0,0.0,0.0,0.0,0.0,0.0,0.0,0.0,0.0,0.0,0.0,0.0,0.0,0.0,0.0,0.0,0.0,0.0,0.0,-1.1996,-1.1326,-1.0598,0.0,-0.923,-0.8613,0.0,0.0,0.0,0.0,0.0,0.0,0.0,0.0,0.0,0.0,0.0,-0.8393,-0.7185,-0.8378,-0.7892,-0.7064,-0.8304,-0.89,0.0,0.0,0.0,-1.1322,-1.2447,-1.2081,-1.1431,-1.1642,-1.1845,-1.1787,-1.076,-1.0479,-1.0396,-0.9958,-0.9815,-0.9917,-1.0032,-1.0148,-1.0222,-1.0222,-1.0188,-1.0161,-1.0161,-0.9998,-0.9924,-1.0039,-1.0251,-1.0483,-1.0703,-1.1091,-1.1916,-1.3446,-1.4015,-1.5526,-1.8267,-1.9169,-2.0067,-2.1002,-2.1366,-2.1513,-2.1493,-2.1936,-2.2759,-2.404,-2.4531,-2.6756,-3.0469,-3.097,-3.2125,-3.3883,-3.3883,-3.5731,-3.9017,-4.1321,-4.3771,-4.627,-4.8228,-5.1413,-5.4928,-5.5236,-5.6567,-5.8156,0.0,0.0,0.0,0.0,0.0,0.0,0.0,0.0,0.0,0.0,0.0,0.0,0.0,0.0,0.0,0.0,0.0,0.0,0.0,0.0,0.0,0.0,0.0,0.0,0.0,0.0,0.0,0.0,0.0,0.0,-1.0281,-0.7813,-0.6685,-0.6812,-0.8272,-0.8071,-0.6647,0.0,0.0,0.0,0.0,0.0,0.0,0.0,-0.4584,-0.5046,-0.8094,-0.817,-0.6735,-0.6951,-0.6909,-0.671,-0.6826,-0.7776,-0.8892,0.0,0.0,0.0,-1.2314,-1.2976,-1.3257,-1.2816,-1.298,-1.286,-1.1391,-1.1061,-1.077,-0.9671,-0.9415,-0.9415,-0.9429,-0.9774,-0.9997,-0.9997,-0.9937,-0.9842,-0.9842,-0.9598,-0.9415,-0.9429,-1.062,-1.1537,-1.1896,-1.3196,-1.4193,-1.4679,-1.6569,-1.7804,-1.8074,-2.0999,-2.2072,-2.0757,-2.2086,-2.2704,-2.2438,-2.4162,-2.5098,-2.5234,-2.7078,-2.8674,-3.0076,-3.1851,-3.4899,-3.8721,-3.8721,-3.9368,-4.0707,-4.3636,-4.5967,-4.7834,-4.9282,-5.2291,-5.5987,-5.7225,-5.9039,-6.0832,0.0,0.0,0.0,0.0,0.0,0.0,0.0,0.0,0.0,0.0,0.0,0.0,0.0,0.0,0.0,0.0,0.0,0.0,0.0,0.0,0.0,0.0,0.0,0.0,0.0,0.0,0.0,0.0,0.0,-1.0095,-0.8918,-0.7164,-0.5836,-0.5038,-0.5781,-0.5704,-0.5022,-0.4658,-0.3898,-0.2839,-0.2398,-0.2677,0.0,-0.4185,-0.5588,-0.72,-0.8429,-0.8005,-0.6965,-0.7897,-0.8227,-0.8407,-0.937,-1.0634,-1.1892,-1.2612,-1.2423,-1.2561,-1.537,-1.5164,-1.4316,-1.504,-1.4774,-1.3944,-1.2755,-1.2488,-1.2432,-1.2236,-1.2321,-1.2467,-1.2467,-1.0914,-0.9618,-0.9618,-0.9578,-0.9571,-0.9673,-0.951,-0.9764,-1.0844,-1.1273,-1.2006,-1.3306,-1.3907,-1.4848,-1.6342,-1.8057,-1.9554,-2.0854,-2.2916,-2.381,-2.3275,-2.4014,-2.4806,-2.5671,-2.6616,-2.7962,-2.9619,-3.0655,-3.2881,-3.6038,-3.6703,-3.9022,-4.2469,-4.2888,-4.3203,-4.3526,-4.4955,-4.7541,-5.0694,-5.1994,-5.5211,-5.932,-6.0705,-6.2564,-6.4371,0.0,0.0,0.0,0.0,0.0,0.0,0.0,0.0,0.0,0.0,0.0,0.0,0.0,0.0,0.0,0.0,0.0,0.0,0.0,0.0,0.0,0.0,0.0,0.0,0.0,0.0,0.0,0.0,0.0,0.0,0.0,-0.6379,-0.5037,-0.4106,-0.3309,-0.2923,0.0,-0.2951,-0.2363,-0.1329,-0.1428,-0.1917,-0.2808,-0.4051,-0.5612,-0.7296,-0.8365,-0.8536,-0.8295,-0.9208,-0.9843,-1.0413,-1.1481,-1.2398,-1.3412,-1.4899,-1.464,-1.4683,-1.8047,-1.7972,-1.713,-1.7958,-1.7201,-1.5979,-1.468,-1.4116,-1.3819,-1.3603,-1.3815,-1.4053,-1.4124,-1.2427,-1.0805,-1.0178,-0.9722,-0.9415,-0.9517,-0.9801,-1.0421,-1.1504,-1.2314,-1.337,-1.4802,-1.5784,-1.708,-1.8698,-2.0272,-2.1803,-2.3209,-2.4678,-2.5707,-2.6191,-2.6654,-2.7466,-2.8653,-2.9822,-3.1361,-3.3287,-3.4674,-3.6887,-3.98,-4.0508,-4.2179,-4.467,-4.5539,-4.5696,-4.5473,-4.654,-4.9238,-5.2887,-5.4385,-5.7588,-6.149,-6.317,-6.4614,-6.5866,0.0,0.0,0.0,0.0,0.0,0.0,0.0,0.0,0.0,0.0,0.0,0.0,0.0,0.0,0.0,0.0,0.0,0.0,0.0,0.0,0.0,0.0,0.0,0.0,0.0,0.0,0.0,0.0,0.0,0.0,0.0,0.0,-0.4075,-0.3924,-0.1318,-0.0106,-0.0052,0.0,0.0,0.0,-0.0052,-0.0107,-0.0446,-0.3444,-0.4608,-0.502,-0.7919,-0.9697,-1.0732,-1.0777,-1.1545,-1.2555,-1.287,-1.2973,-1.3393,-1.543,-1.6553,-1.7613,0.0,0.0,0.0,-2.1346,-2.0271,-1.8793,-1.71,-1.5858,-1.4803,-1.3665,-1.3676,-1.3957,-1.4174,-1.4215,-1.3648,-1.1937,-1.0409,-0.9497,-0.9504,-1.0542,-1.1316,-1.1427,-1.3832,-1.5719,-1.6351,-1.9043,-2.1033,-2.1583,-2.3342,-2.4556,-2.4961,-2.6478,-2.7939,-2.9336,-2.9949,-3.0673,-3.1398,-3.3714,-3.5196,-3.5997,-3.8979,-4.0552,-4.0867,-4.2766,-4.4283,-4.549,-4.6671,-4.6851,-4.649,-4.8509,-5.119,-5.4206,-5.6365,-5.9144,-6.2236,-6.4365,-6.5183,-6.5425,0.0,0.0,0.0,0.0,0.0,0.0,0.0,0.0,0.0,0.0,0.0,0.0,0.0,0.0,0.0,0.0,0.0,0.0,0.0,0.0,0.0,0.0,0.0,0.0,0.0,0.0,0.0,0.0,0.0,0.0,0.0,0.0,0.0,0.0,-0.3666,-0.2343,-0.1373,-0.0421,0.0,-0.0107,-0.1341,-0.2277,-0.3288,-0.5314,-0.6631,-0.7636,-0.9542,-1.0445,-1.0982,-1.2933,-1.3961,-1.4756,-1.6665,-1.7181,-1.7363,-1.8847,-1.9507,-2.0087,-2.1609,0.0,0.0,0.0,0.0,0.0,-1.9044,-1.8531,-1.808,-1.7232,-1.7272,-1.7485,-1.756,-1.6696,-1.5773,-1.5074,-1.2794,-1.1199,-1.1261,-1.1289,-1.2143,-1.4484,-1.6037,-1.749,-1.8912,-2.0933,-2.2339,-2.275,-2.5411,-2.7116,-2.7174,-3.0381,-3.2645,-3.37,-3.4384,-3.526,-3.6476,-3.8003,-3.9641,-4.1437,-4.2229,-4.3393,-4.4846,-4.5602,-4.6948,-4.8692,-5.0283,-5.1491,-5.2379,-5.2948,-5.4591,-5.6937,-5.9076,-6.1326,-6.3596,-6.5755,-6.7588,-6.9288,0.0,0.0,0.0,0.0,0.0,0.0,0.0,0.0,0.0,0.0,0.0,0.0,0.0,0.0,0.0,0.0,0.0,0.0,0.0,0.0,0.0,0.0,-1.0583,-0.9944,0.0,0.0,0.0,0.0,0.0,0.0,0.0,0.0,0.0,0.0,0.0,0.0,-0.2771,-0.2042,-0.1065,-0.016,-0.1734,-0.2749,-0.3667,-0.6603,-0.8138,-0.9015,-1.0887,-1.2096,-1.3026,-1.4609,-1.615,-1.7701,-1.9003,-1.9613,-1.9987,-2.11,-2.1752,0.0,0.0,0.0,-2.3489,-2.398,0.0,0.0,-2.1328,-2.0342,-1.9516,-1.92,-1.881,-1.8582,-1.8821,-1.812,-1.7202,-1.6476,-1.4788,-1.3412,-1.2894,-1.2965,-1.3985,-1.6217,-1.7437,-1.8786,-2.0493,-2.2638,-2.4067,-2.4562,-2.7682,-2.9931,-3.0794,-3.4462,-3.6578,-3.6748,-3.788,-3.8692,-3.9087,-4.0522,-4.2433,-4.4723,-4.5109,-4.6403,-4.852,-4.8385,-4.9336,-5.1096,-5.2885,-5.4655,-5.6416,-5.7806,-5.8615,-5.9199,-6.1061,-6.3143,-6.5377,-6.7709,-6.9654,-7.1324,0.0,0.0,0.0,0.0,0.0,0.0,0.0,0.0,0.0,0.0,-1.5257,-1.5551,-1.5758,0.0,0.0,0.0,0.0,0.0,0.0,0.0,0.0,0.0,-0.8874,-0.8137,-0.7988,-0.8325,0.0,0.0,0.0,0.0,0.0,-0.698,-0.6376,0.0,0.0,0.0,-0.4475,-0.459,-0.3178,-0.1009,-0.239,-0.2955,-0.3423,-0.7887,-0.9545,-0.9801,-1.2212,-1.4221,-1.5767,-1.6073,-1.8155,-2.0643,-2.0439,-2.0791,-2.1487,-2.2613,-2.348,0.0,0.0,0.0,0.0,-2.5927,-2.4956,0.0,-2.3595,-2.1812,-2.03,-2.0476,-1.951,-1.8824,-1.9372,-1.9137,-1.8526,-1.7489,-1.6883,-1.6018,-1.4385,-1.511,-1.6186,-1.7134,-1.8476,-2.0,-2.1645,-2.4159,-2.6112,-2.7013,-3.0226,-3.3141,-3.5381,-3.845,-3.9853,-3.9159,-4.0801,-4.1381,-4.0604,-4.2434,-4.4549,-4.6932,-4.7864,-4.9473,-5.1595,-5.1,-5.1488,-5.2917,-5.476,-5.6906,-5.9297,-6.2461,-6.277,-6.1375,-6.2875,-6.4981,-6.752,-6.9842,-7.13,-7.228,0.0,0.0,0.0,0.0,0.0,0.0,0.0,0.0,0.0,0.0,-1.5565,-1.5718,-1.5771,0.0,0.0,0.0,0.0,0.0,0.0,0.0,-1.2183,-1.0092,-0.9756,-0.9114,-0.8038,-0.9103,-0.964,-0.9608,-1.0668,-1.0668,-0.9608,-0.9353,-0.8669,-0.7584,0.0,-0.7217,-0.7211,-0.7467,-0.709,-0.6446,-0.7362,-0.7741,-0.812,-1.1415,-1.2429,-1.2291,-1.3972,-1.5107,-1.62,-1.8341,-2.0025,-2.1263,-2.1784,-2.1901,-2.2283,-2.4459,-2.5198,-2.5566,-2.6415,-2.6758,-2.6875,-2.6797,-2.6555,0.0,-2.5206,-2.4615,-2.4029,-2.3206,-2.2846,-2.2728,-2.2799,-2.1831,-2.1308,-2.224,-2.0862,-1.8727,-1.6074,-1.6296,-1.72,-1.844,-2.0459,-2.2238,-2.3486,-2.5744,-2.7981,-2.9852,-3.3765,-3.7407,-4.0416,-4.1338,-4.2156,-4.2968,-4.3867,-4.4543,-4.496,-4.7007,-4.9158,-5.1254,-5.1518,-5.1877,-5.2333,-5.2438,-5.3344,-5.4832,-5.6612,-5.9342,-6.2676,-6.4498,-6.5031,-6.4866,-6.6347,-6.8114,-6.9992,-7.1094,-7.2583,-7.4259,0.0,0.0,0.0,0.0,0.0,0.0,0.0,0.0,0.0,-1.4709,-1.4766,-1.4854,-1.4854,-1.4854,-1.4854,0.0,0.0,0.0,0.0,-1.3884,-1.3343,-1.1989,-1.1307,-1.0632,-0.9944,-1.0583,-1.0974,-1.0974,-1.1609,-1.156,-1.0974,-1.0974,-1.0803,-1.0548,-1.0282,-1.0399,-1.0782,-1.0741,-1.0731,-1.0763,-1.0233,-0.9959,-1.0163,-1.3136,-1.4093,-1.4104,-1.5897,-1.7412,-1.8816,-2.0486,-2.1828,-2.2957,-2.3647,-2.429,-2.5152,-2.6993,-2.7387,-2.7369,-2.7864,-2.766,-2.7285,-2.707,-2.75,0.0,0.0,-2.6672,-2.6091,-2.5684,-2.441,-2.3331,-2.3293,-2.2548,-2.2349,-2.3642,-2.2597,-2.1377,-2.0768,-1.9692,-1.9556,-2.1002,-2.2211,-2.3602,-2.5422,-2.7655,-3.039,-3.3834,-3.6893,-3.9808,-4.25,-4.3741,-4.4761,-4.5696,-4.6465,-4.7017,-4.7269,-4.8679,-5.0548,-5.2861,-5.2823,-5.3444,-5.4628,-5.4416,-5.5171,-5.6679,-5.8305,-6.0926,-6.4174,-6.5628,-6.718,-6.8741,-6.9118,-7.003,-7.1295,-7.2698,-7.4083,-7.5487,0.0,0.0,0.0,0.0,0.0,0.0,0.0,0.0,0.0,-1.4005,-1.3837,-1.3802,-1.3802,-1.4918,-1.5685,-1.5738,0.0,0.0,-1.5771,-1.4804,-1.4088,-1.3802,-1.2839,-1.2114,-1.1831,-1.2114,-1.228,-1.228,-1.2533,-1.2533,-1.228,-1.228,-1.2523,-1.2978,-1.2775,-1.3253,-1.4232,-1.4117,-1.4436,-1.4804,-1.3464,-1.2452,-1.2033,-1.4815,-1.5799,-1.6035,-1.8022,-1.9836,-2.1446,-2.2333,-2.342,-2.4579,-2.5619,-2.6651,-2.7798,-2.9407,-2.9298,-2.876,-2.9132,-2.8809,-2.8284,-2.7875,-2.8807,-2.9864,0.0,0.0,0.0,-2.8066,-2.5869,-2.3962,-2.4157,-2.3738,-2.3928,-2.5409,-2.4798,-2.4727,-2.6437,-2.463,-2.3373,-2.4197,-2.4422,-2.5444,-2.7801,-3.0288,-3.3295,-3.7057,-3.9445,-4.1524,-4.3412,-4.5308,-4.675,-4.7607,-4.8361,-4.8891,-4.9194,-5.0007,-5.1658,-5.4148,-5.4177,-5.527,-5.7294,-5.685,-5.7431,-5.8936,-6.0403,-6.2761,-6.5699,-6.7202,-6.9439,-7.1867,-7.1116,-7.1484,-7.27,-7.4295,-7.559,-7.681,-1.3146,-1.3654,0.0,0.0,0.0,0.0,0.0,0.0,0.0,-1.4028,-1.3625,-1.3438,-1.3438,-1.4414,-1.5209,-1.5418,-1.5204,-1.5284,-1.5744,-1.5438,-1.4676,-1.3532,-1.3612,-1.2991,-1.1589,-1.2944,-1.368,-1.368,-1.4806,-1.4758,-1.368,-1.368,-1.3251,-1.2529,-1.3303,-1.4655,-1.6486,-1.7527,-1.851,-1.9383,-1.9738,-1.8257,-1.6022,-1.8141,-1.8723,-1.8764,-2.0361,-2.1087,-2.1607,-2.3507,-2.4275,-2.4841,-2.7315,-2.7542,-2.7564,-3.0563,-2.9911,-2.8558,-2.9824,-3.0444,-3.0673,-3.0631,-3.1711,-3.2855,-3.3309,0.0,-3.0057,-3.0569,0.0,-2.8052,-2.9204,0.0,0.0,-3.1547,-3.0536,-2.9913,-3.1569,-3.1156,-2.9857,-2.762,-2.812,-2.9347,-3.1189,-3.4489,-3.6665,-3.7005,-4.0704,-4.335,-4.4228,-4.522,-4.6743,-4.8738,-4.8933,-4.9916,-5.192,-5.3335,-5.5192,-5.7565,-5.8167,-5.8686,-5.9051,-5.9651,-6.0811,-6.2329,-6.3882,-6.6283,-6.9244,-7.0795,-7.1995,-7.2841,-7.1912,-7.3118,-7.5366,-7.561,-7.7134,-7.9122,-1.4204,-1.3979,0.0,0.0,0.0,0.0,0.0,0.0,0.0,-1.168,-1.149,-1.1414,-1.1414,-1.2479,-1.3497,-1.4161,-1.4142,-1.4503,-1.5518,-1.5471,0.0,-1.482,-1.4934,-1.4696,-1.4004,-1.4649,-1.4997,-1.4997,-1.5534,-1.5534,-1.4997,-1.4997,-1.5143,-1.5364,-1.6027,-1.7136,-1.8583,-1.9836,-2.075,-2.1312,-2.2264,-2.1966,-2.0848,-1.9996,-1.9958,-2.0436,-2.1076,-2.1765,-2.2612,-2.446,-2.5476,-2.636,-2.8544,-2.9738,-3.072,-3.2461,-3.216,-3.1547,-3.2773,-3.2485,-3.1957,-3.2608,-3.4129,-3.562,-3.6126,-3.5434,-3.4772,-3.5007,0.0,0.0,0.0,0.0,0.0,0.0,-3.4525,-3.4731,-3.6429,-3.6533,-3.5041,-3.1255,-3.147,-3.2749,-3.4754,-3.7116,-3.878,-3.9405,-4.2545,-4.5039,-4.6374,-4.7181,-4.8855,-5.1527,-5.1596,-5.2472,-5.4279,-5.5367,-5.667,-5.8096,-5.8874,-5.9754,-6.0671,-6.099,-6.223,-6.4176,-6.5278,-6.7264,-6.9814,-7.1372,-7.2797,-7.3975,-7.4044,-7.4762,-7.5923,-7.6893,-7.7891,-7.904,-1.5845,0.0,0.0,0.0,0.0,0.0,0.0,-1.254,-1.1038,-0.9966,-0.9518,-0.947,-0.982,-1.0633,-1.1697,-1.3263,-1.3263,-1.3805,-1.5285,-1.5324,-1.5378,-1.5578,-1.5818,-1.5872,-1.5712,-1.5872,-1.5912,-1.5784,-1.5784,-1.5784,-1.5832,-1.615,-1.6791,-1.771,-1.8706,-1.962,-2.0523,-2.1847,-2.2641,-2.3097,-2.4073,-2.4801,-2.4944,-2.2102,-2.1423,-2.1976,-2.1976,-2.2853,-2.4219,-2.5636,-2.6849,-2.8134,-3.0545,-3.2034,-3.3094,-3.4463,-3.4188,-3.3695,-3.4481,-3.4023,-3.3526,-3.4337,-3.6352,-3.8335,-3.9113,-3.9103,-3.8986,-3.9396,-3.7561,0.0,0.0,0.0,-3.6709,-3.7781,0.0,-3.9266,-4.065,-4.0724,-3.9358,-3.5948,-3.5911,-3.6773,-3.8378,-3.9711,-4.0795,-4.1686,-4.4175,-4.6294,-4.7792,-4.8775,-5.0682,-5.3736,-5.3808,-5.4624,-5.6352,-5.6949,-5.7739,-5.8729,-5.9759,-6.0977,-6.2302,-6.2761,-6.4122,-6.6164,-6.6921,-6.8603,-7.0897,-7.2257,-7.3807,-7.5389,-7.619,-7.6574,-7.6882,-7.7905,-7.8835,-7.9816,-1.8029,-1.7746,0.0,-1.5861,-1.5655,-1.5064,-1.333,-1.196,-1.0828,-1.0089,-0.859,-0.8055,-0.9388,-0.9286,-1.025,-1.3135,-1.2948,-1.3416,-1.5259,-1.5182,-1.5022,-1.5035,-1.5805,-1.5992,-1.5418,-1.5965,-1.6112,-1.5784,-1.5784,-1.5784,-1.5832,-1.7044,-1.7802,-1.8195,-2.0759,-2.2039,-2.2398,-2.3719,-2.47,-2.5363,-2.5957,-2.6906,-2.77,-2.4851,-2.377,-2.3725,-2.3725,-2.4816,-2.6322,-2.7247,-2.8312,-3.0011,-3.3879,-3.4032,-3.3282,-3.6315,-3.5424,-3.3529,-3.3553,-3.4695,-3.5911,-3.5935,-3.8316,-4.1085,-4.2582,-4.2085,-4.1691,-4.3185,-4.2005,-4.0574,-4.0249,-4.0958,-4.1616,-4.1793,-4.2643,0.0,0.0,-4.3454,-4.2803,-4.235,-4.1996,-4.1849,-4.1939,-4.2613,-4.3072,-4.3048,-4.5217,-4.6896,-4.7672,-4.9236,-5.1477,-5.456,-5.4605,-5.5686,-5.8005,-5.8067,-5.8812,-6.0347,-6.1923,-6.317,-6.4075,-6.5653,-6.7203,-6.8816,-6.965,-7.1338,-7.3648,-7.4462,-7.5695,-7.7101,-7.792,-7.8576,-7.9034,-7.851,-8.0112,-8.2584,0.0,0.0,0.0,-1.8112,-1.6683,-1.4783,-1.1993,-1.0704,-0.9714,-0.8795,-0.8321,-0.8234,-0.8794,-0.8657,-0.9559,-1.2069,-1.2015,-1.2882,-1.5239,-1.5484,-1.5538,-1.5538,-1.6192,-1.5882,-1.4432,-1.5673,-1.5725,-1.4555,-1.5391,-1.6244,-1.7077,-1.821,-1.9366,-2.0471,-2.2281,-2.3487,-2.4317,-2.5849,-2.689,-2.7679,-2.9692,-3.0793,-3.0984,-2.7877,-2.6668,-2.6691,-2.7038,-2.7545,-2.8277,-3.0057,-3.1182,-3.2202,-3.4272,-3.5027,-3.5329,-3.6356,-3.6282,-3.612,-3.7273,-3.7734,-3.8306,-3.9907,-4.1984,-4.4124,-4.5964,-4.6618,-4.7119,-4.8092,-4.7177,-4.5909,-4.5256,-4.5372,-4.5559,-4.5454,-4.6253,-4.7104,0.0,-4.7723,-4.7265,-4.635,-4.4615,-4.4153,-4.5901,-4.6292,-4.6507,-4.6583,-4.9127,-5.0713,-5.0726,-5.2732,-5.4818,-5.689,-5.7758,-5.8519,-5.93,-6.0704,-6.167,-6.2208,-6.3855,-6.5389,-6.6796,-6.7919,-6.9282,-7.0868,-7.1678,-7.31,-7.4971,-7.577,-7.6742,-7.7786,-7.8589,-7.9267,-7.9785,-7.9556,-8.0507,-8.2129,-2.0762,-2.1035,-2.0811,-1.9633,-1.7183,-1.4402,-1.1493,-1.0227,-0.9258,-0.8249,-0.784,-0.7839,-0.8352,-0.8309,-0.9183,-1.157,-1.2014,-1.3145,-1.5398,-1.5631,-1.5725,-1.5784,-1.6299,-1.5921,-1.4615,-1.5817,-1.583,-1.4555,-1.596,-1.7369,-1.8803,-2.0358,-2.1857,-2.3286,-2.4939,-2.5656,-2.5723,-2.7334,-2.8522,-2.9569,-3.271,-3.4168,-3.4282,-3.2439,-3.0676,-2.9218,-2.9376,-3.0098,-3.1137,-3.2572,-3.3722,-3.4787,-3.6096,-3.6717,-3.7056,-3.7439,-3.779,-3.829,-3.9196,-3.9467,-3.9984,-4.1909,-4.3903,-4.6009,-4.8261,-4.9839,-5.1154,-5.2458,-5.1931,-5.0894,-4.975,-4.9556,-4.9289,0.0,0.0,-4.9498,0.0,-5.0275,-5.0308,-4.8962,-4.7155,-4.685,-4.8878,-4.9407,-4.9751,-5.0137,-5.2042,-5.3471,-5.3977,-5.5573,-5.7402,-5.9408,-6.0262,-6.0778,-6.1048,-6.2429,-6.3275,-6.3577,-6.554,-6.7239,-6.8598,-6.973,-7.0976,-7.2277,-7.3107,-7.439,-7.6013,-7.6821,-7.7786,-7.8815,-7.9324,-7.9908,-8.0445,-8.0526,-8.1614,-8.3388,-2.1313,-2.1249,-2.0938,-2.0196,-1.7103,-1.3973,-1.1744,-1.0448,-0.9383,-0.8408,-0.7293,-0.7061,-0.82,-0.8286,-0.9253,-1.1688,-1.2855,-1.4131,-1.5805,-1.5671,-1.5691,-1.5961,-1.6319,-1.6284,-1.5879,-1.654,-1.6603,-1.5961,-1.7571,-1.9263,-2.1076,-2.3527,-2.5283,-2.6472,-2.855,-2.8514,-2.6884,-2.8336,-2.9777,-3.1318,-3.5092,-3.696,-3.76,-3.8239,-3.5695,-3.1736,-3.1042,-3.252,-3.4806,-3.4832,-3.5891,-3.7532,-3.9207,-3.8965,-3.8297,-3.9516,-3.9882,-3.9849,-3.9367,-4.0034,-4.1088,-4.2136,-4.4258,-4.6812,-4.9602,-5.1749,-5.3818,-5.6047,-5.6134,-5.5321,-5.3725,-5.3422,-5.2786,0.0,0.0,-5.0813,-4.9649,-5.1171,-5.1842,-5.0304,-4.988,-5.0078,-5.1016,-5.199,-5.2822,-5.3474,-5.3981,-5.5121,-5.706,-5.7645,-5.9196,-6.1931,-6.209,-6.248,-6.318,-6.3329,-6.3801,-6.4689,-6.7089,-6.8714,-6.9659,-7.1267,-7.2419,-7.3191,-7.4119,-7.5383,-7.6948,-7.7764,-7.8921,-8.0163,-8.0163,-8.0593,-8.1238,-8.1459,-8.3502,-8.6286,-2.2692,-2.1981,-2.0632,-1.8546,-1.5622,-1.2742,-1.0364,-0.9262,-0.8612,-0.8456,-0.8197,-0.8137,-0.8534,-0.9249,-1.0331,-1.1984,-1.3147,-1.4754,-1.7077,-1.7316,-1.7755,-1.8534,-1.9067,-1.8638,-1.7115,-1.8747,-1.9209,-1.833,-2.0699,-2.3142,-2.5556,-2.7664,-2.9184,-3.0138,-3.0957,-3.1063,-3.0646,-3.1437,-3.4079,-3.7817,-3.881,-4.0531,-4.2447,-4.2153,-4.1361,-4.0027,-3.7661,-3.6973,-3.7238,-3.7655,-3.7779,-3.7896,-3.9008,-3.904,-3.895,-4.0237,-4.0535,-4.0756,-4.2183,-4.2787,-4.3594,-4.6018,-4.7684,-4.949,-5.2373,-5.4331,-5.6042,-5.7774,-5.7782,-5.7029,-5.5529,-5.4488,-5.3481,-5.2353,-5.2439,-5.244,-5.1819,-5.2284,-5.2515,-5.1973,-5.3059,-5.3953,-5.4155,-5.4451,-5.5226,-5.6598,-5.7495,-5.7979,-5.8076,-5.9907,-6.1271,-6.1902,-6.4072,-6.503,-6.4612,-6.6223,-6.7482,-6.8363,-6.9589,-7.0992,-7.2486,-7.4188,-7.5031,-7.5321,-7.6794,-7.8003,-7.902,-7.925,-7.9949,-8.0855,-8.0855,-8.1689,-8.2978,-8.3017,-8.4741,-8.7171,-2.3671,-2.1978,-1.9703,-1.7121,-1.4871,-1.2621,-1.0075,-0.8967,-0.8391,-0.8472,-0.9061,-0.9482,-0.9444,-1.0903,-1.2412,-1.3622,-1.4856,-1.6655,-1.9263,-1.9388,-1.9925,-2.1068,-2.1316,-2.1147,-2.0457,-2.202,-2.2934,-2.3006,-2.5795,-2.8499,-3.1083,-3.2763,-3.3847,-3.4447,-3.4602,-3.424,-3.3668,-3.5065,-3.8014,-4.1748,-4.186,-4.3192,0.0,-4.4741,-4.4674,-4.4458,-4.2779,-4.1391,-4.0421,-4.0731,-4.05,-4.0283,-4.1085,-4.1257,-4.1364,-4.2438,-4.2921,-4.3282,-4.4497,-4.5045,-4.5805,-4.7869,-4.924,-5.0758,-5.3211,-5.4805,-5.6216,-5.7622,-5.7747,-5.7314,-5.651,-5.5621,-5.4748,-5.4112,-5.4485,-5.4503,-5.3607,-5.4514,-5.487,-5.3745,-5.5467,-5.675,-5.6796,-5.7104,-5.7701,-5.8675,-5.9438,-5.9967,-6.0177,-6.1689,-6.2938,-6.3822,-6.5895,-6.6916,-6.6773,-6.8369,-6.9603,-7.0493,-7.1693,-7.3154,-7.4895,-7.6211,-7.7024,-7.7461,-7.8766,-7.9617,-8.007,-8.0457,-8.0873,-8.1253,-8.1516,-8.2439,-8.367,-8.4401,-8.6094,-8.8128,-2.3887,-2.1383,-1.8502,-1.6093,-1.4684,-1.3125,-1.0753,-0.956,-0.8974,-0.9048,-1.01,-1.0853,-1.063,-1.2857,-1.4728,-1.5819,-1.7409,-1.9455,-2.2033,-2.2114,-2.2717,-2.4115,-2.4028,-2.4325,-2.5142,-2.621,-2.7514,-2.9012,-3.1746,-3.4401,-3.694,-3.8025,-3.8619,-3.878,-3.8733,-3.7872,-3.6673,-3.896,-4.1599,-4.4236,-4.4561,-4.5569,-4.683,-4.6847,-4.6768,-4.6698,-4.6698,-4.5355,-4.3562,-4.3562,-4.3375,-4.3293,-4.4035,-4.4258,-4.4383,-4.5162,-4.5805,-4.6387,-4.6491,-4.701,-4.776,-4.8821,-4.9993,-5.1337,-5.3134,-5.4333,-5.5434,-5.6731,-5.696,-5.6945,-5.6998,-5.6596,-5.6143,-5.5824,-5.6425,-5.6497,-5.5185,-5.6995,-5.772,-5.574,-5.737,0.0,-5.9153,-5.9672,-6.0018,-6.0011,-6.0572,-6.1342,-6.2313,-6.2927,-6.4155,-6.6153,-6.7405,-6.8423,-6.9247,-7.0304,-7.1317,-7.2205,-7.3762,-7.5351,-7.6986,-7.7842,-7.866,-7.9399,-8.0216,-8.0559,-8.0637,-8.1376,-8.1609,-8.148,-8.2157,-8.2916,-8.3918,-8.5691,-8.7387,-8.8938,-2.225,-1.9765,-1.7604,-1.632,-1.4894,-1.3528,-1.2486,-1.189,-1.1636,-1.1859,-1.1916,-1.1911,-1.1882,-1.4,-1.588,-1.6985,-1.9925,-2.2758,-2.5162,-2.6546,-2.7867,-2.9177,-2.9751,-3.0138,-3.0317,-3.1303,-3.2861,-3.4986,-3.6506,-3.8736,-4.16,-4.1875,-4.1953,-4.185,-4.1757,-4.1588,-4.139,-4.2814,-4.4727,-4.6872,-4.7586,-4.8862,-5.0239,-5.0243,-4.9837,-4.9325,-4.9325,-4.7398,-4.4846,-4.4846,-4.4473,-4.4167,-4.4983,-4.5146,-4.5194,-4.5995,-4.6651,-4.721,-4.7988,-4.8727,-4.9595,-5.1124,-5.1669,-5.2361,-5.4273,-5.5154,-5.595,-5.7194,-5.7225,-5.7001,-5.7,-5.6665,-5.6429,-5.6706,-5.6967,-5.7111,-5.7081,-5.7725,-5.8308,-5.865,-5.918,-6.008,-6.1538,-6.1301,-6.1088,-6.1182,-6.207,-6.2315,-6.1716,-6.3101,-6.4345,-6.531,-6.8229,-7.0175,-7.1038,-7.3295,-7.4852,-7.5709,-7.6721,-7.7733,-7.8784,-7.9594,-8.0061,-8.0255,-8.1104,-8.1454,-8.1493,-8.1649,-8.1664,-8.174,-8.256,-8.3397,-8.4398,-8.6856,-8.8371,-8.9313,-2.1806,-1.936,-1.7527,-1.6975,-1.6305,-1.5578,-1.4701,-1.4839,-1.4472,-1.2802,-1.3651,-1.4541,-1.4972,-1.7548,-2.0122,-2.2298,-2.4461,-2.6978,-3.0039,-3.0992,-3.2117,-3.36,-3.3986,-3.4516,-3.5229,-3.6077,-3.8025,-4.1068,-4.1963,-4.3762,-4.6428,-4.5833,-4.5458,-4.5328,-4.4653,-4.4613,-4.5127,-4.5703,-4.7222,-4.9224,-4.8895,-4.9892,-5.1533,-5.0789,-5.0497,-5.0554,-5.0554,-4.9601,-4.8128,-4.7399,-4.6911,-4.6776,-4.7563,-4.7762,-4.784,-4.8636,-4.9061,-4.9378,-5.0033,-5.0748,-5.1527,-5.2541,-5.3068,-5.3588,-5.4535,-5.5082,-5.5698,-5.6744,-5.6994,-5.7197,-5.7825,-5.8221,-5.8438,-5.8365,-5.8971,-5.9254,-5.8593,-5.8935,-5.9244,-5.9232,-5.9698,-6.0334,-6.1165,-6.1591,-6.1906,-6.2158,-6.3056,-6.3004,-6.1668,-6.3592,-6.5112,-6.6001,-6.8925,-7.1309,-7.3107,-7.5215,-7.6734,-7.7593,-7.8412,-7.9271,-8.0169,-8.052,-8.0946,-8.1418,-8.1844,-8.2,-8.1996,-8.1894,-8.2134,-8.2596,-8.3321,-8.414,-8.5182,-8.7759,-8.9068,-8.969,-2.171,-1.9542,-1.8087,-1.8025,-1.8041,-1.7836,-1.7173,-1.7891,-1.7388,-1.4182,-1.5655,-1.7457,-1.852,-2.1627,-2.4772,-2.7784,-2.9284,-3.1487,-3.4729,-3.5271,-3.6064,-3.7367,-3.7682,-3.8288,-3.9364,-4.0162,-4.217,-4.5456,-4.616,-4.7681,-4.9864,-4.8993,-4.847,-4.8243,-4.7474,-4.7451,-4.798,-4.8269,-4.9451,-5.1045,-5.0091,-5.0784,-5.2216,-5.1047,-5.092,-5.1317,-5.1317,-5.1317,-5.1134,-4.9987,-4.9494,-4.9462,-5.0039,-5.0226,-5.0358,-5.1018,-5.1347,-5.156,-5.1946,-5.2611,-5.323,-5.3571,-5.4088,-5.4516,-5.4594,-5.4862,-5.5363,-5.6333,-5.6928,-5.7609,-5.8796,-5.9696,-6.0256,-6.0169,-6.095,-6.1123,-5.9918,-6.0087,-6.0085,-5.9433,-5.9894,-6.0402,-6.0819,-6.1911,-6.2687,-6.2984,-6.3503,-6.3299,-6.2213,-6.4124,-6.5926,-6.734,-7.0036,-7.2655,-7.5117,-7.7031,-7.8359,-7.9023,-7.9844,-8.0625,-8.1289,-8.1289,-8.164,-8.2304,-8.2304,-8.2304,-8.2304,-8.2122,-8.257,-8.3422,-8.4106,-8.4994,-8.6209,-8.8579,-8.9715,-9.0261,-2.1551,-2.0251,-1.9412,-1.9629,-1.9464,-1.9497,-1.9926,-2.0704,-2.0344,-1.789,-1.8411,-1.9816,-2.1919,-2.4916,-2.7835,-3.0504,-3.3302,-3.5751,-3.7579,-3.9142,-4.0085,-4.0214,-4.123,-4.1841,-4.1939,-4.2856,-4.422,-4.603,-4.7062,-4.8418,-5.0095,-5.0394,-5.0164,-4.9555,-5.0282,-5.02,-4.9598,-5.1023,-5.1742,-5.193,-5.2526,-5.2914,-5.3082,-5.2929,-5.2504,-5.2018,-5.2018,-5.2018,-5.1982,-5.1838,-5.1401,-5.0899,-5.1006,-5.1006,-5.1073,-5.1527,-5.2109,-5.2726,-5.3122,-5.3806,-5.4333,-5.4382,-5.4452,-5.4579,-5.4947,-5.508,-5.5428,-5.6691,-5.7615,-5.8511,-5.9504,-5.98,-6.0329,-6.1825,-6.1653,-6.1315,-6.1225,-6.0684,-6.0367,-6.0513,-6.0297,-6.0811,-6.2474,-6.3147,-6.3549,-6.3669,-6.3103,-6.2992,-6.357,-6.4576,-6.6322,-6.8892,-7.2213,-7.4937,-7.6953,-7.9414,-8.0703,-8.0781,-8.164,-8.2109,-8.2187,-8.2187,-8.2226,-8.2304,-8.2304,-8.2304,-8.2304,-8.2265,-8.2772,-8.3671,-8.449,-8.5857,-8.7536,-8.9294,-9.0467,-9.1288,-2.3491,-2.2301,-2.1725,-2.2599,-2.2635,-2.2858,-2.368,-2.4449,-2.4847,-2.4449,-2.4347,-2.515,-2.7451,-3.0438,-3.3343,-3.6053,-3.7918,-3.9604,-4.106,-4.1781,-4.2296,-4.2632,-4.3079,-4.3511,-4.3971,-4.4836,-4.6177,-4.8083,-4.8753,-5.018,-5.2304,-5.1484,-5.1092,-5.1107,-5.147,-5.1419,-5.1128,-5.1784,-5.2023,-5.2013,-5.2344,-5.2784,-5.313,-5.2674,-5.2599,-5.2769,-5.2769,-5.2769,-5.2813,-5.3046,-5.2791,-5.2404,-5.2652,-5.2724,-5.2794,-5.3232,-5.3609,-5.3899,-5.4311,-5.4655,-5.496,-5.5255,-5.5346,-5.5538,-5.6325,-5.6493,-5.6902,-5.8403,-5.935,-6.0083,-6.0607,-6.1115,-6.1543,-6.1668,-6.1559,-6.1306,-6.0807,-5.9946,-5.9389,-5.9515,-5.9616,-5.9966,-6.0723,-6.2375,-6.3664,-6.4241,-6.5041,-6.5437,-6.5297,-6.7113,-6.919,-7.1413,-7.392,-7.6362,-7.8672,-8.0234,-8.125,-8.1797,-8.2148,-8.2223,-8.212,-8.2224,-8.2304,-8.2304,-8.2304,-8.2304,-8.2344,-8.2851,-8.3594,-8.4453,-8.5351,-8.6445,-8.7695,-8.9375,-9.0234,-9.0703,-2.5785,-2.5119,-2.4972,-2.5842,-2.6206,-2.6657,-2.7496,-2.8737,-2.9912,-3.0786,-3.1252,-3.1751,-3.2372,-3.5056,-3.7753,-4.0189,-4.1324,-4.2396,-4.3553,-4.3601,-4.3763,-4.4161,-4.4276,-4.4687,-4.5448,-4.5993,-4.7275,-4.9227,-4.9759,-5.1074,-5.3028,-5.2243,-5.1912,-5.2013,-5.2234,-5.2197,-5.2013,-5.2234,-5.2344,-5.2364,-5.2491,-5.2884,-5.3306,-5.2736,-5.2884,-5.3359,-5.323,-5.3272,-5.3404,-5.3702,-5.3683,-5.3604,-5.3924,-5.3995,-5.4101,-5.4547,-5.4671,-5.476,-5.5173,-5.5298,-5.5434,-5.5801,-5.5924,-5.6245,-5.7187,-5.7409,-5.7881,-5.9505,-6.0523,-6.1133,-6.1261,-6.1811,-6.2027,-6.1495,-6.1275,-6.0978,-6.0307,-5.9319,-5.8727,-5.8858,-5.9609,-6.0161,-6.0144,-6.2715,-6.4589,-6.4936,-6.6912,-6.7755,-6.7037,-6.922,-7.1368,-7.3325,-7.5449,-7.7693,-8.0078,-8.0937,-8.1679,-8.2219,-8.2219,-8.2115,-8.1904,-8.212,-8.2219,-8.222,-8.2265,-8.2304,-8.2383,-8.3242,-8.4101,-8.5,-8.5859,-8.7031,-8.8398,-8.957,-9.0312,-9.0937,-2.8052,-2.8582,-2.9239,-2.9264,-2.9877,-3.0591,-3.1165,-3.3499,-3.5462,-3.6222,-3.8891,-3.942,-3.5931,-3.7977,-4.0276,-4.1821,-4.3008,-4.3922,-4.4535,-4.4599,-4.4599,-4.4612,-4.4908,-4.5459,-4.6271,-4.6286,-4.714,-4.8805,-4.9668,-5.0522,-5.1359,-5.2605,-5.2747,-5.2013,-5.2821,-5.2747,-5.205,-5.2858,-5.3188,-5.323,-5.3606,-5.3777,-5.3777,-5.3777,-5.3777,-5.3739,-5.3339,-5.3444,-5.3777,-5.3777,-5.4101,-5.4468,-5.4468,-5.4484,-5.4563,-5.496,-5.5107,-5.5186,-5.5577,-5.5779,-5.5877,-5.5915,-5.6071,-5.6425,-5.7214,-5.7409,-5.7876,-5.9627,-6.0705,-6.1291,-6.1285,-6.1328,-6.1361,-6.1559,-6.087,-6.0248,-6.0019,-5.9238,-5.8805,-5.9168,-6.076,-6.1878,-6.1879,-6.5023,-6.6744,-6.5936,-6.8244,-6.9359,-6.8714,-7.0283,-7.2135,-7.4236,-7.6816,-7.9074,-8.0976,-8.1836,-8.2179,-8.1992,-8.1992,-8.1889,-8.1695,-8.1899,-8.1992,-8.2,-8.2219,-8.2304,-8.2383,-8.3242,-8.4101,-8.5,-8.5859,-8.7734,-8.9961,-9.0,-9.1094,-9.2578,-3.2748,-3.3221,-3.3882,-3.4456,-3.4592,-3.5428,-3.7633,-3.815,-3.8913,-4.0691,-4.2508,-4.3269,-4.2119,-4.2268,-4.289,-4.4021,-4.4436,-4.4749,-4.4931,-4.4943,-4.5209,-4.5753,-4.5883,-4.6565,-4.7979,-4.855,-4.9227,-5.0095,-5.1187,-5.2048,-5.2622,-5.3582,-5.3764,-5.3253,-5.3512,-5.3628,-5.3729,-5.3991,-5.4086,-5.4103,-5.4221,-5.4272,-5.4272,-5.4272,-5.4272,-5.4255,-5.4138,-5.419,-5.4322,-5.4572,-5.479,-5.4988,-5.5324,-5.5197,-5.5015,-5.5483,-5.5654,-5.5711,-5.5978,-5.6078,-5.6263,-5.6943,-5.7186,-5.7619,-5.9113,-5.9831,-6.0392,-6.1026,-6.1227,-6.132,-6.1429,-6.1248,-6.101,-6.0768,-6.013,-5.9559,-5.9151,-5.9387,-5.9624,-5.9733,-6.1825,-6.3264,-6.3248,-6.6126,-6.8129,-6.8475,-7.086,-7.202,-7.1337,-7.3001,-7.5152,-7.7703,-7.9147,-8.0551,-8.1875,-8.189,-8.1914,-8.1992,-8.1867,-8.1746,-8.1688,-8.1785,-8.1873,-8.1996,-8.2219,-8.2304,-8.2422,-8.3867,-8.4648,-8.5117,-8.7109,-8.8047,-8.8437,-8.957,-9.0351,-9.0898,-3.6724,-3.7355,-3.8155,-3.9121,-3.9368,-4.0158,-4.2281,-4.2596,-4.3057,-4.4373,-4.5649,-4.6313,-4.6026,-4.5329,-4.5091,-4.5513,-4.567,-4.5656,-4.5311,-4.5579,-4.6,-4.6508,-4.6814,-4.7554,-4.8779,-4.9442,-5.0133,-5.0944,-5.2177,-5.3006,-5.344,-5.3941,-5.4145,-5.4066,-5.4066,-5.4221,-5.4484,-5.4484,-5.4484,-5.45,-5.4655,-5.4716,-5.4716,-5.4716,-5.4716,-5.4701,-5.4547,-5.4594,-5.4775,-5.5071,-5.527,-5.5528,-5.6249,-5.6214,-5.5952,-5.6002,-5.5998,-5.6103,-5.652,-5.67,-5.6987,-5.7902,-5.8207,-5.8658,-6.0077,-6.0976,-6.1522,-6.1596,-6.1465,-6.1314,-6.133,-6.1229,-6.1032,-6.0504,-5.995,-5.942,-5.8948,-5.9541,-6.0228,-6.0824,-6.3209,-6.4955,-6.5245,-6.8038,-6.9783,-6.9706,-7.2052,-7.3485,-7.3429,-7.5157,-7.7112,-7.9227,-8.0124,-8.1065,-8.2065,-8.1837,-8.1749,-8.1792,-8.1572,-8.148,-8.1491,-8.1553,-8.167,-8.1799,-8.1984,-8.212,-8.2333,-8.4051,-8.4839,-8.5117,-8.7383,-8.8125,-8.8125,-8.9492,-9.0195,-9.0625,-4.0162,-4.1013,-4.204,-4.3197,-4.3969,-4.4656,-4.5372,-4.6589,-4.738,-4.7284,-4.8175,-4.8571,-4.7804,-4.7376,-4.6993,-4.6555,-4.6685,-4.6471,-4.5671,-4.6432,-4.6923,-4.6962,-4.7817,-4.8498,-4.8955,-4.9446,-5.031,-5.1503,-5.2705,-5.3484,-5.3832,-5.3832,-5.4101,-5.4532,-5.4532,-5.4547,-5.4579,-5.4579,-5.4579,-5.4609,-5.4974,-5.5147,-5.5147,-5.5223,-5.5236,-5.5185,-5.4874,-5.5028,-5.539,-5.5478,-5.5768,-5.6257,-5.722,-5.7502,-5.7346,-5.6602,-5.6402,-5.6563,-5.7318,-5.7669,-5.7999,-5.8783,-5.9171,-5.957,-6.0312,-6.0995,-6.1495,-6.1495,-6.1408,-6.1298,-6.1014,-6.1246,-6.1259,-6.0591,-6.0074,-5.9696,-5.9311,-5.9743,-6.0757,-6.2405,-6.4964,-6.6949,-6.7757,-7.0522,-7.1668,-7.0167,-7.2322,-7.4127,-7.5177,-7.6842,-7.8173,-7.9166,-8.0022,-8.0886,-8.1688,-8.1656,-8.1563,-8.1371,-8.1196,-8.1093,-8.1108,-8.1298,-8.1407,-8.143,-8.1627,-8.1819,-8.2097,-8.3857,-8.469,-8.5037,-8.6912,-8.8045,-8.8787,-8.9685,-9.0545,-9.1366,-4.4195,-4.4765,-4.5507,-4.6495,-4.6693,-4.7247,-4.8835,-4.8291,-4.7973,-4.8754,-4.9074,-4.9191,-4.8999,-4.9481,-4.949,-4.874,-4.6982,-4.5825,-4.5594,-4.6432,-4.7154,-4.7778,-4.9279,-5.0263,-5.0709,-5.203,-5.3063,-5.372,-5.4033,-5.4221,-5.4322,-5.4322,-5.4563,-5.4947,-5.4947,-5.5134,-5.5411,-5.5411,-5.5411,-5.5423,-5.5531,-5.5566,-5.5642,-5.6295,-5.6603,-5.6772,-5.7332,-5.7675,-5.7829,-5.7871,-5.7949,-5.8087,-5.8445,-5.8552,-5.8513,-5.8318,-5.8279,-5.8331,-5.8691,-5.8821,-5.902,-5.9841,-6.0503,-6.102,-6.1215,-6.1307,-6.1339,-6.1339,-6.1712,-6.1733,-6.0678,-6.0981,-6.0898,-5.9403,-5.9054,-5.9194,-5.9722,-6.075,-6.2199,-6.4272,-6.7133,-6.925,-7.0043,-7.1958,-7.3283,-7.3514,-7.4707,-7.6058,-7.7568,-7.8686,-7.9545,-8.0061,-8.0806,-8.134,-8.168,-8.1407,-8.1214,-8.1152,-8.1139,-8.1093,-8.1108,-8.1298,-8.1407,-8.143,-8.1627,-8.171,-8.1909,-8.3584,-8.4305,-8.4656,-8.7696,-8.8631,-8.843,-8.9911,-9.0574,-9.0827,-4.7785,-4.8394,-4.9067,-4.974,-4.9761,-5.0022,-5.0971,-5.0345,-5.0117,-5.1029,-5.0779,-5.0548,-5.0548,-5.0279,-4.9933,-4.9433,-4.8125,-4.7163,-4.6778,-4.7548,-4.824,-4.8663,-5.0317,-5.1107,-5.076,-5.2768,-5.404,-5.4484,-5.4484,-5.4579,-5.476,-5.476,-5.5018,-5.5467,-5.5467,-5.5624,-5.5938,-5.5938,-5.5938,-5.5938,-5.5938,-5.5938,-5.6015,-5.6875,-5.7219,-5.7391,-5.8291,-5.8629,-5.8709,-5.8767,-5.8784,-5.8889,-5.9368,-5.9492,-5.957,-5.9916,-5.949,-5.8984,-5.9458,-5.9558,-5.9753,-6.0615,-6.1396,-6.1981,-6.1981,-6.1834,-6.1857,-6.2284,-6.2404,-6.2207,-6.1492,-6.1597,-6.1375,-6.0024,-5.96,-5.9634,-6.0137,-6.1317,-6.3088,-6.5676,-6.8301,-7.0484,-7.1962,-7.363,-7.4668,-7.4707,-7.5948,-7.7138,-7.8037,-7.8614,-7.9462,-8.0682,-8.1079,-8.1311,-8.1414,-8.12,-8.1093,-8.1093,-8.1093,-8.1093,-8.1093,-8.12,-8.1258,-8.131,-8.1758,-8.2023,-8.2262,-8.3971,-8.4689,-8.5057,-8.7712,-8.8481,-8.8287,-8.996,-9.0583,-9.0695,-5.0959,-5.1573,-5.2203,-5.2503,-5.2555,-5.2514,-5.2395,-5.2341,-5.2524,-5.3138,-5.2569,-5.2115,-5.2115,-5.0702,-4.9779,-4.9779,-4.9663,-4.9163,-4.8163,-4.8933,-4.9413,-4.9412,-5.1029,-5.1403,-5.0281,-5.2568,-5.404,-5.4567,-5.4652,-5.4898,-5.526,-5.5274,-5.5511,-5.5971,-5.5971,-5.6019,-5.6191,-5.6191,-5.6269,-5.6391,-5.6391,-5.6469,-5.6664,-5.7486,-5.7785,-5.7901,-5.8797,-5.9096,-5.9095,-5.9232,-5.9244,-5.9409,-6.0117,-6.0389,-6.0488,-6.1061,-6.0287,-5.9373,-6.0022,-6.0188,-6.0421,-6.1439,-6.2082,-6.2484,-6.264,-6.264,-6.2859,-6.3594,-6.3425,-6.307,-6.2741,-6.2598,-6.2225,-6.132,-6.0637,-6.0406,-6.098,-6.1834,-6.3589,-6.688,-6.8979,-7.1061,-7.3369,-7.5011,-7.5663,-7.505,-7.6631,-7.7664,-7.7664,-7.7933,-7.8921,-8.0767,-8.0822,-8.0822,-8.0822,-8.0822,-8.0822,-8.0822,-8.0822,-8.0855,-8.0959,-8.0959,-8.1068,-8.1323,-8.2016,-8.2483,-8.2883,-8.4508,-8.5324,-8.5767,-8.7516,-8.8255,-8.8566,-9.012,-9.0703,-9.082,-5.327,-5.3403,-5.354,-5.3703,-5.3745,-5.3697,-5.3565,-5.3433,-5.3378,-5.336,-5.3156,-5.301,-5.301,-5.2115,-5.15,-5.15,-5.0894,-4.9817,-4.8202,-4.8933,-4.9448,-4.956,-5.1184,-5.1717,-5.0951,-5.2699,-5.4039,-5.482,-5.5451,-5.5862,-5.6039,-5.5932,-5.5969,-5.6158,-5.6158,-5.6169,-5.6191,-5.6191,-5.6586,-5.7214,-5.7214,-5.7642,-5.8426,-5.9277,-5.9602,-5.9724,-6.0581,-6.0887,-6.0893,-6.0919,-6.091,-6.0945,-6.11,-6.1123,-6.1134,-6.1074,-6.0879,-6.074,-6.1019,-6.1089,-6.1478,-6.3028,-6.2874,-6.2513,-6.324,-6.3861,-6.4277,-6.4431,-6.513,-6.5144,-6.3361,-6.3248,-6.3007,-6.1724,-6.032,-6.0498,-6.3668,-6.314,-6.4016,-6.8306,-6.9768,-7.1398,-7.3863,-7.4981,-7.5814,-7.636,-7.7316,-7.7839,-7.7839,-7.8602,-7.9139,-7.9469,-7.9491,-7.9491,-7.9491,-7.9491,-7.9491,-7.9491,-7.9491,-7.9765,-8.0277,-8.0277,-8.0918,-8.2131,-8.2247,-8.2756,-8.3495,-8.4535,-8.5375,-8.6169,-8.7943,-8.9022,-8.9755,-9.0757,-9.1104,-9.1168,-5.4676,-5.499,-5.519,-5.4765,-5.4687,-5.4646,-5.4528,-5.4447,-5.4537,-5.4866,-5.4463,-5.4134,-5.4134,-5.3328,-5.2824,-5.2824,-5.2482,-5.1901,-5.1132,-5.0511,-5.0264,-5.0408,-5.1573,-5.2263,-5.2446,-5.319,-5.4046,-5.4897,-5.5713,-5.6146,-5.6191,-5.6141,-5.6191,-5.6293,-5.6227,-5.6222,-5.6321,-5.668,-5.7109,-5.761,-5.8041,-5.8499,-5.9061,-5.9831,-6.0117,-6.0212,-6.0999,-6.1318,-6.1283,-6.1283,-6.1283,-6.1271,-6.1179,-6.1143,-6.1182,-6.1495,-6.1608,-6.159,-6.1708,-6.2393,-6.3158,-6.3468,-6.3882,-6.4326,-6.4751,-6.5418,-6.6,-6.6165,-6.6407,-6.6163,-6.4902,-6.4212,-6.3664,-6.3038,-6.1557,-6.1397,-6.4068,-6.4166,-6.5514,-6.9656,-7.1283,-7.2973,-7.5298,-7.6286,-7.6949,-7.7304,-7.7826,-7.8141,-7.8141,-7.8155,-7.819,-7.819,-7.884,-7.9198,-7.9198,-7.9198,-7.9198,-7.9198,-7.9198,-7.9358,-7.96,-7.96,-8.0203,-8.1324,-8.2166,-8.3004,-8.3865,-8.507,-8.6055,-8.694,-8.8209,-8.9171,-9.0017,-9.0902,-9.1518,-9.1857,-5.5742,-5.6133,-5.6406,-5.5703,-5.5586,-5.5584,-5.5443,-5.5423,-5.5627,-5.6173,-5.5633,-5.5185,-5.5185,-5.4412,-5.3911,-5.3911,-5.3716,-5.3614,-5.3641,-5.2336,-5.1542,-5.1447,-5.2052,-5.2805,-5.3658,-5.39,-5.4329,-5.4987,-5.5887,-5.6293,-5.6237,-5.6244,-5.6285,-5.6362,-5.6442,-5.653,-5.6666,-5.7396,-5.7921,-5.8272,-5.8893,-5.936,-5.9748,-6.0246,-6.0446,-6.046,-6.1023,-6.1214,-6.1165,-6.1165,-6.1165,-6.1174,-6.1241,-6.1263,-6.1418,-6.2159,-6.2512,-6.2666,-6.2666,-6.3474,-6.4282,-6.4205,-6.5051,-6.6013,-6.6397,-6.7178,-6.787,-6.8106,-6.796,-6.7492,-6.6717,-6.5681,-6.4861,-6.4677,-6.3246,-6.2879,-6.4934,-6.5595,-6.7237,-7.0919,-7.2604,-7.4297,-7.6355,-7.7141,-7.7554,-7.7741,-7.8112,-7.8258,-7.8072,-7.7784,-7.7494,-7.731,-7.8272,-7.8741,-7.8741,-7.8741,-7.8741,-7.8741,-7.8741,-7.884,-7.8986,-7.8986,-7.9623,-8.0783,-8.1962,-8.3112,-8.4284,-8.5396,-8.6569,-8.7786,-8.844,-8.9325,-9.0287,-9.0941,-9.1633,-9.2109,-5.6523,-5.6562,-5.6562,-5.6523,-5.6484,-5.6484,-5.6484,-5.6387,-5.6311,-5.6383,-5.6225,-5.6114,-5.6114,-5.5341,-5.4801,-5.4801,-5.4066,-5.365,-5.3772,-5.3654,-5.3223,-5.2447,-5.2567,-5.3085,-5.3944,-5.4764,-5.5194,-5.5272,-5.6131,-5.6522,-5.6372,-5.6313,-5.6269,-5.6237,-5.6962,-5.7341,-5.7364,-5.8243,-5.9099,-5.9855,-5.9894,-6.0406,-6.1162,-6.119,-6.1085,-6.0949,-6.1011,-6.0943,-6.085,-6.085,-6.085,-6.0965,-6.1751,-6.2021,-6.2163,-6.2974,-6.3782,-6.4436,-6.4436,-6.3935,-6.3935,-6.6244,-6.6359,-6.632,-6.7859,-6.91,-6.9887,-6.9891,-7.0286,-7.0137,-6.8586,-6.7825,-6.7173,-6.6439,-6.4971,-6.5007,-6.8128,-6.7944,-6.8742,-7.1994,-7.3133,-7.4338,-7.5985,-7.6199,-7.6537,-7.7273,-7.8125,-7.8241,-7.7402,-7.8106,-7.8148,-7.731,-7.7396,-7.742,-7.742,-7.742,-7.742,-7.742,-7.742,-7.7768,-7.8389,-7.8389,-7.9578,-8.1613,-8.1736,-8.299,-8.5006,-8.5123,-8.6547,-8.8594,-8.8671,-8.9671,-9.1133,-9.1171,-9.1248,-9.1287,-5.5781,-5.6211,-5.6601,-5.6601,-5.6601,-5.6601,-5.6601,-5.656,-5.6516,-5.6516,-5.6465,-5.6454,-5.6454,-5.6142,-5.5948,-5.5948,-5.5636,-5.5489,-5.554,-5.5033,-5.4329,-5.347,-5.3476,-5.3672,-5.3984,-5.4844,-5.5271,-5.5173,-5.6034,-5.6394,-5.6264,-5.6251,-5.6227,-5.6225,-5.6939,-5.7271,-5.738,-5.863,-5.9478,-5.9917,-6.0422,-6.0882,-6.1277,-6.1165,-6.105,-6.0945,-6.0597,-6.0404,-6.0385,-6.0385,-6.0731,-6.1269,-6.1897,-6.282,-6.3897,-6.5243,-6.5897,-6.6282,-6.6821,-6.632,-6.5897,-6.6859,-6.7667,-6.8345,-6.8587,-6.9797,-7.0646,-6.9964,-7.0396,-7.0636,-6.9673,-6.8941,-6.8495,-6.8715,-6.7797,-6.7871,-7.0073,-7.055,-7.1505,-7.3744,-7.4698,-7.5836,-7.7488,-7.7635,-7.7965,-7.8772,-7.914,-7.8993,-7.8148,-7.7928,-7.764,-7.731,-7.7273,-7.7273,-7.7273,-7.7273,-7.7273,-7.7273,-7.7273,-7.742,-7.768,-7.768,-7.8446,-7.9837,-8.0725,-8.1918,-8.3301,-8.4713,-8.6116,-8.7443,-8.7953,-8.8866,-8.9893,-8.9893,-9.0236,-9.0685,-5.5269,-5.5932,-5.6516,-5.6465,-5.6463,-5.6507,-5.6517,-5.6557,-5.6559,-5.6601,-5.6601,-5.6601,-5.6601,-5.6601,-5.6601,-5.6601,-5.6601,-5.6601,-5.6601,-5.6013,-5.5271,-5.4453,-5.4414,-5.4531,-5.476,-5.5579,-5.5952,-5.584,-5.6695,-5.703,-5.6932,-5.6932,-5.69,-5.6876,-5.7577,-5.793,-5.7998,-5.932,-5.998,-6.0152,-6.0732,-6.1027,-6.1143,-6.0991,-6.0856,-6.0652,-6.0264,-6.0165,-6.0243,-6.027,-6.081,-6.1717,-6.2705,-6.4308,-6.609,-6.7513,-6.7705,-6.7641,-6.8325,-6.8297,-6.7975,-6.7683,-6.8527,-6.9383,-6.9365,-7.029,-7.1052,-7.0555,-7.0958,-7.1305,-7.0928,-7.0403,-7.022,-7.077,-7.0403,-7.0513,-7.1872,-7.2753,-7.378,-7.5139,-7.5983,-7.7047,-7.8442,-7.8589,-7.8919,-7.9727,-8.0021,-7.9947,-7.9396,-7.8552,-7.8112,-7.8112,-7.8112,-7.8112,-7.8112,-7.753,-7.7273,-7.7273,-7.7567,-7.7708,-7.7745,-7.7965,-7.8552,-7.9391,-8.0415,-8.1463,-8.2538,-8.4315,-8.5673,-8.6669,-8.7511,-8.8341,-8.9122,-8.9122,-8.9461,-8.998,-5.5114,-5.5803,-5.6365,-5.6217,-5.6191,-5.6237,-5.6377,-5.6389,-5.6452,-5.6562,-5.6601,-5.6601,-5.6601,-5.6601,-5.6601,-5.6601,-5.6601,-5.6601,-5.6601,-5.6462,-5.6066,-5.5351,-5.5312,-5.5658,-5.6391,-5.7205,-5.7549,-5.7426,-5.8276,-5.8616,-5.8501,-5.8501,-5.8414,-5.8308,-5.9127,-5.9511,-5.955,-6.0435,-6.0781,-6.0781,-6.0781,-6.0781,-6.0781,-6.0819,-6.0506,-6.0098,-6.0098,-6.034,-6.0599,-6.0597,-6.1137,-6.2213,-6.4398,-6.6634,-6.8577,-6.9423,-6.9077,-6.8457,-6.8744,-6.9451,-6.9891,-6.901,-6.882,-6.9119,-7.0224,-7.0698,-7.1107,-7.1926,-7.2307,-7.2496,-7.2496,-7.2496,-7.2496,-7.2532,-7.2532,-7.2826,-7.3597,-7.4404,-7.5212,-7.6019,-7.6827,-7.764,-7.8516,-7.8589,-7.8956,-7.9764,-8.0534,-8.1012,-8.1012,-8.0241,-7.98,-7.98,-7.98,-7.98,-7.98,-7.8148,-7.731,-7.731,-7.8185,-7.8589,-7.8626,-7.9433,-8.0241,-8.1012,-8.1012,-8.1815,-8.3264,-8.4054,-8.5255,-8.6644,-8.7485,-8.8315,-8.9058,-8.9058,-8.9058,-8.9161,-5.4997,-5.5803,-5.6365,-5.6217,-5.6191,-5.6207,-5.6246,-5.6354,-5.6397,-5.6454,-5.6558,-5.6601,-5.6601,-5.6601,-5.6601,-5.6601,-5.6601,-5.656,-5.646,-5.6402,-5.6491,-5.6765,-5.6761,-5.6866,-5.7103,-5.7951,-5.8309,-5.8172,-5.8444,-5.8484,-5.8361,-5.8361,-5.817,-5.7837,-5.8653,-5.8997,-5.9073,-5.9928,-6.0495,-6.0781,-6.0781,-6.0781,-6.0858,-6.1485,-6.1389,-6.0981,-6.1274,-6.1201,-6.0927,-6.0961,-6.1877,-6.3551,-6.6257,-6.7579,-6.8276,-6.9149,-6.9207,-6.9114,-6.9777,-7.0172,-7.0153,-6.9302,-6.9965,-7.0846,-7.0788,-7.1291,-7.1689,-7.1589,-7.205,-7.2679,-7.323,-7.334,-7.3523,-7.4111,-7.4661,-7.5102,-7.5359,-7.6093,-7.665,-7.6937,-7.7127,-7.7855,-7.9286,-7.9433,-7.9984,-8.1379,-8.1195,-8.1012,-8.1012,-8.0241,-8.0057,-8.0608,-8.0645,-8.0901,-8.1489,-7.9323,-7.8222,-7.8222,-7.8479,-7.8589,-7.8626,-7.9433,-7.991,-8.0167,-8.0755,-8.125,-8.1759,-8.3161,-8.3952,-8.4497,-8.5868,-8.6571,-8.6831,-8.7423,-8.7646,-8.7799,-5.4879,-5.5712,-5.6251,-5.6037,-5.5993,-5.6015,-5.6084,-5.6142,-5.6264,-5.6383,-5.6462,-5.6558,-5.6601,-5.6601,-5.6601,-5.6601,-5.6832,-5.6926,-5.6812,-5.7074,-5.7392,-5.78,-5.8071,-5.811,-5.7832,-5.8641,-5.8931,-5.8627,-5.9166,-5.9172,-5.8727,-5.8949,-5.8741,-5.8327,-5.882,-5.9155,-5.934,-5.9874,-6.0365,-6.0781,-6.0781,-6.1012,-6.1346,-6.1672,-6.1678,-6.1532,-6.158,-6.1458,-6.1298,-6.1307,-6.2776,-6.4955,-6.7053,-6.8299,-6.9104,-6.9632,-6.9951,-7.0265,-7.0577,-7.0886,-7.1021,-7.0602,-7.0966,-7.1326,-7.1104,-7.1431,-7.178,-7.1773,-7.2422,-7.323,-7.4037,-7.4441,-7.4918,-7.5726,-7.6276,-7.657,-7.657,-7.698,-7.7273,-7.7273,-7.7273,-7.7965,-7.9617,-7.98,-8.0461,-8.2076,-8.1746,-8.1489,-8.1489,-8.1305,-8.1452,-8.1929,-8.226,-8.2663,-8.3141,-8.1379,-8.0167,-7.9543,-7.9543,-7.9543,-7.958,-8.0718,-8.1232,-8.1269,-8.2076,-8.2406,-8.2517,-8.3838,-8.4352,-8.4499,-8.5783,-8.6077,-8.5894,-8.6701,-8.7013,-8.7211,-5.4913,-5.563,-5.6071,-5.5758,-5.5703,-5.5748,-5.5857,-5.5907,-5.6057,-5.6436,-5.6425,-5.6493,-5.6796,-5.6758,-5.6718,-5.6796,-5.7352,-5.7619,-5.7498,-5.8149,-5.8523,-5.8517,-5.9111,-5.9155,-5.8596,-5.9359,-5.9463,-5.8863,-6.0163,-6.0332,-5.952,-5.9953,-5.9906,-5.9432,-5.9375,-5.9592,-6.0059,-6.0059,-6.0338,-6.0819,-6.0858,-6.1346,-6.1977,-6.1655,-6.1695,-6.1902,-6.1467,-6.1485,-6.1741,-6.1887,-6.3735,-6.6193,-6.7063,-6.8736,-7.0352,-7.0352,-7.0971,-7.1554,-7.1143,-7.1628,-7.2329,-7.2667,-7.1975,-7.1301,-7.1572,-7.1623,-7.1806,-7.2569,-7.3303,-7.4037,-7.4882,-7.5616,-7.635,-7.7163,-7.7273,-7.7273,-7.7273,-7.7273,-7.7273,-7.7273,-7.7273,-7.7928,-7.9543,-7.98,-8.0534,-8.2076,-8.2186,-8.2223,-8.2296,-8.2994,-8.3471,-8.3618,-8.4352,-8.4756,-8.4829,-8.4022,-8.281,-8.1232,-8.1232,-8.1232,-8.1269,-8.281,-8.3581,-8.3654,-8.4315,-8.4646,-8.4756,-8.5416,-8.5673,-8.5747,-8.6591,-8.6444,-8.5928,-8.6877,-8.7152,-8.7436,-5.5794,-5.5935,-5.5907,-5.5728,-5.5703,-5.5724,-5.5748,-5.5843,-5.6209,-5.7079,-5.6741,-5.6962,-5.8476,-5.7877,-5.7656,-5.8321,-5.8433,-5.8414,-5.8281,-5.8419,-5.8568,-5.8745,-5.8882,-5.905,-5.9193,-5.9731,-5.9774,-5.9278,-6.0177,-6.0543,-6.0335,-6.044,-6.0245,-5.9749,-5.9134,-5.9102,-5.9543,-5.9543,-6.0021,-6.0858,-6.1562,-6.1697,-6.1602,-6.2788,-6.2834,-6.2305,-6.287,-6.2817,-6.2732,-6.4053,-6.4926,-6.5716,-6.7152,-6.8362,-6.9241,-6.9241,-7.0249,-7.1515,-7.2014,-7.2723,-7.3542,-7.4214,-7.4228,-7.4028,-7.4103,-7.4147,-7.4184,-7.4368,-7.4515,-7.4882,-7.5689,-7.5983,-7.635,-7.7163,-7.7273,-7.7273,-7.7273,-7.7273,-7.7273,-7.7273,-7.7273,-7.7708,-7.8772,-7.9984,-8.1158,-8.2113,-8.2186,-8.248,-8.3104,-8.3324,-8.3985,-8.5233,-8.5453,-8.5857,-8.6481,-8.5673,-8.4462,-8.2884,-8.2884,-8.2884,-8.292,-8.3911,-8.4682,-8.5233,-8.4792,-8.4976,-8.549,-8.5049,-8.4866,-8.4939,-8.5747,-8.593,-8.6032,-8.8085,-8.8766,-8.9205,-5.5916,-5.5954,-5.5849,-5.5717,-5.6049,-5.6329,-5.6329,-5.6752,-5.7271,-5.7836,-5.7624,-5.78,-5.8841,-5.8453,-5.8281,-5.8688,-5.8985,-5.9118,-5.9003,-5.9177,-5.9292,-5.9431,-5.9224,-5.9072,-5.9065,-5.9302,-5.9302,-5.9084,-6.0076,-6.036,-5.9942,-6.0541,-6.0604,-6.0108,-5.9701,-5.9764,-6.0247,-6.0489,-6.1023,-6.172,-6.2142,-6.24,-6.2543,-6.2927,-6.3025,-6.3006,-6.3627,-6.3886,-6.42,-6.5448,-6.5888,-6.6145,-6.776,-6.8825,-6.9633,-7.0403,-7.1505,-7.2642,-7.345,-7.3964,-7.4478,-7.5285,-7.5469,-7.5395,-7.4992,-7.4918,-7.4918,-7.4918,-7.5212,-7.5616,-7.6019,-7.6423,-7.6827,-7.7237,-7.7273,-7.7273,-7.7273,-7.7273,-7.7273,-7.7273,-7.7273,-7.7818,-7.9029,-8.0277,-8.1342,-8.215,-8.2553,-8.2957,-8.3398,-8.4132,-8.4939,-8.5747,-8.6518,-8.7142,-8.7582,-8.7545,-8.7105,-8.6261,-8.4719,-8.3985,-8.4022,-8.5196,-8.5967,-8.6407,-8.6738,-8.6921,-8.6921,-8.6481,-8.6077,-8.582,-8.6628,-8.6701,-8.6657,-8.8981,-9.0547,-9.1771,-5.5986,-5.6084,-5.6114,-5.613,-5.6742,-5.7214,-5.7214,-5.7857,-5.8417,-5.8678,-5.8587,-5.8661,-5.9114,-5.9102,-5.9054,-5.8892,-5.9484,-5.9803,-5.9607,-6.0043,-6.0159,-5.987,-5.974,-5.9328,-5.8591,-5.8719,-5.8719,-5.857,-5.9925,-6.017,-5.9428,-6.0633,-6.0958,-6.0603,-6.0603,-6.0859,-6.1358,-6.1917,-6.2458,-6.2883,-6.3052,-6.3346,-6.3706,-6.3127,-6.3245,-6.3742,-6.418,-6.4714,-6.5411,-6.6219,-6.6586,-6.6953,-6.8458,-6.9559,-7.0587,-7.2055,-7.3083,-7.3891,-7.4845,-7.5139,-7.5322,-7.6093,-7.6313,-7.613,-7.5469,-7.5322,-7.5322,-7.5322,-7.5836,-7.6313,-7.6313,-7.6974,-7.7494,-7.7494,-7.7494,-7.7494,-7.7494,-7.7384,-7.7273,-7.7273,-7.7273,-7.7965,-7.9617,-8.0388,-8.1232,-8.2333,-8.303,-8.3581,-8.3985,-8.527,-8.6114,-8.6407,-8.7692,-8.8426,-8.8426,-8.9087,-8.9382,-8.9345,-8.6701,-8.5343,-8.527,-8.6738,-8.7435,-8.7509,-8.883,-8.9124,-8.861,-8.8316,-8.7876,-8.7472,-8.7986,-8.7876,-8.7684,-9.0031,-9.2334,-9.4424,-5.6853,-5.6917,-5.7103,-5.783,-5.805,-5.8127,-5.8127,-5.8204,-5.862,-5.9499,-5.8975,-5.9134,-6.076,-6.0801,-6.0634,-6.0487,-6.0569,-6.0479,-6.005,-6.0713,-6.0449,-5.897,-6.014,-5.9998,-5.8133,-5.8773,-5.881,-5.8074,-5.9674,-6.0364,-6.0272,-6.114,-6.1483,-6.1447,-6.1447,-6.1708,-6.2172,-6.2944,-6.3559,-6.4049,-6.4785,-6.4477,-6.367,-6.4994,-6.4887,-6.4143,-6.485,-6.5228,-6.5411,-6.6219,-6.6953,-6.7687,-6.8605,-6.9926,-7.1321,-7.2239,-7.3083,-7.4037,-7.5542,-7.5946,-7.613,-7.6937,-7.7127,-7.709,-7.698,-7.698,-7.698,-7.698,-7.7053,-7.7127,-7.7127,-7.7855,-7.8405,-7.8405,-7.8405,-7.8405,-7.8405,-7.7781,-7.7273,-7.7273,-7.7273,-7.7965,-7.9617,-7.9874,-8.0865,-8.3067,-8.3361,-8.4315,-8.6407,-8.6738,-8.7472,-8.8867,-8.9124,-8.9271,-8.9271,-8.9345,-8.9382,-8.9382,-8.8977,-8.839,-8.7729,-8.8683,-8.9052,-8.9124,-8.9344,-8.9748,-9.0188,-8.8757,-8.8573,-8.905,-8.8426,-8.8573,-8.9371,-9.1642,-9.3978,-9.6002,-5.6927,-5.703,-5.7291,-5.8165,-5.8665,-5.8973,-5.8973,-5.9396,-5.9865,-6.0303,-6.0005,-6.0094,-6.0943,-6.1125,-6.1147,-6.1067,-6.1239,-6.1254,-6.106,-6.1143,-6.0848,-6.0054,-6.0478,-6.0273,-5.9355,-5.9685,-5.9722,-5.9355,-6.0052,-6.0639,-6.1117,-6.2842,-6.3686,-6.3686,-6.4127,-6.4204,-6.4031,-6.4642,-6.5023,-6.524,-6.5635,-6.541,-6.4956,-6.5408,-6.5262,-6.4897,-6.5668,-6.6549,-6.7393,-6.7724,-6.8385,-6.9265,-7.0513,-7.1394,-7.2312,-7.4001,-7.4771,-7.5285,-7.646,-7.679,-7.6864,-7.72,-7.7273,-7.7273,-7.7273,-7.7273,-7.7273,-7.7273,-7.7708,-7.8038,-7.8038,-7.8699,-7.925,-7.925,-7.8883,-7.8589,-7.8589,-7.7855,-7.7457,-7.7965,-7.8038,-7.8846,-8.0938,-8.1122,-8.1966,-8.3911,-8.4903,-8.5894,-8.6958,-8.7876,-8.8683,-8.9345,-8.9858,-9.0078,-9.0078,-9.0519,-9.0739,-9.0739,-9.0298,-8.9417,-8.8243,-8.905,-8.916,-8.8793,-8.9674,-9.0041,-8.9931,-8.9674,-8.9491,-8.9382,-8.9491,-9.0322,-9.1561,-9.2992,-9.4376,-9.5555]},{"header":{"parameterUnit":"m.s-1","parameterCategory":1,"la1":30.6,"la2":28.766,"lo1":-90.7593,"lo2":-88.6598,"dx":0.0162,"dy":0.0183,"nx":116,"ny":114,"refTime":"2023-01-20T18:00:00:Z","depth":0,"parameterNumber":3,"parameterNumberName":"V-component_of_WINDS"},"data":[0.0,0.0,0.0,0.0,0.0,0.0,0.0,0.0,0.0,0.0,0.0,0.0,0.0,0.0,0.0,0.0,0.0,0.0,0.0,0.0,0.0,0.0,0.0,0.0,0.0,0.0,0.0,0.0,0.0,0.0,0.0,0.0,0.0,0.0,0.0,0.0,0.0,0.0,0.0,0.0,0.0,0.0,0.0,0.0,0.0,0.0,0.0,0.0,0.0,0.0,0.0,0.0,0.0,0.0,0.0,0.0,0.0,0.0,0.0,0.0,0.0,0.0,0.0,0.0,0.0,0.0,0.0,0.0,0.0,0.0,0.0,0.0,0.0,0.0,0.0,0.0,0.0,0.0,0.0,0.0,0.0,0.0,0.0,0.0,0.0,0.0,0.0,0.0,0.0,0.0,0.0,0.0,0.0,0.0,0.0,0.0,0.0,0.0,0.0,0.0,0.0,0.0,0.0,0.0,0.0,0.0,0.0,0.0,0.0,0.0,0.0,0.0,0.0,0.0,0.0,0.0,0.0,0.0,0.0,0.0,0.0,0.0,0.0,0.0,0.0,0.0,0.0,0.0,0.0,0.0,0.0,0.0,0.0,0.0,0.0,0.0,0.0,0.0,0.0,0.0,0.0,0.0,0.0,0.0,0.0,0.0,0.0,0.0,0.0,0.0,0.0,0.0,0.0,0.0,0.0,0.0,0.0,0.0,0.0,0.0,0.0,0.0,0.0,0.0,0.0,0.0,0.0,0.0,0.0,0.0,0.0,0.0,0.0,0.0,0.0,0.0,0.0,0.0,0.0,0.0,0.0,0.0,0.0,0.0,0.0,0.0,0.0,0.0,0.0,0.0,0.0,0.0,0.0,0.0,0.0,0.0,0.0,0.0,0.0,0.0,0.0,0.0,0.0,0.0,0.0,0.0,0.0,0.0,0.0,0.0,0.0,0.0,0.0,0.0,0.0,0.0,0.0,0.0,0.0,0.0,0.0,0.0,0.0,0.0,0.0,0.0,0.0,0.0,0.0,0.0,0.0,0.0,0.0,0.0,0.0,0.0,0.0,0.0,0.0,0.0,0.0,0.0,0.0,0.0,0.0,0.0,0.0,0.0,0.0,0.0,0.0,0.0,0.0,0.0,0.0,0.0,0.0,0.0,0.0,0.0,0.0,0.0,0.0,0.0,0.0,0.0,0.0,0.0,0.0,0.0,0.0,0.0,0.0,0.0,0.0,0.0,0.0,0.0,0.0,0.0,0.0,0.0,0.0,0.0,0.0,0.0,0.0,0.0,0.0,0.0,0.0,0.0,0.0,0.0,0.0,0.0,0.0,0.0,0.0,0.0,0.0,0.0,0.0,0.0,0.0,0.0,0.0,0.0,0.0,0.0,0.0,0.0,0.0,0.0,0.0,0.0,0.0,0.0,0.0,0.0,0.0,0.0,0.0,0.0,0.0,0.0,0.0,0.0,0.0,0.0,0.0,0.0,0.0,0.0,0.0,0.0,0.0,0.0,0.0,0.0,0.0,0.0,0.0,0.0,0.0,0.0,0.0,0.0,0.0,0.0,0.0,0.0,0.0,0.0,0.0,0.0,0.0,0.0,0.0,0.0,0.0,0.0,0.0,0.0,0.0,0.0,0.0,0.0,0.0,0.0,0.0,0.0,0.0,0.0,0.0,0.0,0.0,0.0,0.0,0.0,0.0,0.0,0.0,0.0,0.0,0.0,0.0,0.0,0.0,0.0,0.0,0.0,0.0,0.0,0.0,0.0,0.0,0.0,0.0,0.0,0.0,0.0,0.0,0.0,0.0,0.0,0.0,0.0,0.0,0.0,0.0,0.0,0.0,0.0,0.0,0.0,0.0,0.0,0.0,0.0,0.0,0.0,0.0,0.0,0.0,0.0,0.0,0.0,0.0,0.0,0.0,0.0,0.0,0.0,0.0,0.0,0.0,0.0,0.0,0.0,0.0,0.0,0.0,0.0,0.0,0.0,0.0,0.0,0.0,0.0,0.0,0.0,0.0,0.0,0.0,0.0,0.0,0.0,0.0,0.0,0.0,0.0,0.0,0.0,0.0,0.0,0.0,0.0,0.0,0.0,0.0,0.0,0.0,0.0,0.0,0.0,0.0,0.0,0.0,0.0,0.0,0.0,0.0,0.0,0.0,0.0,0.0,0.0,0.0,0.0,0.0,0.0,0.0,0.0,0.0,0.0,0.0,0.0,0.0,0.0,0.0,0.0,0.0,0.0,0.0,0.0,0.0,0.0,0.0,0.0,0.0,0.0,0.0,0.0,0.0,0.0,0.0,0.0,0.0,0.0,0.0,0.0,0.0,0.0,0.0,0.0,0.0,0.0,0.0,0.0,0.0,0.0,0.0,0.0,0.0,0.0,0.0,0.0,0.0,0.0,0.0,0.0,0.0,0.0,0.0,0.0,0.0,0.0,0.0,0.0,0.0,0.0,0.0,0.0,0.0,0.0,0.0,0.0,0.0,0.0,0.0,0.0,0.0,0.0,0.0,0.0,0.0,0.0,0.0,0.0,0.0,0.0,0.0,0.0,0.0,0.0,0.0,0.0,0.0,0.0,0.0,0.0,0.0,0.0,0.0,0.0,0.0,0.0,0.0,0.0,0.0,0.0,0.0,0.0,0.0,0.0,0.0,0.0,0.0,0.0,0.0,0.0,0.0,0.0,0.0,0.0,0.0,0.0,0.0,0.0,0.0,0.0,0.0,0.0,0.0,0.0,0.0,0.0,0.0,0.0,0.0,0.0,0.0,0.0,0.0,0.0,0.0,0.0,0.0,0.0,0.0,0.0,0.0,0.0,0.0,0.0,0.0,0.0,0.0,0.0,0.0,0.0,0.0,0.0,0.0,0.0,0.0,0.0,0.0,0.0,0.0,0.0,0.0,0.0,0.0,0.0,0.0,0.0,0.0,0.0,0.0,0.0,0.0,0.0,0.0,0.0,0.0,0.0,0.0,0.0,0.0,0.0,0.0,0.0,0.0,0.0,0.0,0.0,0.0,0.0,0.0,0.0,0.0,0.0,0.0,0.0,0.0,0.0,0.0,0.0,0.0,0.0,0.0,0.0,0.0,0.0,0.0,0.0,0.0,0.0,0.0,0.0,0.0,0.0,0.0,0.0,0.0,0.0,0.0,0.0,0.0,0.0,0.0,0.0,0.0,0.0,0.0,0.0,0.0,0.0,0.0,0.0,0.0,0.0,0.0,0.0,0.0,0.0,0.0,0.0,0.0,0.0,0.0,0.0,0.0,0.0,0.0,0.0,0.0,0.0,0.0,0.0,0.0,0.0,0.0,0.0,0.0,0.0,0.0,0.0,0.0,0.0,0.0,0.0,0.0,0.0,0.0,0.0,0.0,0.0,0.0,0.0,0.0,0.0,0.0,0.0,0.0,0.0,0.0,0.0,0.0,0.0,0.0,0.0,0.0,0.0,0.0,0.0,0.0,0.0,0.0,0.0,0.0,0.0,0.0,0.0,0.0,0.0,0.0,0.0,0.0,0.0,0.0,0.0,0.0,0.0,0.0,0.0,0.0,0.0,0.0,0.0,0.0,0.0,0.0,0.0,0.0,0.0,0.0,0.0,0.0,0.0,0.0,0.0,0.0,0.0,0.0,0.0,0.0,0.0,0.0,0.0,0.0,0.0,0.0,0.0,0.0,0.0,0.0,0.0,0.0,0.0,0.0,0.0,0.0,0.0,0.0,0.0,0.0,0.0,0.0,0.0,0.0,0.0,0.0,0.0,0.0,0.0,0.0,0.0,0.0,0.0,0.0,0.0,0.0,0.0,0.0,0.0,0.0,0.0,0.0,0.0,0.0,0.0,0.0,0.0,0.0,0.0,0.0,0.0,0.0,0.0,0.0,0.0,0.0,0.0,0.0,0.0,0.0,0.0,0.0,0.0,0.0,0.0,0.0,0.0,0.0,0.0,0.0,0.0,0.0,0.0,0.0,0.0,0.0,0.0,0.0,0.0,0.0,0.0,0.0,0.0,0.0,0.0,0.0,0.0,0.0,0.0,0.0,0.0,0.0,0.0,0.0,0.0,0.0,0.0,0.0,0.0,0.0,0.0,0.0,0.0,0.0,0.0,0.0,0.0,0.0,0.0,0.0,0.0,0.0,0.0,0.0,0.0,0.0,0.0,0.0,0.0,0.0,0.0,0.0,0.0,0.0,0.0,0.0,0.0,0.0,0.0,0.0,0.0,0.0,0.0,0.0,0.0,0.0,0.0,0.0,0.0,0.0,0.0,0.0,0.0,0.0,0.0,0.0,0.0,0.0,0.0,0.0,0.0,0.0,0.0,0.0,0.0,0.0,0.0,0.0,0.0,0.0,0.0,0.0,0.0,0.0,0.0,0.0,0.0,0.0,0.0,0.0,0.0,0.0,0.0,0.0,0.0,0.0,0.0,0.0,0.0,0.0,0.0,0.0,0.0,0.0,0.0,0.0,0.0,0.0,0.0,0.0,0.0,0.0,0.0,0.0,0.0,0.0,0.0,0.0,0.0,0.0,0.0,0.0,0.0,0.0,0.0,0.0,0.0,0.0,0.0,0.0,0.0,0.0,0.0,0.0,0.0,0.0,0.0,0.0,0.0,0.0,0.0,0.0,0.0,0.0,0.0,0.0,0.0,0.0,0.0,0.0,0.0,0.0,0.0,0.0,0.0,0.0,0.0,0.0,0.0,0.0,0.0,0.0,0.0,0.0,0.0,0.0,0.0,0.0,0.0,0.0,0.0,0.0,0.0,0.0,0.0,0.0,0.0,0.0,0.0,0.0,0.0,0.0,0.0,0.0,0.0,0.0,0.0,0.0,0.0,0.0,0.0,0.0,0.0,0.0,0.0,0.0,0.0,0.0,0.0,0.0,0.0,0.0,0.0,0.0,0.0,0.0,0.0,0.0,0.0,0.0,0.0,0.0,0.0,0.0,0.0,0.0,0.0,0.0,0.0,0.0,0.0,0.0,0.0,0.0,0.0,0.0,0.0,0.0,0.0,0.0,0.0,0.0,0.0,0.0,0.0,0.0,0.0,0.0,0.0,0.0,0.0,0.0,0.0,0.0,0.0,0.0,0.0,0.0,0.0,0.0,0.0,0.0,0.0,0.0,0.0,0.0,0.0,0.0,0.0,0.0,0.0,0.0,0.0,0.0,0.0,0.0,0.0,0.0,0.0,0.0,0.0,0.0,0.0,0.0,0.0,0.0,0.0,0.0,0.0,0.0,0.0,0.0,0.0,0.0,0.0,0.0,0.0,0.0,0.0,0.0,0.0,0.0,0.0,0.0,0.0,0.0,0.0,0.0,0.0,0.0,0.0,0.0,0.0,0.0,0.0,0.0,0.0,0.0,0.0,0.0,0.0,0.0,0.0,0.0,0.0,0.0,0.0,0.0,0.0,0.0,0.0,0.0,0.0,0.0,0.0,0.0,0.0,0.0,0.0,0.0,0.0,0.0,0.0,0.0,0.0,0.0,0.0,0.0,0.0,0.0,0.0,0.0,0.0,0.0,0.0,0.0,0.0,0.0,0.0,0.0,0.0,0.0,0.0,0.0,0.0,0.0,0.0,0.0,0.0,0.0,0.0,0.0,0.0,0.0,0.0,0.0,0.0,0.0,0.0,0.0,0.0,0.0,0.0,0.0,0.0,0.0,0.0,0.0,0.0,0.0,0.0,0.0,0.0,0.0,0.0,0.0,0.0,0.0,0.0,0.0,0.0,0.0,0.0,0.0,0.0,0.0,0.0,0.0,0.0,0.0,0.0,0.0,0.0,0.0,0.0,0.0,0.0,0.0,0.0,0.0,0.0,0.0,0.0,0.0,0.0,0.0,0.0,0.0,0.0,0.0,0.0,0.0,0.0,0.0,0.0,0.0,0.0,0.0,0.0,0.0,0.0,0.0,0.0,0.0,0.0,0.0,0.0,0.0,0.0,0.0,0.0,0.0,0.0,0.0,0.0,0.0,0.0,0.0,0.0,0.0,0.0,0.0,0.0,0.0,0.0,0.0,0.0,0.0,0.0,0.0,0.0,0.0,0.0,0.0,0.0,0.0,0.0,0.0,0.0,0.0,0.0,0.0,0.0,0.0,0.0,0.0,0.0,0.0,0.0,0.0,0.0,6.1289,6.1953,0.0,0.0,0.0,0.0,0.0,0.0,0.0,0.0,0.0,0.0,0.0,0.0,0.0,0.0,0.0,0.0,0.0,0.0,0.0,0.0,0.0,0.0,0.0,0.0,0.0,0.0,0.0,0.0,0.0,0.0,0.0,0.0,0.0,0.0,0.0,0.0,0.0,0.0,5.2724,5.1264,4.8973,5.1175,5.2384,5.2738,0.0,0.0,0.0,0.0,0.0,0.0,0.0,0.0,0.0,0.0,0.0,0.0,0.0,0.0,0.0,0.0,0.0,0.0,0.0,0.0,0.0,0.0,0.0,0.0,0.0,0.0,0.0,0.0,0.0,0.0,0.0,0.0,0.0,0.0,0.0,0.0,0.0,0.0,0.0,0.0,0.0,0.0,0.0,0.0,0.0,0.0,0.0,0.0,0.0,0.0,0.0,0.0,0.0,0.0,0.0,0.0,0.0,0.0,0.0,0.0,0.0,0.0,0.0,0.0,0.0,0.0,0.0,0.0,0.0,0.0,6.4101,6.2617,0.0,0.0,0.0,0.0,0.0,0.0,0.0,0.0,0.0,0.0,0.0,0.0,0.0,0.0,0.0,0.0,0.0,0.0,0.0,0.0,0.0,0.0,0.0,0.0,5.0878,5.0072,4.9873,0.0,0.0,0.0,0.0,0.0,0.0,0.0,0.0,0.0,0.0,5.3574,5.1416,5.0125,4.9652,5.0231,5.0971,5.2,5.4703,0.0,0.0,0.0,0.0,0.0,0.0,0.0,0.0,0.0,0.0,0.0,0.0,0.0,0.0,0.0,0.0,0.0,0.0,0.0,0.0,0.0,0.0,0.0,0.0,0.0,0.0,0.0,0.0,0.0,0.0,0.0,0.0,0.0,0.0,0.0,0.0,0.0,0.0,0.0,0.0,0.0,0.0,0.0,0.0,0.0,0.0,0.0,0.0,0.0,0.0,0.0,0.0,0.0,0.0,0.0,0.0,0.0,0.0,0.0,0.0,0.0,0.0,0.0,7.082,7.2187,7.414,7.3711,7.3125,7.2265,6.8867,6.5312,6.2187,6.4765,0.0,0.0,0.0,0.0,0.0,0.0,0.0,0.0,0.0,0.0,0.0,0.0,0.0,0.0,0.0,0.0,0.0,0.0,0.0,0.0,0.0,5.1105,5.1025,5.079,5.0623,5.0563,0.0,0.0,0.0,0.0,0.0,0.0,0.0,5.4484,5.4287,5.2676,4.9215,4.8611,5.0689,4.9919,5.0394,5.1885,5.1625,5.2751,5.4818,0.0,0.0,0.0,0.0,0.0,0.0,0.0,0.0,0.0,0.0,0.0,0.0,0.0,0.0,0.0,0.0,0.0,0.0,0.0,0.0,0.0,0.0,0.0,0.0,0.0,0.0,0.0,0.0,0.0,0.0,0.0,0.0,0.0,0.0,0.0,0.0,0.0,0.0,0.0,0.0,0.0,5.7682,5.7752,0.0,0.0,0.0,0.0,0.0,0.0,0.0,0.0,0.0,0.0,0.0,0.0,0.0,7.039,7.1914,7.2187,7.2461,7.2773,7.289,7.2734,7.2383,7.3789,7.4375,7.4258,7.4453,0.0,6.8125,6.7148,0.0,0.0,0.0,0.0,0.0,0.0,0.0,0.0,0.0,0.0,0.0,0.0,0.0,0.0,0.0,0.0,0.0,0.0,0.0,0.0,0.0,5.0732,5.034,5.0276,5.0618,5.0851,5.0896,0.0,0.0,0.0,0.0,5.4406,5.3937,5.4335,5.3433,5.1089,5.0753,5.0431,5.0167,5.0138,5.051,5.1202,5.0866,5.2125,5.4511,5.4511,0.0,0.0,0.0,0.0,0.0,0.0,0.0,0.0,0.0,0.0,0.0,0.0,0.0,0.0,0.0,0.0,0.0,0.0,0.0,0.0,0.0,0.0,0.0,0.0,0.0,0.0,0.0,0.0,0.0,0.0,0.0,0.0,0.0,0.0,0.0,0.0,0.0,0.0,0.0,6.0193,6.0311,5.9698,6.0843,6.2011,0.0,0.0,0.0,0.0,0.0,0.0,0.0,0.0,0.0,6.9765,7.1797,7.3008,7.3281,7.4765,7.6211,7.7617,7.8125,7.8945,8.0,8.0781,8.1406,8.1875,8.2265,8.0781,7.7734,7.3125,7.0351,6.9062,0.0,0.0,0.0,0.0,6.9844,7.039,0.0,0.0,0.0,0.0,0.0,0.0,0.0,0.0,0.0,0.0,0.0,0.0,5.1589,5.0748,5.0309,5.0708,5.1062,5.1354,5.163,5.2781,0.0,0.0,0.0,5.543,5.5,5.4765,5.3709,5.1701,5.3112,5.3028,5.16,5.1862,5.2252,5.2665,5.2251,5.2742,5.3918,5.4111,5.5134,5.6645,0.0,0.0,0.0,0.0,0.0,0.0,0.0,0.0,0.0,0.0,0.0,0.0,0.0,0.0,0.0,0.0,0.0,0.0,0.0,0.0,0.0,0.0,0.0,0.0,0.0,0.0,0.0,0.0,0.0,0.0,0.0,0.0,0.0,0.0,0.0,0.0,0.0,6.2025,6.2479,6.1383,6.2808,6.4108,0.0,0.0,0.0,0.0,0.0,0.0,7.0312,7.2031,7.3203,7.3633,7.5547,7.6484,7.6289,7.8633,8.0547,8.1992,8.332,8.4726,8.6211,8.6875,8.7539,8.8164,8.8398,8.7617,8.5703,7.8984,7.4961,7.3008,7.3242,7.3476,7.3711,7.414,7.457,7.4922,0.0,0.0,0.0,0.0,0.0,0.0,0.0,0.0,0.0,0.0,0.0,4.9831,5.2022,5.1583,5.1678,5.3117,5.2613,5.2624,5.3574,5.296,5.3375,5.5156,5.6055,5.6914,5.7695,5.6875,5.6406,5.6289,5.5287,5.5553,5.6986,5.595,5.6396,5.8054,5.6443,5.4421,5.226,5.3112,5.3668,5.4273,5.7512,0.0,0.0,0.0,0.0,0.0,0.0,0.0,0.0,0.0,0.0,0.0,0.0,0.0,0.0,0.0,0.0,0.0,0.0,0.0,0.0,0.0,0.0,0.0,0.0,0.0,0.0,0.0,0.0,0.0,0.0,0.0,0.0,0.0,0.0,0.0,0.0,0.0,0.0,6.1615,6.4556,0.0,0.0,0.0,0.0,7.1484,7.2422,7.2969,7.3086,7.4765,7.6445,7.8125,8.0625,8.2695,8.4297,8.6094,8.6211,8.4726,8.7187,8.7617,8.6289,8.8711,8.9844,8.9922,9.0742,9.0586,8.9258,8.3164,8.0117,7.9101,7.7539,7.7422,7.8086,7.7305,7.8008,7.9023,0.0,0.0,0.0,0.0,0.0,0.0,0.0,0.0,0.0,5.2148,5.2187,5.2928,5.4861,5.4264,5.4159,5.5233,5.3575,5.2668,5.3006,5.3305,5.3747,5.4414,5.6367,5.7305,5.707,5.7305,5.7148,5.6601,5.7768,5.834,5.8332,5.7851,5.8284,5.9439,5.8823,5.8098,5.7195,5.5213,5.4459,5.4721,5.597,5.768,0.0,0.0,0.0,0.0,0.0,0.0,0.0,0.0,0.0,0.0,0.0,0.0,0.0,0.0,0.0,0.0,0.0,0.0,0.0,0.0,0.0,0.0,0.0,0.0,0.0,0.0,0.0,0.0,0.0,0.0,0.0,0.0,0.0,0.0,0.0,0.0,0.0,6.8775,7.0186,0.0,7.2578,7.2226,7.2422,7.3594,7.5,7.6523,7.8164,8.0429,8.25,8.4258,8.5664,8.6719,8.7344,8.7969,8.8242,8.8203,8.8515,8.9258,9.0351,9.125,9.2304,9.3359,9.3672,9.332,9.2304,8.957,8.664,8.3789,8.2617,8.2344,8.2656,8.289,8.3008,8.3008,0.0,0.0,0.0,0.0,0.0,0.0,0.0,0.0,5.1523,5.1836,5.2617,5.3788,5.5463,5.5613,5.6034,5.7148,5.4701,5.3577,5.475,5.4021,5.4219,5.5703,5.7969,5.8633,5.75,5.918,5.9648,5.875,6.0327,6.0765,6.0216,5.9771,6.0054,6.0954,6.127,6.1638,6.1891,5.9831,5.7653,5.5648,5.6234,5.8041,6.043,0.0,0.0,0.0,0.0,0.0,0.0,0.0,0.0,0.0,0.0,0.0,0.0,0.0,0.0,0.0,0.0,0.0,0.0,0.0,0.0,0.0,0.0,0.0,0.0,0.0,0.0,0.0,0.0,0.0,0.0,0.0,0.0,0.0,0.0,6.9403,7.1793,7.4483,7.5733,7.6797,7.7969,7.7265,7.7148,7.8008,7.9414,8.1094,8.3086,8.5078,8.6836,8.8281,8.914,8.957,8.957,8.9883,9.0,9.0,9.0312,9.1211,9.2617,9.3203,9.4258,9.5625,9.5625,9.5156,9.4297,9.3711,9.1445,8.8242,8.707,8.6601,8.6679,8.7265,8.7109,8.6601,0.0,0.0,0.0,0.0,0.0,0.0,0.0,5.1406,5.1133,5.0391,5.1016,5.2184,5.3821,5.5655,5.7379,5.8941,5.5969,5.5469,5.8945,5.5117,5.4687,5.9101,6.0781,6.0937,5.9414,6.2656,6.3945,6.3125,6.3021,6.2954,6.2912,6.1928,6.2011,6.3032,6.3896,6.4827,6.5859,6.6719,6.3203,5.7226,5.8711,5.9805,6.0586,0.0,0.0,0.0,0.0,0.0,0.0,0.0,0.0,0.0,0.0,0.0,0.0,0.0,0.0,0.0,0.0,0.0,0.0,0.0,0.0,0.0,0.0,0.0,0.0,0.0,0.0,0.0,0.0,0.0,0.0,0.0,0.0,0.0,6.9288,7.3193,7.6598,7.8239,8.0812,8.25,8.25,8.3242,8.4101,8.4961,8.5859,8.6758,8.7617,8.8437,8.9297,9.0156,9.0976,9.1367,9.1367,9.2148,9.1758,9.0156,9.2656,9.3476,9.2773,9.4453,9.5703,9.6523,9.6523,9.6015,9.5195,9.5195,9.4179,9.2422,9.0742,9.0078,9.0078,9.0039,9.0,8.9726,0.0,0.0,0.0,0.0,0.0,0.0,0.0,5.1406,5.1562,5.1953,5.3867,5.6054,5.8356,5.9609,6.0976,6.2653,5.7421,5.5195,5.8086,5.4765,5.5195,6.0781,6.0273,6.1133,6.3789,6.4765,6.543,6.582,6.6404,6.6402,6.5777,6.5496,6.6162,6.7652,6.7847,6.8787,7.0312,7.1172,7.0078,6.7422,6.3515,6.2109,6.2226,0.0,0.0,0.0,0.0,0.0,0.0,0.0,0.0,0.0,0.0,0.0,0.0,0.0,0.0,0.0,0.0,0.0,0.0,0.0,0.0,0.0,0.0,0.0,0.0,0.0,0.0,0.0,0.0,0.0,0.0,0.0,7.1055,7.2187,7.3004,7.6327,7.9765,8.2692,8.5351,8.6953,8.6953,8.7148,8.7383,8.7656,8.9062,9.0273,9.1133,9.2617,9.3515,9.375,9.3398,9.3203,9.3203,9.2187,9.2031,9.2812,9.2929,9.3828,9.5429,9.5937,9.6601,9.7383,9.7383,9.6523,9.5195,9.5195,9.4179,9.2539,9.207,9.1875,9.1797,9.1172,9.0156,8.8828,0.0,0.0,0.0,0.0,0.0,0.0,0.0,5.1406,5.1445,5.1641,5.4531,5.7031,5.8125,6.0,6.1289,6.1601,5.7574,5.5815,5.7773,5.7344,5.8594,6.2109,6.2695,6.3984,6.6094,6.7539,6.8203,6.8008,6.8476,6.8437,6.7969,6.7969,6.8906,7.0586,7.1289,7.2344,7.3672,7.457,7.4648,7.3828,6.9961,6.7969,6.7187,6.5937,6.6562,6.789,6.668,6.707,6.789,6.6015,0.0,0.0,0.0,0.0,0.0,0.0,0.0,0.0,0.0,0.0,0.0,0.0,0.0,0.0,0.0,0.0,0.0,0.0,0.0,0.0,0.0,0.0,0.0,0.0,7.3931,7.6163,7.8554,8.0312,8.289,8.707,8.8906,9.0078,9.082,9.0898,9.0898,9.0898,9.2148,9.3164,9.3672,9.4648,9.5195,9.5195,9.4726,9.4453,9.4453,9.3437,9.3437,9.4453,9.4297,9.5039,9.6523,9.6836,9.7265,9.7695,9.7695,9.6758,9.5195,9.5195,9.4179,9.2617,0.0,0.0,0.0,0.0,9.0195,8.8554,0.0,0.0,0.0,0.0,0.0,0.0,0.0,5.125,5.1016,5.0273,5.3867,5.6094,5.5117,5.7968,5.9374,5.8007,5.6686,5.6521,5.7928,6.1132,6.3203,6.3711,6.6797,6.8203,6.7617,7.0703,7.1562,7.0078,7.0039,6.9961,6.996,7.0156,7.1054,7.2574,7.4256,7.5466,7.6323,7.73,7.7691,7.7651,7.699,7.5429,7.3281,7.1601,7.1875,7.293,7.1289,6.9922,6.875,6.7695,0.0,0.0,0.0,0.0,0.0,0.0,0.0,0.0,0.0,0.0,0.0,0.0,0.0,0.0,0.0,0.0,0.0,0.0,0.0,0.0,0.0,0.0,0.0,0.0,7.7128,8.0275,8.4726,8.4765,8.6054,9.0742,9.1484,9.2187,9.375,9.3984,9.4062,9.4062,9.4844,9.5351,9.5351,9.5429,0.0,0.0,0.0,9.5351,9.5351,9.5234,9.5234,9.5351,9.6133,9.6562,9.664,9.7383,9.7656,9.7578,9.7578,9.6601,9.5039,9.5039,9.4062,9.2578,9.25,9.2383,9.2187,9.1328,8.9961,8.8554,0.0,0.0,0.0,0.0,0.0,0.0,0.0,5.043,5.0391,5.0234,5.332,5.4961,5.3359,5.5577,5.7317,5.7699,5.4901,5.4691,5.8478,6.1295,6.4477,6.8086,6.9492,7.0781,7.2031,7.3398,7.3945,7.3594,7.3594,7.351,7.3351,7.4253,7.5052,7.578,7.6903,7.7827,7.8579,8.0176,8.0832,8.0883,8.159,7.8846,7.4258,7.3203,7.2578,7.2109,7.1055,7.1836,7.3008,7.0742,7.0547,7.0937,6.8828,6.7461,0.0,0.0,0.0,0.0,0.0,0.0,0.0,0.0,0.0,0.0,0.0,0.0,0.0,0.0,0.0,0.0,0.0,0.0,0.0,7.9252,8.1287,8.3826,8.7461,8.8437,8.9375,9.1094,9.2539,9.3515,9.3867,9.4531,9.4961,9.4961,9.5742,9.625,9.625,9.6875,9.7226,9.7226,9.6601,9.625,9.625,9.5547,9.5547,9.625,9.6406,0.0,9.7461,9.7617,9.7344,9.6719,9.6719,9.5742,9.414,9.414,9.3554,9.2539,9.1836,9.1133,9.039,8.9531,8.8594,8.7734,0.0,0.0,0.0,0.0,0.0,0.0,0.0,4.9531,4.9531,4.9531,5.1758,5.3164,5.2734,5.4126,5.5114,5.5106,5.4164,5.5797,6.0927,6.3838,6.7107,7.1073,7.2909,7.4002,7.4433,7.6038,7.6014,7.43,7.5155,7.5556,7.5452,7.5989,7.7043,7.852,7.904,7.9695,8.0505,8.1781,8.2365,8.2419,8.3537,8.1936,7.8807,7.7615,7.6601,7.5742,7.4883,7.4883,7.4961,7.3242,7.2344,7.1758,7.0469,6.9492,6.8906,0.0,0.0,0.0,0.0,0.0,0.0,0.0,0.0,0.0,0.0,0.0,0.0,0.0,0.0,7.2863,7.408,0.0,7.9668,8.2363,8.4241,8.6434,8.957,9.039,9.1133,9.2461,9.2969,9.3594,9.4453,9.4922,9.539,9.582,9.664,9.7109,9.7109,9.7461,9.7695,9.7695,9.7304,9.7109,9.7109,9.6679,9.6679,9.7109,9.7109,9.7304,9.7695,9.7265,9.6875,9.6484,9.6054,9.5117,9.3867,9.3437,9.2461,9.125,9.082,9.039,8.9844,8.8554,8.7851,8.7422,0.0,0.0,0.0,0.0,0.0,0.0,0.0,0.0,4.8633,4.8633,5.0117,5.125,5.1445,5.2405,5.2874,5.2451,5.4046,5.755,6.3476,6.6483,6.9731,7.3519,7.6015,7.6917,7.6063,7.8046,7.7579,7.4505,7.6062,7.6817,7.6816,7.698,7.824,8.03,8.0655,8.12,8.1902,8.2932,8.3359,8.3465,8.4416,8.4332,8.3566,8.2062,8.0976,8.0117,7.9453,7.7812,7.5859,7.5664,7.3633,7.125,7.1601,7.1601,7.1445,7.1445,7.2226,0.0,0.0,0.0,0.0,0.0,0.0,0.0,0.0,7.164,7.2576,7.2742,7.4125,7.5804,7.7443,7.9808,8.2159,8.4296,8.6207,8.8253,9.0702,9.1172,9.1875,9.3476,9.3164,9.3476,9.5039,9.5351,9.582,9.6679,9.7344,9.7695,9.7695,9.7695,9.7695,9.7695,9.7695,9.7695,9.7695,9.7695,9.7695,9.7695,9.7695,9.7695,9.7656,9.6875,9.6406,9.6172,9.4961,9.4023,9.332,9.2461,9.1367,9.0195,8.9726,8.9492,8.9336,8.7812,8.7148,8.6875,0.0,0.0,0.0,0.0,0.0,0.0,0.0,0.0,0.0,4.7734,4.9258,4.9492,4.7266,4.9047,5.0874,5.2026,5.428,5.8221,6.4346,6.7161,7.0882,7.5967,7.7881,7.8472,7.7577,7.8567,7.8163,7.631,7.7236,7.7607,7.75,7.8401,7.9194,7.9933,8.1606,8.2303,8.2347,8.3988,8.4682,8.4719,8.5224,8.5323,8.5096,8.3808,8.2773,8.1992,8.1914,7.9297,7.6211,7.8398,7.6406,7.3281,7.4844,7.4805,7.414,7.414,7.3203,7.2305,7.2969,7.1445,6.9765,7.039,7.0625,7.0703,0.0,7.2578,7.3906,7.2421,7.5136,7.7695,7.7337,8.1063,8.433,8.4802,8.6913,8.8906,9.0,9.082,9.164,9.2617,9.3359,9.414,9.5117,9.5898,9.6679,9.75,9.7656,9.7695,9.7695,9.7695,9.7695,9.7695,9.7695,9.7695,9.7695,9.7695,9.7695,9.7695,9.7695,9.7695,9.7656,9.6875,9.6094,9.5195,9.2773,9.1679,9.1523,9.0664,9.0625,9.0937,8.8672,8.7773,8.7656,8.6719,8.5859,8.5195,0.0,0.0,0.0,0.0,0.0,0.0,0.0,0.0,0.0,0.0,4.7419,4.7695,4.7109,4.8811,5.0587,5.1964,5.3967,5.7641,6.3566,6.6922,7.1232,7.6924,7.8282,7.8748,7.8409,7.863,7.7918,7.6254,7.757,7.8193,7.8141,7.9056,7.9893,8.0592,8.189,8.2361,8.2401,8.417,8.4901,8.4911,8.5214,8.5088,8.4576,8.3206,8.1228,7.9283,8.039,7.9648,0.0,7.7617,7.664,7.5625,7.582,7.5664,7.5351,7.5351,7.4492,7.3047,7.0898,7.1015,7.1445,7.0234,7.2226,7.4336,7.3828,7.5351,7.664,7.5937,7.7535,7.9445,8.0703,8.3043,8.5149,8.6211,8.7695,8.8984,8.9883,8.9883,8.9922,9.0273,9.1562,9.3125,9.5039,9.5976,9.6836,9.7656,9.7695,9.7695,9.7695,9.7695,9.7695,9.7695,9.7695,9.7695,9.7695,9.7695,9.7695,9.7695,9.7226,9.6992,9.6953,9.5586,9.3945,9.2109,9.1015,9.0,8.9101,8.9219,8.8867,8.8242,8.7148,8.6133,8.5195,8.4804,8.4765,8.4804,0.0,0.0,0.0,0.0,0.0,0.0,0.0,0.0,0.0,0.0,4.6196,4.6678,4.7812,4.8966,5.0322,5.1994,5.3731,5.6955,6.2255,6.5964,7.0374,7.5883,7.7341,7.8037,7.8037,7.8329,7.7784,7.6361,7.7784,7.8631,7.8861,7.9515,8.0285,8.1131,8.1939,8.2285,8.2401,8.3901,8.4555,8.4549,8.4765,8.4139,8.2889,8.1154,7.8846,7.6724,7.8617,7.8194,7.6624,7.5956,7.5683,7.5646,7.5773,7.5972,7.6129,7.5937,7.5117,7.3555,7.0469,7.125,7.2656,7.1484,7.4023,7.6875,7.6914,7.8125,7.9258,7.9492,8.0195,8.1289,8.2929,8.414,8.5234,8.625,8.7109,8.7969,8.8828,8.8398,8.8008,8.8008,8.9531,9.125,9.289,9.5156,9.6758,9.7344,9.7383,9.7383,9.7383,9.7383,9.7383,9.7383,9.7578,9.7695,9.7695,9.7461,9.7383,9.7344,9.6523,9.6133,9.6094,9.4294,9.2143,8.9915,8.9592,8.8648,8.7321,8.7672,8.7086,8.5956,8.5577,8.4598,8.3415,8.3232,8.3548,8.3974,0.0,0.0,0.0,0.0,0.0,0.0,0.0,0.0,0.0,0.0,0.0,0.0,0.0,4.8771,4.9682,5.2101,5.3765,5.6462,6.0612,6.4063,6.7885,7.2195,7.476,7.6068,7.6068,7.7684,7.8092,7.7246,7.8092,7.8938,7.9746,7.9785,8.0285,8.1131,8.1939,8.2285,8.2362,8.3247,8.3632,8.3679,8.3837,8.2437,7.9974,7.7649,7.6222,7.5702,7.7571,7.4377,6.985,7.3938,7.3691,7.2114,7.4792,7.6191,7.6753,7.6091,7.4687,7.332,7.3164,7.2617,7.2617,7.5078,7.582,7.6562,7.9023,8.0273,8.1172,8.1992,8.289,8.3242,8.2461,8.375,8.4648,8.3867,8.4453,8.5312,8.6172,8.6289,8.6289,8.6289,8.7773,8.8515,8.7812,9.3047,9.6523,9.6523,9.6523,9.6523,9.6523,9.6523,9.6523,9.6523,9.7304,9.7695,9.7695,9.6914,9.6523,9.6523,9.5664,9.5234,9.5156,9.3246,9.1371,8.9645,8.8605,8.7666,8.6771,8.5954,8.5572,8.5368,8.3947,8.3254,8.2939,8.2309,8.2074,8.2074,0.0,0.0,0.0,0.0,0.0,0.0,0.0,0.0,0.0,0.0,0.0,0.0,0.0,0.0,0.0,0.0,5.2475,5.456,5.8044,6.0396,6.3551,6.7821,6.936,7.0629,7.1783,7.2899,7.3591,7.3899,7.5284,7.613,7.6438,7.7592,7.8592,7.9438,8.0862,8.1785,8.2324,8.2593,8.2093,8.0954,7.9331,7.7562,7.5728,7.3771,7.1797,7.0316,0.0,7.221,7.1433,7.1148,7.1293,7.1681,7.2073,7.3288,7.4487,7.4257,7.418,7.3906,7.2734,7.4726,7.7187,7.7539,7.9336,8.1211,8.2109,8.25,8.2461,8.1601,8.0781,7.9961,7.9062,7.9883,8.0742,8.0976,8.2695,8.4336,8.5195,8.4844,8.4258,8.3672,8.5117,8.5779,8.4814,8.9252,9.2656,9.3828,9.3906,9.4414,9.5586,9.5625,9.5625,9.5625,9.5726,9.5784,9.5784,9.5368,9.5165,9.5165,9.4301,9.3647,9.3123,9.1214,8.9377,8.778,8.7394,8.6124,8.4303,8.4529,8.4334,8.3727,8.2656,8.2214,8.2124,8.1877,8.1734,8.1609,0.0,0.0,0.0,0.0,0.0,0.0,0.0,0.0,0.0,0.0,0.0,0.0,0.0,0.0,0.0,0.0,0.0,5.3242,5.5514,5.7203,5.9781,6.3435,6.4705,6.6128,6.7859,6.8706,6.9667,7.0821,7.1321,7.2014,7.2937,7.3745,7.4553,7.5438,7.713,7.8207,7.8669,7.8669,7.84,7.7746,7.5207,7.3433,7.2109,7.0087,6.8088,0.0,6.7325,6.8985,7.0568,6.9259,6.9596,7.0525,7.0146,7.0917,7.207,7.2656,7.3437,7.414,7.4297,7.7187,8.0195,8.0312,8.1953,8.3594,8.3594,8.289,8.1719,8.0,7.8555,7.7226,7.6015,7.6015,7.6562,7.7695,7.9023,8.0507,8.2218,8.2256,8.1976,8.1644,8.2891,8.3377,8.2367,8.5165,8.8175,9.0888,9.1397,9.2066,9.3281,9.3551,9.3818,9.4129,9.4172,9.4379,9.4685,9.4263,9.3878,9.3566,9.3013,9.2347,9.1559,8.996,8.8439,8.7079,8.6394,8.5031,8.3208,8.3441,8.3053,8.2259,8.1767,8.1543,8.1473,8.1572,8.1469,8.1285,0.0,0.0,0.0,0.0,0.0,0.0,0.0,0.0,0.0,0.0,0.0,0.0,0.0,0.0,0.0,0.0,0.0,0.0,5.3079,5.4626,5.6588,5.9088,6.0781,6.2512,6.4166,6.5089,6.6385,6.8025,6.6487,6.6949,6.9333,6.855,6.8666,6.9629,7.1308,7.2077,7.2129,7.2091,7.2937,7.4091,7.1591,7.0052,6.9052,6.6667,6.5243,6.4436,6.3705,6.4974,6.7179,6.8214,6.8549,6.8614,6.8973,6.9239,6.9765,7.1562,7.2734,7.4258,7.7695,7.9883,8.1601,8.3242,8.3594,8.3515,8.3476,8.1406,7.9023,7.7383,7.6211,7.5,7.3359,7.2344,7.2383,7.4258,7.3945,7.4603,7.7859,7.9014,7.9749,8.0333,8.1174,8.1369,8.045,8.1158,8.3467,8.7794,8.8978,8.9642,8.9959,9.0585,9.1276,9.2091,9.2728,9.348,9.4327,9.3531,9.2675,9.1897,9.181,9.1382,9.0535,8.9442,8.8404,8.7462,8.5653,8.4362,8.3401,8.2631,8.1823,8.1139,8.1298,8.1271,8.11,8.1311,8.1258,8.1116,0.0,0.0,0.0,0.0,0.0,0.0,0.0,0.0,0.0,0.0,0.0,0.0,0.0,0.0,0.0,0.0,0.0,0.0,5.2194,5.2615,5.3472,5.4741,5.5857,5.7203,5.8907,6.0396,6.1825,6.3169,6.3399,6.3872,6.4523,6.5188,6.6315,6.7808,6.9221,7.0324,7.1206,7.0591,6.9821,6.8859,6.6974,6.532,6.4012,6.3974,6.382,6.3782,6.4859,6.5628,6.6371,6.7364,6.7876,6.7993,6.7598,6.7967,6.9101,7.2109,7.4492,7.6797,7.9609,8.2109,8.4023,8.4453,8.3594,8.2461,8.1797,7.918,7.6562,7.5469,7.2539,7.0039,6.957,6.9336,7.0156,7.3164,7.4946,7.7173,8.0548,8.1087,8.0953,8.0474,8.1174,8.1303,8.0288,8.0976,8.2221,8.3961,8.5618,8.7436,8.9469,8.9703,9.0181,9.0991,9.1043,9.1432,9.2273,9.1895,9.1663,9.1602,9.0798,9.0387,9.0322,8.8572,8.7002,8.5599,8.5103,8.3708,8.1785,8.2131,8.1823,8.1108,8.1176,8.1146,8.1108,8.1176,8.1146,8.1108,0.0,0.0,0.0,0.0,0.0,0.0,0.0,0.0,0.0,0.0,0.0,0.0,0.0,0.0,0.0,0.0,0.0,0.0,0.0,5.1356,5.1741,5.2577,5.3087,5.3972,5.528,5.6242,5.7624,5.946,5.8834,5.9294,6.0763,6.0671,6.1587,6.3308,6.474,6.5995,6.7013,6.6551,6.6205,0.0,0.0,6.282,6.2666,6.3128,6.3308,6.3538,6.5282,6.577,6.5693,6.6644,6.7164,6.7599,6.8319,6.9414,7.1133,7.457,7.6601,7.8398,8.1367,8.3203,8.4258,8.3867,8.2461,8.0859,7.9609,7.664,7.3828,7.2578,6.9805,6.7383,6.664,6.6129,6.7057,7.0842,7.2846,7.5513,7.9959,8.1131,8.1465,8.127,8.1995,8.2015,8.0653,8.1644,8.2378,8.2455,8.3901,8.5631,8.7595,8.7973,8.8691,8.9846,8.9694,9.0155,9.1376,9.1253,9.106,9.0797,8.9828,8.9266,8.8958,8.7131,8.5786,8.4863,8.4093,8.2939,8.1593,8.1323,8.117,8.1054,8.0669,8.0746,8.1093,8.1093,8.1093,8.1093,0.0,0.0,0.0,0.0,0.0,0.0,0.0,0.0,0.0,0.0,0.0,0.0,0.0,0.0,0.0,0.0,0.0,0.0,0.0,0.0,0.0,5.1692,5.1731,5.2192,5.3164,5.3087,5.4259,5.6736,5.4419,5.4869,5.7839,5.6372,5.6587,5.8204,5.9811,6.0976,6.1755,6.187,6.2781,6.3897,6.1704,6.1666,6.2974,0.0,0.0,6.3358,6.4974,6.5267,6.5096,6.6076,6.6681,6.75,6.9922,7.1992,7.414,7.7656,7.875,7.9531,8.2851,8.3672,8.3359,8.2383,8.0664,7.8711,7.6913,7.3711,7.0703,6.9179,6.7461,6.5781,6.4375,6.3417,6.4265,6.8738,7.0012,7.2526,7.8325,8.0459,8.1605,8.2086,8.2978,8.2939,8.1246,8.2516,8.3093,8.2362,8.3164,8.415,8.5185,8.5906,8.71,8.8919,8.9022,8.971,9.121,9.121,9.071,8.9748,8.8902,8.8017,8.7017,8.544,8.467,8.4478,8.2978,8.2247,8.2016,8.0439,8.0323,8.1016,8.0131,8.0323,8.1093,8.1093,8.1093,8.1093,0.0,0.0,0.0,0.0,0.0,0.0,0.0,0.0,0.0,0.0,0.0,0.0,0.0,0.0,0.0,0.0,0.0,0.0,0.0,0.0,0.0,0.0,5.0894,5.1625,5.3164,5.25,5.319,5.5428,5.4269,5.4384,5.5657,5.5683,5.6248,5.728,5.8566,5.9447,6.0012,6.0704,6.1204,6.1435,6.0973,6.0973,6.132,0.0,0.0,0.0,6.3397,6.3874,6.4273,6.5848,6.7113,6.8281,7.0117,7.2383,7.5039,7.8476,8.0,8.1172,8.3945,8.414,8.3203,8.1601,7.8867,7.5897,7.3334,6.9601,6.66,6.6182,6.4249,6.2734,6.3164,6.299,6.4662,7.0341,7.1668,7.4108,8.0117,8.1617,8.1939,8.1377,8.267,8.2939,8.1246,8.1939,8.2439,8.2324,8.2479,8.2963,8.3886,8.4697,8.6284,8.8672,9.0052,9.0902,9.121,9.121,9.0441,8.8902,8.8017,8.6824,8.5286,8.4286,8.3439,8.2747,8.2439,8.19,8.1246,8.0208,8.0323,8.1016,8.0131,8.0323,8.1093,8.1093,8.1093,8.1093,0.0,0.0,0.0,0.0,0.0,0.0,0.0,0.0,0.0,0.0,0.0,0.0,0.0,0.0,0.0,0.0,0.0,0.0,0.0,0.0,0.0,0.0,0.0,0.0,5.1895,5.1895,5.286,5.4798,0.0,5.4836,5.6062,5.581,5.618,5.7049,5.8078,5.8896,5.955,6.0435,6.0781,6.0781,6.0781,6.0781,6.0896,0.0,0.0,0.0,0.0,6.3166,6.3356,6.5561,6.6761,6.7996,7.1601,7.4805,7.7734,8.0312,8.1367,8.2031,8.375,8.3242,8.1719,7.957,7.6094,7.2576,7.0275,6.6844,6.4236,6.4637,6.3377,6.2332,6.2793,6.2703,6.3917,6.8111,6.9276,7.1914,7.8374,7.9534,8.0208,8.1554,8.2824,8.2939,8.1246,8.2247,8.2593,8.1747,8.2054,8.267,8.3555,8.5247,8.6748,8.7979,9.0094,9.0979,9.0517,9.0517,8.9671,8.8017,8.6709,8.544,8.417,8.2901,8.2285,8.2285,8.1862,8.1208,8.0362,7.9477,7.9631,8.0323,7.9477,7.9939,8.1061,8.0716,8.0591,8.0591,0.0,0.0,0.0,0.0,0.0,0.0,0.0,0.0,0.0,0.0,0.0,0.0,0.0,0.0,0.0,0.0,0.0,0.0,0.0,0.0,0.0,0.0,0.0,0.0,5.0933,0.0,0.0,5.4511,5.4511,0.0,0.0,0.0,0.0,0.0,5.7627,5.8357,5.9011,5.9896,6.0242,0.0,0.0,6.0512,6.0627,0.0,0.0,0.0,0.0,6.2667,6.2895,6.4945,6.6056,6.7319,7.1787,7.5663,7.8945,8.0703,8.1445,8.1914,8.2812,8.2031,8.0312,7.7383,7.3476,6.9837,6.7751,6.4645,6.245,6.3288,6.2834,6.2341,6.2477,6.2212,6.2924,6.5654,6.6514,6.9167,7.5822,7.7053,7.84,8.14,8.2862,8.2939,8.1246,8.2439,8.2708,8.1208,8.1708,8.2516,8.3516,8.567,8.7017,8.7401,8.9517,9.0325,8.9671,8.9633,8.8709,8.6863,8.5517,8.4247,8.3016,8.1708,8.1439,8.2016,8.117,8.0554,7.9977,7.8746,7.8977,7.9977,7.89,7.9554,8.1007,8.0352,8.0125,8.0125,0.0,0.0,0.0,0.0,0.0,0.0,0.0,0.0,0.0,0.0,0.0,0.0,0.0,0.0,0.0,0.0,0.0,0.0,0.0,0.0,0.0,0.0,0.0,0.0,0.0,0.0,0.0,5.4511,5.4511,0.0,0.0,0.0,0.0,0.0,0.0,5.7176,5.7291,5.8165,0.0,0.0,0.0,0.0,0.0,0.0,0.0,0.0,0.0,6.2099,6.3523,6.3744,6.5001,6.6663,6.8057,7.1511,7.539,7.7148,7.875,8.0117,8.1015,8.1133,8.0,7.5859,7.206,6.8655,6.5966,6.2691,6.0466,6.1143,6.1349,6.1406,6.1423,6.1274,6.2198,6.5548,6.6052,6.809,7.4091,7.6284,7.7977,7.9823,8.2131,8.2939,8.1246,8.19,8.2054,8.117,8.117,8.19,8.3516,8.4555,8.5824,8.7363,8.8402,8.8902,8.8786,8.8786,8.7555,8.5132,8.4978,8.367,8.1323,8.117,8.1131,8.117,8.0285,8.0323,8.0785,7.84,7.8823,8.0823,7.9131,7.9554,8.1007,8.0352,8.0125,8.0125,0.0,0.0,0.0,0.0,0.0,0.0,0.0,0.0,0.0,0.0,0.0,0.0,0.0,0.0,0.0,0.0,0.0,0.0,0.0,0.0,0.0,0.0,0.0,0.0,0.0,0.0,5.328,5.4511,5.4972,0.0,0.0,0.0,0.0,0.0,0.0,5.6983,5.706,5.7934,0.0,0.0,0.0,0.0,0.0,0.0,0.0,0.0,0.0,0.0,6.1895,6.1906,6.2568,6.3414,6.3784,6.5975,6.9258,7.3594,7.6445,7.8398,7.9258,7.9492,7.8594,7.4765,7.0691,6.7039,6.481,6.2073,6.019,6.0854,6.1073,6.1128,6.1128,6.0982,6.1345,6.2695,6.2402,6.3782,6.8706,7.0014,7.2206,7.6938,7.8861,8.0131,8.1016,8.14,8.1439,8.1131,8.1093,8.1823,8.3516,8.4439,8.544,8.6594,8.7979,8.844,8.7902,8.7401,8.6363,8.4901,8.3824,8.2554,8.1093,8.1093,8.1093,8.1054,8.0169,7.9708,7.94,7.79,7.8169,7.9477,7.8746,7.9319,8.0427,7.9806,7.9335,7.9058,0.0,0.0,0.0,0.0,0.0,0.0,0.0,0.0,0.0,0.0,0.0,0.0,0.0,0.0,0.0,0.0,0.0,0.0,0.0,0.0,0.0,0.0,0.0,0.0,0.0,0.0,5.351,5.4126,5.5164,5.5703,0.0,0.0,5.5703,5.5742,0.0,0.0,0.0,0.0,0.0,0.0,0.0,0.0,0.0,0.0,0.0,0.0,0.0,0.0,0.0,0.0,0.0,6.0916,6.1194,6.2297,6.4527,6.9843,7.3242,7.5469,7.6328,7.6562,7.5781,7.2536,6.8718,6.5351,6.3728,6.157,6.0141,6.0788,6.0952,6.0979,6.0944,6.085,6.0781,6.0781,6.0281,6.1204,6.4974,6.5743,6.7936,7.3476,7.4899,7.6399,7.8977,8.0131,8.0708,8.0708,8.0939,8.1708,8.3131,8.3785,8.4632,8.5709,8.6671,8.6901,8.6286,8.567,8.4939,8.4132,8.2901,8.1862,8.1093,8.0823,8.0708,8.0669,7.9554,7.8861,7.84,7.7361,7.7669,7.8846,7.8375,7.9006,7.9989,7.9221,7.8653,7.8352,0.0,0.0,0.0,0.0,0.0,0.0,0.0,0.0,0.0,0.0,0.0,0.0,0.0,0.0,0.0,0.0,0.0,0.0,0.0,0.0,0.0,0.0,0.0,0.0,0.0,0.0,0.0,5.3203,5.4895,5.5703,5.5703,5.5703,5.5703,5.5703,0.0,0.0,0.0,0.0,0.0,0.0,0.0,0.0,0.0,0.0,0.0,0.0,0.0,0.0,0.0,0.0,0.0,0.0,0.0,6.1422,6.2262,6.5896,6.8789,7.0976,7.1836,7.207,7.1405,6.8635,6.594,6.3624,6.2555,6.1014,5.9976,6.0657,6.0905,6.0963,6.085,6.0781,6.0781,6.0781,6.0781,6.1666,6.4243,6.5359,6.6859,6.9475,7.0475,7.1975,7.4514,7.7823,7.9823,7.9823,8.0631,8.1477,8.2285,8.2324,8.3131,8.4863,8.4093,8.3632,8.3632,8.3632,8.317,8.2324,8.2324,8.1862,8.1054,8.0208,7.9823,7.9708,7.8054,7.7746,7.8361,7.6707,7.7515,7.9623,7.8173,7.8618,7.9949,7.8754,7.8309,7.8309,0.0,0.0,0.0,0.0,0.0,0.0,0.0,0.0,0.0,0.0,0.0,0.0,0.0,0.0,0.0,0.0,0.0,0.0,0.0,0.0,0.0,0.0,0.0,0.0,0.0,0.0,0.0,0.0,0.0,5.5703,5.5703,5.5703,5.5703,5.5665,5.5126,5.4895,0.0,0.0,0.0,0.0,0.0,0.0,0.0,0.0,0.0,0.0,0.0,0.0,0.0,0.0,0.0,0.0,0.0,0.0,0.0,6.3517,6.5948,6.8281,6.918,6.972,6.9581,6.7529,6.5322,6.3487,6.2684,6.1641,6.0847,6.0934,6.1073,6.1105,6.0834,6.0781,6.0781,6.0781,6.0781,6.1089,6.1897,6.3743,6.5974,6.8513,7.2629,7.5822,7.7169,7.8823,8.0054,8.0631,8.0939,8.1439,8.2247,8.1785,8.2247,8.3939,8.3747,8.3593,8.3593,8.3016,8.2554,8.2285,8.1747,8.1016,8.0208,7.9939,7.9477,7.8861,7.7784,7.7438,7.7592,7.6476,7.6923,7.8229,7.776,7.8116,7.8829,7.8432,7.8016,7.768,0.0,0.0,0.0,0.0,0.0,0.0,0.0,0.0,0.0,0.0,0.0,0.0,0.0,0.0,0.0,0.0,0.0,0.0,0.0,0.0,0.0,0.0,0.0,0.0,0.0,0.0,0.0,0.0,0.0,0.0,0.0,0.0,5.5549,5.5241,5.4703,5.4227,0.0,0.0,0.0,0.0,0.0,0.0,0.0,0.0,0.0,0.0,0.0,0.0,0.0,0.0,0.0,0.0,0.0,0.0,0.0,0.0,6.3362,6.5045,6.6219,6.6619,6.6451,6.527,6.3786,6.2513,6.205,6.1531,6.1135,6.0954,6.1048,6.1097,6.0834,6.0781,6.0781,6.0781,6.0781,6.0781,6.0781,6.2704,6.4936,6.7205,7.186,7.5207,7.6015,7.8054,7.9669,8.0554,8.09,8.1323,8.1823,8.1362,8.1593,8.2631,8.267,8.267,8.267,8.2131,8.1862,8.1823,8.1016,8.0323,7.9785,7.8823,7.8246,7.7977,7.6515,7.6245,0.0,7.5656,7.5965,7.7132,7.7,7.7321,7.7835,7.7905,7.7651,7.7365,0.0,0.0,0.0,0.0,0.0,0.0,0.0,0.0,0.0,0.0,0.0,0.0,0.0,0.0,0.0,0.0,0.0,0.0,0.0,0.0,0.0,0.0,0.0,0.0,0.0,0.0,0.0,0.0,5.4087,5.4895,5.5703,0.0,0.0,0.0,5.4434,5.3667,0.0,0.0,0.0,0.0,0.0,0.0,0.0,0.0,0.0,0.0,0.0,0.0,0.0,0.0,0.0,0.0,0.0,0.0,0.0,0.0,0.0,0.0,0.0,6.3067,6.2452,6.2236,6.1578,6.0963,6.0834,6.0905,0.0,6.0834,6.0915,6.0925,6.0723,6.0704,6.0704,6.0627,6.0666,6.0704,6.0627,6.2204,6.4051,6.5782,6.9052,7.1475,7.2206,7.6092,7.8938,7.9823,8.0631,8.1054,8.1016,8.1054,8.1054,8.1016,8.1016,8.1016,8.1016,8.1016,8.0977,8.09,8.0092,7.9669,7.9438,7.7092,7.6361,7.6899,7.4514,7.4399,7.5716,7.4444,7.4844,7.6199,7.5842,7.6271,7.7057,7.7098,7.72,7.7273,0.0,0.0,0.0,0.0,0.0,0.0,0.0,0.0,0.0,0.0,0.0,0.0,0.0,0.0,0.0,0.0,0.0,0.0,0.0,0.0,0.0,0.0,0.0,0.0,0.0,0.0,0.0,5.3203,5.4087,5.4895,5.5703,5.5703,0.0,0.0,0.0,0.0,0.0,0.0,0.0,0.0,0.0,0.0,0.0,0.0,0.0,0.0,5.82,5.8104,0.0,0.0,0.0,0.0,0.0,0.0,0.0,0.0,6.0479,0.0,6.1447,0.0,6.1344,6.1333,6.1051,6.085,0.0,6.0961,6.0988,6.0963,6.0961,6.077,5.9953,5.9819,5.9588,5.8973,5.9396,5.9588,5.8973,6.2012,6.4936,6.6628,7.0937,7.3668,7.3245,7.7015,7.9862,8.0746,8.0977,8.0823,8.0131,8.0746,8.0785,8.0131,8.0131,8.0131,8.0131,8.0131,7.9785,7.9092,7.89,7.813,7.6861,7.6284,7.5399,7.4361,7.3783,7.3745,7.4101,7.3947,7.4201,7.4719,7.4847,7.5503,7.6251,7.5676,7.6209,7.72,0.0,0.0,0.0,0.0,0.0,0.0,0.0,0.0,0.0,0.0,0.0,0.0,0.0,0.0,0.0,0.0,0.0,0.0,0.0,0.0,0.0,0.0,0.0,0.0,0.0,0.0,0.0,0.0,0.0,5.4318,0.0,0.0,0.0,0.0,0.0,0.0,0.0,0.0,0.0,0.0,0.0,0.0,0.0,0.0,0.0,0.0,5.7293,5.7298,0.0,5.713,5.7389,5.7665,0.0,0.0,0.0,0.0,5.9892,0.0,6.0211,6.0558,6.0828,6.0403,6.025,6.0134,5.9832,6.0055,6.021,5.9823,6.0055,6.0053,5.9122,5.8627,5.8357,5.8319,5.8319,5.8742,5.9896,6.232,6.5089,6.7936,7.1398,7.386,7.4591,7.74,7.94,7.9862,7.99,7.9708,7.9246,7.9631,7.9669,7.9208,7.8861,7.9015,7.9785,7.94,7.8977,7.8477,7.7707,7.6861,7.5976,7.4784,7.3976,7.3476,7.2668,7.2606,7.3061,7.2563,7.27,7.3307,7.3532,7.4162,7.5028,7.5359,7.6019,7.668,0.0,0.0,0.0,0.0,0.0,0.0,0.0,0.0,0.0,0.0,0.0,0.0,0.0,0.0,0.0,0.0,0.0,0.0,0.0,0.0,0.0,0.0,0.0,0.0,0.0,0.0,0.0,0.0,0.0,0.0,0.0,0.0,0.0,0.0,0.0,0.0,0.0,0.0,0.0,0.0,0.0,0.0,0.0,0.0,0.0,0.0,0.0,0.0,0.0,5.6522,5.6894,5.7255,5.7175,0.0,0.0,0.0,0.0,0.0,5.9319,5.9742,6.005,5.9473,5.9319,5.9127,5.8473,5.8819,5.9127,5.8434,5.8858,5.905,5.8088,5.7396,5.7214,5.7819,5.7588,5.8599,6.1985,6.3166,6.5089,6.8859,7.1245,7.336,7.5438,7.7361,7.8438,7.8323,7.8323,7.8246,7.813,7.8246,7.8246,7.813,7.7438,7.7707,7.9015,7.8284,7.7861,7.7707,7.6284,7.5553,7.5361,7.3168,7.2514,7.3,7.1458,7.1314,7.2137,7.0869,7.0954,7.1852,7.219,7.2826,7.367,7.5065,7.5726,7.5909,0.0,0.0,0.0,0.0,0.0,0.0,0.0,0.0,0.0,0.0,0.0,0.0,0.0,0.0,0.0,0.0,0.0,0.0,0.0,0.0,0.0,0.0,0.0,0.0,0.0,0.0,0.0,0.0,0.0,0.0,5.4511,5.5318,5.4818,0.0,0.0,0.0,0.0,0.0,0.0,0.0,5.4012,0.0,0.0,0.0,0.0,0.0,0.0,0.0,0.0,5.6225,5.5925,5.5413,5.5952,0.0,0.0,0.0,0.0,0.0,5.8473,5.805,5.7753,5.8319,5.8473,5.8473,5.8319,5.8396,5.8434,5.8319,5.8396,5.8011,5.6395,5.6599,5.6791,5.6203,5.778,6.0319,6.3743,6.4974,6.6013,6.7321,7.1514,7.4207,7.3899,7.6669,7.8207,7.7553,7.7476,7.7169,7.6438,7.7092,7.713,7.6399,7.6245,7.5976,7.5476,7.5361,7.4938,7.4245,7.4014,7.3514,7.2783,7.236,7.186,7.1269,7.0547,7.0315,7.0463,6.9998,6.9924,7.0189,7.1121,7.1982,7.2716,7.2973,7.3927,7.4992,0.0,0.0,0.0,0.0,0.0,0.0,0.0,0.0,0.0,0.0,0.0,0.0,0.0,0.0,0.0,0.0,0.0,0.0,0.0,0.0,0.0,0.0,0.0,0.0,0.0,0.0,0.0,0.0,0.0,5.3933,5.5126,5.4587,5.3933,5.3126,0.0,0.0,0.0,0.0,0.0,0.0,0.0,0.0,0.0,0.0,0.0,0.0,0.0,0.0,0.0,0.0,5.4892,5.484,5.5141,0.0,0.0,0.0,0.0,0.0,5.7588,5.733,5.6791,5.578,5.5895,5.6011,5.5049,5.5588,5.6242,5.6242,5.6588,5.6665,5.5857,5.6406,5.7176,5.7665,5.9896,6.2089,6.3666,6.4666,6.6167,6.8821,7.1629,7.3553,7.4091,7.5976,7.663,7.5322,7.5245,7.5053,7.4668,7.5014,7.4861,7.3976,7.3476,7.2822,7.2014,7.1552,7.1822,7.2783,7.2322,7.1898,7.1514,7.1514,7.1132,7.0463,7.0195,6.9775,6.921,6.9116,6.915,6.9315,6.9816,7.077,7.1982,7.2826,7.3294,7.3536,0.0,0.0,0.0,0.0,0.0,0.0,0.0,0.0,0.0,0.0,0.0,0.0,0.0,0.0,0.0,0.0,0.0,0.0,0.0,0.0,0.0,0.0,0.0,0.0,0.0,0.0,0.0,5.0712,5.3241,5.4895,5.5665,5.4203,5.3395,0.0,0.0,0.0,0.0,0.0,0.0,0.0,0.0,0.0,0.0,0.0,0.0,0.0,0.0,0.0,0.0,0.0,0.0,0.0,0.0,0.0,0.0,5.6522,5.6714,5.6714,5.6714,5.656,5.5906,5.3741,5.401,5.4318,5.2577,5.3703,5.5088,5.5088,5.5742,5.6165,5.578,5.6406,5.7638,5.9511,6.1781,6.3512,6.4128,6.4936,6.6898,7.0744,7.1783,7.286,7.4553,7.4938,7.4591,7.3283,7.3014,7.2976,7.3168,7.3014,7.2591,7.1898,7.1052,7.0244,6.9398,6.8552,6.9283,7.1591,7.0937,7.0629,7.0629,7.0629,7.0301,6.979,6.9649,6.9204,6.8474,6.8158,6.8155,6.832,6.8523,6.9595,7.1114,7.2504,7.2468,7.1801,0.0,0.0,0.0,0.0,0.0,0.0,0.0,0.0,0.0,0.0,0.0,0.0,0.0,0.0,0.0,0.0,0.0,0.0,0.0,0.0,0.0,0.0,0.0,0.0,0.0,4.85,4.9817,5.0712,5.3241,5.4895,5.5665,5.4818,5.3972,5.3203,0.0,0.0,0.0,0.0,0.0,0.0,0.0,0.0,0.0,0.0,0.0,0.0,0.0,0.0,0.0,0.0,0.0,0.0,0.0,0.0,5.5703,5.578,5.578,5.578,5.578,5.5241,5.4434,5.3433,5.4434,5.5164,5.351,5.5011,5.683,5.683,5.7511,5.7627,5.6011,5.6406,5.783,6.0281,6.2166,6.4128,6.6474,6.759,6.9129,7.1783,7.2168,7.286,7.4553,7.336,7.2399,7.2283,7.1552,7.1437,7.2245,7.1514,7.1052,7.1014,7.0206,6.936,6.85,6.7628,6.809,6.9898,6.9821,6.9783,6.9783,6.9783,6.9457,6.8879,6.8357,6.8269,6.8389,6.7144,6.6601,6.6661,6.7479,6.8669,7.0089,7.0766,7.0523,6.9991,0.0,0.0,0.0,0.0,0.0,0.0,0.0,0.0,0.0,0.0,0.0,0.0,0.0,0.0,0.0,0.0,0.0,0.0,0.0,0.0,0.0,0.0,0.0,4.6355,4.6885,4.9538,5.1664,5.3049,5.4511,5.5164,5.4934,5.3549,0.0,0.0,0.0,0.0,0.0,0.0,0.0,0.0,0.0,0.0,0.0,0.0,0.0,0.0,0.0,0.0,0.0,0.0,5.2239,5.2598,5.3425,5.428,5.5049,5.5549,5.5703,5.5588,5.5088,5.4357,5.3472,5.2615,5.328,5.3972,5.3356,5.4741,5.6214,5.6214,5.7319,5.8242,5.8088,5.8781,5.9869,6.137,6.3474,6.5243,6.6205,6.7513,6.9129,7.1168,7.1398,7.1629,7.2283,7.1321,7.0667,7.0667,7.0321,7.0283,7.0629,6.9821,6.8859,6.7821,6.6974,6.6128,6.5243,6.4897,6.5628,6.7321,6.7821,6.809,6.809,6.8277,6.8357,6.8243,6.7238,6.6984,6.7144,6.5578,6.5214,6.5724,6.6952,6.7812,6.8449,6.9636,6.9524,6.8908,0.0,0.0,0.0,0.0,0.0,0.0,0.0,0.0,0.0,0.0,0.0,0.0,0.0,0.0,0.0,0.0,0.0,0.0,0.0,0.0,0.0,0.0,0.0,4.6244,4.7088,4.9548,5.1579,5.3114,5.407,5.4338,5.3881,0.0,0.0,0.0,0.0,0.0,0.0,0.0,0.0,0.0,0.0,0.0,0.0,0.0,0.0,0.0,0.0,0.0,0.0,0.0,5.1595,5.2423,5.301,5.3972,5.4934,5.5241,5.5126,5.4741,5.3895,5.3241,5.2587,5.1741,5.2587,5.3664,5.3933,5.5511,5.7049,5.7588,5.8434,5.9242,5.9819,5.9973,6.0358,6.1524,6.3589,6.5282,6.582,6.7359,6.8936,7.036,7.0514,7.0514,7.0514,6.9513,6.8975,6.9283,6.9013,6.8898,6.8898,6.809,6.6974,6.5513,6.4628,6.3897,6.3308,6.3308,6.3809,6.4857,6.5663,6.6354,6.6877,6.711,6.7139,6.6954,6.6067,6.5851,6.5983,6.4327,6.3942,6.4481,6.5899,6.6599,6.7059,6.8555,6.8548,6.7901,0.0,0.0,0.0,0.0,0.0,0.0,0.0,0.0,0.0,0.0,0.0,0.0,0.0,0.0,0.0,0.0,0.0,0.0,0.0,0.0,0.0,0.0,0.0,4.6702,4.7552,4.8099,4.8945,5.0111,5.1381,5.2205,5.259,5.259,0.0,0.0,0.0,0.0,0.0,0.0,0.0,0.0,0.0,0.0,0.0,0.0,0.0,0.0,0.0,0.0,0.0,0.0,5.1906,5.3203,5.3203,5.4357,5.5511,5.4741,5.3895,5.301,5.2154,5.1885,5.1692,5.0933,5.2587,5.4703,5.5549,5.7665,5.9973,6.1755,6.1408,6.0781,6.0781,5.9435,5.8858,6.0512,6.2204,6.3897,6.5628,6.7321,6.8706,6.959,6.9667,6.9667,6.9667,6.809,6.7436,6.8321,6.759,6.709,6.709,6.632,6.5474,6.4589,6.3743,6.3269,6.3269,6.3269,6.3027,6.2597,6.3367,6.4664,6.6357,6.6357,6.5803,6.48,6.48,6.4975,6.5176,6.3501,6.2761,6.2788,6.411,6.5113,6.6056,6.7392,6.7421,6.6914,0.0,0.0,0.0,0.0,0.0,0.0,0.0,0.0,0.0,0.0,0.0,0.0,0.0,0.0,0.0,0.0,0.0,0.0,0.0,0.0,0.0,0.0,0.0,0.0,0.0,0.0,4.7596,5.0585,5.0964,5.1357,0.0,0.0,0.0,5.2308,0.0,0.0,0.0,0.0,0.0,0.0,0.0,0.0,0.0,0.0,0.0,0.0,0.0,0.0,0.0,0.0,0.0,0.0,5.301,5.3549,5.401,5.4395,5.3895,5.301,5.2154,5.1048,5.051,5.2087,5.2587,5.3664,5.7511,5.8511,5.9319,6.1639,6.0935,6.0089,6.0704,5.9896,5.9319,5.9819,6.132,6.282,6.3935,6.5551,6.6936,6.7782,6.7359,6.7013,6.7013,6.6013,6.5436,6.5705,6.659,6.659,6.5397,6.5128,6.432,6.2897,6.2012,6.1364,6.1037,6.1037,6.1118,6.1254,6.1519,6.2487,6.4078,6.4311,6.4587,6.4741,6.3783,6.3788,6.4354,6.316,6.1967,6.1101,6.3634,6.4782,6.5153,6.6592,6.7015,6.6686,0.0,0.0,0.0,0.0,0.0,0.0,0.0,0.0,0.0,0.0,0.0,0.0,0.0,0.0,0.0,0.0,0.0,0.0,0.0,0.0,0.0,0.0,0.0,0.0,0.0,4.4817,4.612,0.0,0.0,0.0,0.0,0.0,0.0,5.2462,0.0,5.3549,0.0,0.0,0.0,0.0,0.0,0.0,0.0,0.0,0.0,0.0,0.0,0.0,0.0,0.0,0.0,0.0,5.3318,5.3472,5.3241,5.3395,5.2626,5.1433,5.0231,4.9433,4.924,5.0779,5.2049,5.401,5.8088,5.9935,6.1243,6.2781,6.1743,6.0704,6.1216,6.0319,5.9627,5.9973,6.1166,6.2293,6.2743,6.4282,6.5436,6.5551,6.5474,6.5243,6.4897,6.4397,6.4089,6.4089,6.5013,6.5013,6.3666,6.3589,6.2974,6.1639,6.0891,6.0378,6.0103,5.9916,5.9841,5.9928,6.021,6.0771,6.1582,6.2652,6.3461,6.3928,6.2815,6.242,6.2574,6.1951,6.0771,5.9633,6.2044,6.3066,6.3249,6.4188,6.484,6.5138,0.0,0.0,0.0,0.0,0.0,0.0,0.0,0.0,0.0,0.0,0.0,0.0,0.0,0.0,0.0,0.0,0.0,0.0,0.0,0.0,0.0,0.0,0.0,0.0,0.0,0.0,0.0,0.0,0.0,0.0,0.0,0.0,5.2435,5.328,0.0,5.4703,0.0,0.0,0.0,0.0,0.0,0.0,0.0,0.0,0.0,0.0,0.0,0.0,0.0,0.0,0.0,0.0,5.378,5.378,5.3049,5.2154,5.0702,4.9086,4.7548,4.7586,4.8163,4.8509,5.1856,5.5703,5.8088,6.1627,6.4359,6.4282,6.3089,6.2101,6.2101,6.0742,5.9896,6.0666,6.1447,6.2024,6.2101,6.3397,6.4128,6.3397,6.3935,6.4051,6.3281,6.3205,6.3166,6.3077,6.3205,6.2897,6.2024,6.2062,6.1704,6.0784,6.0324,6.0074,5.9962,5.9543,5.9084,5.8632,5.9355,5.9523,5.9281,6.1315,6.2396,6.2645,6.186,6.1071,6.0375,6.0347,5.9494,5.8429,6.0026,6.0717,6.0843,6.1017,6.1882,6.2812,0.0,0.0,0.0,0.0,0.0,0.0,0.0,0.0,0.0,0.0,0.0,0.0,0.0,0.0,0.0,0.0,0.0,0.0,0.0,0.0,0.0,0.0,0.0,0.0,0.0,0.0,0.0,0.0,0.0,0.0,0.0,0.0,0.0,5.3241,0.0,5.4164,0.0,0.0,0.0,0.0,0.0,0.0,0.0,0.0,0.0,0.0,0.0,0.0,0.0,0.0,0.0,0.0,5.2538,5.2818,5.3049,5.2154,5.0702,4.9317,4.8971,4.8509,4.874,5.1433,5.5818,5.9781,6.1023,6.1985,6.2435,6.1743,6.1858,6.2101,6.2101,6.1243,6.0589,6.0781,6.0973,6.132,6.1985,6.2409,6.2781,6.3243,6.2897,6.2551,6.2358,6.237,6.205,6.1396,6.2551,6.2666,6.1166,6.1716,6.1518,6.0283,6.0146,5.976,5.9028,5.8913,5.8611,5.8164,5.8348,5.8699,5.9221,6.0341,6.1224,6.1826,6.0999,6.0576,6.0375,6.0347,5.9494,5.8429,6.0026,6.0391,6.0234,6.1355,6.1963,6.2205,0.0,0.0,0.0,0.0,0.0,0.0,0.0,0.0,0.0,0.0,0.0,0.0,0.0,0.0,0.0,0.0,0.0,0.0,0.0,0.0,0.0,0.0,0.0,0.0,0.0,0.0,0.0,0.0,0.0,0.0,0.0,0.0,0.0,5.2357,0.0,5.3395,0.0,0.0,0.0,0.0,0.0,0.0,0.0,0.0,0.0,0.0,0.0,0.0,0.0,0.0,0.0,0.0,0.0,0.0,5.25,5.2038,5.0702,4.9202,4.8432,4.8471,4.9625,5.3433,5.7011,5.9935,6.1166,6.1485,6.1243,6.0358,6.0858,6.1485,6.1485,6.1089,6.0781,6.0781,6.0781,6.0973,6.1408,6.1127,6.1166,6.2012,6.1358,6.1012,6.1435,6.1485,6.1281,6.0819,6.1627,6.1632,6.052,6.0904,6.0728,5.9792,5.9543,5.9176,5.8676,5.8482,5.8238,5.7997,5.7997,5.8017,5.8166,5.9688,6.0652,6.0991,6.0192,5.9804,5.9706,5.8732,5.7953,5.7459,5.7763,5.8162,5.8607,5.906,6.0054,6.1051,0.0,0.0,0.0,0.0,0.0,0.0,0.0,0.0,0.0,0.0,0.0,0.0,0.0,0.0,0.0,0.0,0.0,0.0,0.0,0.0,0.0,0.0,0.0,0.0,0.0,0.0,0.0,0.0,0.0,0.0,0.0,0.0,0.0,5.1282,0.0,0.0,0.0,0.0,0.0,0.0,0.0,0.0,0.0,0.0,0.0,0.0,0.0,0.0,0.0,0.0,0.0,0.0,0.0,0.0,5.1885,5.1731,5.0587,4.9086,4.7702,4.8663,5.0894,5.4395,5.6819,5.8665,6.005,6.0358,6.0165,5.9435,5.9973,6.0512,6.0396,6.0473,6.0589,6.0589,6.0589,6.0589,6.0589,5.9858,5.955,6.0281,5.9742,5.9588,6.0281,6.0358,6.0435,6.055,6.0503,6.0355,6.0132,6.0006,5.9776,5.9284,5.8913,5.8673,5.857,5.8172,5.7997,5.7997,5.7997,5.7631,5.6948,5.8907,5.9874,5.9949,5.8951,5.8634,5.8668,5.6716,5.6057,5.6144,5.5221,5.5579,5.6489,5.6221,5.7369,5.9099,0.0,0.0,0.0,0.0,0.0,0.0,0.0,0.0,0.0,0.0,0.0,0.0,0.0,0.0,0.0,0.0,0.0,0.0,0.0,0.0,0.0,0.0,0.0,0.0,0.0,0.0,0.0,0.0,0.0,0.0,0.0,0.0,0.0,5.0903,0.0,0.0,0.0,0.0,0.0,0.0,0.0,0.0,0.0,0.0,0.0,0.0,0.0,0.0,0.0,5.154,5.1695,0.0,0.0,0.0,5.1769,5.1048,5.0164,4.9356,4.9125,5.0856,5.2818,5.3395,5.5934,5.8357,5.8588,5.8627,5.8588,5.8473,5.9127,5.9473,5.8781,5.9204,5.9665,5.9665,5.9665,5.9665,5.9665,5.8973,5.8511,5.8627,5.855,5.8511,5.8627,5.8627,5.8934,5.9627,5.9281,5.9345,6.0079,5.969,5.9266,5.8796,5.8716,5.8487,5.8097,5.8042,5.7997,5.7997,5.7997,5.7631,5.6912,5.7206,5.7729,5.8296,5.6531,5.647,5.7546,5.5632,5.4908,5.5115,5.4931,5.4658,5.436,5.5317,5.5396,5.5401,0.0,0.0,0.0,0.0,0.0,0.0,0.0,0.0,0.0,0.0,0.0,0.0,0.0,0.0,0.0,0.0,0.0,0.0,0.0,0.0,0.0,0.0,0.0,0.0,0.0,0.0,0.0,0.0,0.0,0.0,0.0,4.7537,4.8796,0.0,0.0,0.0,0.0,0.0,0.0,0.0,0.0,0.0,0.0,0.0,0.0,0.0,0.0,0.0,5.2764,5.2331,5.2142,5.2105,5.2177,0.0,0.0,0.0,5.063,4.9636,4.8979,4.9786,5.1146,5.2575,5.4376,5.6264,5.7939,5.8319,5.8165,5.7665,5.7857,5.8127,5.828,5.8588,5.8819,5.8819,5.8819,5.8819,5.8819,5.8088,5.7742,5.8242,5.7857,5.7742,5.8242,5.8319,5.8508,5.9051,5.8929,5.8943,5.9299,5.9102,5.8776,5.8348,5.8326,5.8194,5.7997,5.7997,5.7797,5.7376,5.7376,5.6455,5.476,5.476,5.5382,5.6426,5.5587,5.5472,5.5791,5.4677,5.4202,5.4086,5.3804,5.3849,5.409,5.4651,5.519,5.6016,0.0,0.0,0.0,0.0,0.0,0.0,0.0,0.0,0.0,0.0,0.0,0.0,0.0,0.0,0.0,0.0,0.0,0.0,0.0,0.0,0.0,0.0,0.0,0.0,0.0,0.0,0.0,0.0,0.0,0.0,4.6807,4.7175,4.8304,0.0,5.0412,5.0125,0.0,0.0,0.0,0.0,0.0,0.0,0.0,0.0,0.0,0.0,0.0,5.3367,5.2794,5.2895,5.2417,5.1904,5.2432,5.2136,0.0,0.0,0.0,4.9783,4.8345,4.8679,4.9759,5.1193,5.2348,5.3722,5.6007,5.6537,5.6433,5.6115,5.6022,5.6242,5.6896,5.755,5.7973,5.7973,5.778,5.7627,5.7627,5.6703,5.628,5.6934,5.634,5.6218,5.7052,5.7057,5.7289,5.7953,5.8099,5.8199,5.8381,5.8132,5.7869,5.7703,5.7528,5.7348,5.7105,5.7145,5.6865,5.6293,5.6251,5.501,5.2773,5.2708,5.3202,5.4092,5.4092,5.4111,5.4073,5.3127,5.2863,5.2994,5.2287,5.2547,5.3392,5.3691,5.4507,5.5672,0.0,0.0,0.0,0.0,0.0,0.0,0.0,0.0,0.0,0.0,0.0,0.0,0.0,0.0,0.0,0.0,0.0,0.0,0.0,0.0,0.0,0.0,0.0,0.0,0.0,0.0,0.0,0.0,0.0,0.0,4.6374,4.7645,4.8723,4.9652,5.0103,4.9898,4.9241,0.0,0.0,0.0,0.0,0.0,0.0,0.0,5.0495,5.1236,5.1833,5.1583,5.116,5.192,5.161,5.0966,5.099,5.0894,5.075,0.0,0.0,0.0,4.7613,4.8853,5.0354,4.8895,4.9741,5.1102,5.1649,5.1761,5.2062,5.3151,5.3395,5.3395,5.3472,5.5434,5.706,5.706,5.6357,5.5818,5.5818,5.4434,5.3395,5.3472,5.3089,5.3137,5.3938,5.3675,5.4147,5.5756,5.6161,5.6684,5.7541,5.6539,5.6212,5.6836,5.6249,5.5496,5.4676,5.4749,5.4756,5.4737,5.446,5.3504,5.1962,5.1722,5.1377,5.1036,5.1036,5.1771,5.2812,5.0419,5.0385,5.1747,5.0369,5.0387,5.1303,5.2322,5.2233,5.1956,0.0,0.0,0.0,0.0,0.0,0.0,0.0,0.0,0.0,0.0,0.0,0.0,0.0,0.0,0.0,0.0,0.0,0.0,0.0,0.0,0.0,0.0,0.0,0.0,0.0,0.0,0.0,0.0,0.0,4.5535,4.6695,4.7233,4.7966,4.896,5.0254,5.0067,4.8805,4.9508,4.9534,4.9058,4.8808,4.9028,0.0,4.9707,4.9529,4.9281,5.0037,5.0898,5.1602,5.131,5.1218,5.1268,5.118,5.0574,4.9771,4.8988,4.8472,4.771,4.5605,4.6496,4.7947,4.752,4.8135,4.9235,5.0685,5.1033,5.1288,5.2218,5.284,5.3207,5.3207,5.3946,5.4549,5.4549,5.4318,5.428,5.4857,5.3933,5.3332,5.3601,5.3034,5.2792,5.3366,5.3293,5.3769,5.5169,5.4961,5.5027,5.5592,5.4817,5.4434,5.4665,5.49,5.4589,5.3669,5.4122,5.3571,5.1955,5.2303,5.1119,4.8702,4.8596,4.7867,4.6755,4.7113,4.8512,5.0514,5.0037,4.9554,4.9061,4.9341,4.8954,4.8466,4.9487,4.9101,4.8287,0.0,0.0,0.0,0.0,0.0,0.0,0.0,0.0,0.0,0.0,0.0,0.0,0.0,0.0,0.0,0.0,0.0,0.0,0.0,0.0,0.0,0.0,0.0,0.0,0.0,0.0,0.0,0.0,0.0,0.0,0.0,4.6872,4.7428,4.8145,4.9655,4.9562,0.0,4.913,4.9201,4.8732,4.8455,4.879,4.9451,4.9404,4.9252,4.9188,4.9652,5.0336,5.093,5.0297,5.0057,5.0061,5.0228,4.9728,4.8775,4.7073,4.6786,4.6568,4.4529,4.519,4.6433,4.6329,4.6782,4.7584,4.8776,4.943,5.0041,5.099,5.1783,5.2447,5.2711,5.2775,5.2812,5.2976,5.3102,5.3395,5.3972,5.3206,5.269,5.2984,5.2039,5.1697,5.2484,5.2238,5.2568,5.392,5.3683,5.3628,5.4184,5.3531,5.3001,5.2676,5.2312,5.2067,5.1959,5.1523,5.0555,4.9119,4.9062,4.7964,4.5886,4.5786,4.543,4.4768,4.4556,4.5896,4.8233,4.8404,4.7757,4.6688,4.7172,4.6634,4.5812,4.6957,4.6837,4.6227,0.0,0.0,0.0,0.0,0.0,0.0,0.0,0.0,0.0,0.0,0.0,0.0,0.0,0.0,0.0,0.0,0.0,0.0,0.0,0.0,0.0,0.0,0.0,0.0,0.0,0.0,0.0,0.0,0.0,0.0,0.0,0.0,4.7168,4.722,4.8302,4.8359,4.7617,4.8516,4.8906,4.8828,4.8008,4.914,5.1131,4.9255,4.9552,5.0964,5.0713,4.9886,4.8914,4.8865,4.8087,4.7267,4.8032,4.8207,4.7686,4.513,4.548,4.6336,0.0,0.0,0.0,4.5387,4.5664,4.6081,4.5736,4.6718,4.8044,4.9273,5.0161,5.0975,5.1766,5.1917,5.2069,5.2488,5.2931,5.3182,5.322,5.2108,5.1306,5.1281,4.9875,4.9477,5.108,5.0263,5.0312,5.1945,5.2121,5.2511,5.3227,5.2532,5.1726,5.0811,4.8397,4.7802,4.9286,4.6724,4.5765,4.6282,4.484,4.4062,4.3824,4.3519,4.3994,4.4996,4.3426,4.3977,4.5985,4.5236,4.4892,4.4783,4.3839,4.3466,4.3578,4.4964,4.543,4.5493,0.0,0.0,0.0,0.0,0.0,0.0,0.0,0.0,0.0,0.0,0.0,0.0,0.0,0.0,0.0,0.0,0.0,0.0,0.0,0.0,0.0,0.0,0.0,0.0,0.0,0.0,0.0,0.0,0.0,0.0,0.0,0.0,0.0,0.0,4.6575,4.666,4.662,4.8201,4.8906,4.8906,4.9161,4.9674,5.0166,4.952,4.9125,4.89,4.8524,4.8617,4.8779,4.8056,4.8093,4.8263,4.7224,4.6414,4.5678,4.4536,4.4464,4.4591,4.3699,0.0,0.0,0.0,0.0,0.0,4.6695,4.7195,4.8038,5.0046,5.1064,5.1693,5.1915,5.2158,5.22,5.1715,5.2285,5.297,5.3555,5.2271,5.1317,5.1356,4.9539,4.8547,4.9268,4.9167,4.9446,5.0503,5.0008,4.9683,4.9919,4.7803,4.6191,4.5232,4.4911,4.4626,4.4348,4.4496,4.4414,4.4146,4.3825,4.3393,4.2744,4.1241,4.0364,4.005,3.8933,3.9155,4.0373,4.1929,4.2174,4.1653,4.2431,4.2148,4.1497,4.2906,4.1621,3.9201,0.0,0.0,0.0,0.0,0.0,0.0,0.0,0.0,0.0,0.0,0.0,0.0,0.0,0.0,0.0,0.0,0.0,0.0,0.0,0.0,0.0,0.0,4.4943,4.5088,0.0,0.0,0.0,0.0,0.0,0.0,0.0,0.0,0.0,0.0,0.0,0.0,4.6128,4.7964,4.8816,4.8945,4.9657,5.0355,5.0844,5.0153,4.9967,4.9855,4.836,4.8515,4.9042,4.651,4.6246,4.672,4.5317,4.4972,4.4892,4.399,4.4108,0.0,0.0,0.0,4.5242,4.4629,0.0,0.0,4.5999,4.6784,4.7853,4.9534,5.0476,5.1226,5.1887,5.1888,5.1788,5.186,5.2,5.2332,5.2945,5.176,5.0643,5.0097,4.84,4.7389,4.7698,4.7195,4.7361,4.8467,4.7706,4.721,4.7305,4.4408,4.2733,4.2742,4.1794,4.1311,4.1369,4.1779,4.1699,4.1161,4.0795,4.0337,3.9643,3.8315,3.7601,3.7465,3.6432,3.6606,3.7696,3.8991,3.9537,3.9649,4.08,4.0615,3.977,3.9983,3.8709,3.6833,0.0,0.0,0.0,0.0,0.0,0.0,0.0,0.0,0.0,0.0,4.1919,4.2727,4.3441,0.0,0.0,0.0,0.0,0.0,0.0,0.0,0.0,0.0,4.539,4.5568,4.5594,4.6328,0.0,0.0,0.0,0.0,0.0,4.5681,4.5729,0.0,0.0,0.0,4.5954,4.767,4.849,4.87,4.9747,5.1047,5.2232,5.0876,5.1188,5.1935,4.921,4.879,4.8887,4.4615,4.3428,4.3646,4.3094,4.3835,4.4671,4.3672,4.4276,0.0,0.0,0.0,0.0,4.5021,4.5255,0.0,4.4966,4.6247,4.7823,4.8681,4.9371,5.0179,5.1642,5.1355,5.1246,5.2269,5.1769,5.1389,5.187,5.0808,4.9449,4.8052,4.6755,4.5996,4.6024,4.4844,4.4552,4.5744,4.4918,4.4382,4.438,4.1323,4.0027,4.1085,3.855,3.7753,3.904,3.8629,3.8301,3.8005,3.7144,3.6441,3.596,3.538,3.5635,3.6454,3.5308,3.5645,3.7053,3.6884,3.7437,3.8445,3.9288,3.9141,3.8201,3.7136,3.6624,3.6333,0.0,0.0,0.0,0.0,0.0,0.0,0.0,0.0,0.0,0.0,4.2763,4.3331,4.3478,0.0,0.0,0.0,0.0,0.0,0.0,0.0,4.4495,4.5055,4.5169,4.5303,4.5586,4.5505,4.5354,4.5201,4.5083,4.5083,4.5201,4.5214,4.539,4.5624,0.0,4.5565,4.5526,4.7147,4.7442,4.6982,5.0008,5.1413,5.1631,5.0964,5.0082,4.907,4.813,4.6843,4.5275,4.3604,4.2339,4.1731,4.2869,4.2984,4.292,4.4012,4.4538,4.4958,4.5867,4.6346,4.6549,4.6413,4.6462,0.0,4.7782,4.8309,4.8995,5.0338,5.0717,5.0898,5.1208,5.1586,5.1762,5.1454,5.0678,5.0424,5.1372,4.9783,4.807,4.6812,4.5023,4.3645,4.3031,4.3272,4.2984,4.1754,4.0151,3.8652,3.736,3.5384,3.3909,3.3195,3.2981,3.3186,3.3803,3.4783,3.5879,3.6982,3.6748,3.6579,3.6474,3.479,3.4477,3.5269,3.4184,3.4868,3.6827,3.7426,3.783,3.8114,3.8984,3.8341,3.702,3.7108,3.501,3.2096,0.0,0.0,0.0,0.0,0.0,0.0,0.0,0.0,0.0,4.3024,4.35,4.3758,4.3758,4.3758,4.3758,0.0,0.0,0.0,0.0,4.4035,4.4161,4.4548,4.4726,4.4931,4.5088,4.4943,4.4849,4.4849,4.4688,4.4701,4.4849,4.4849,4.4569,4.4148,4.5213,4.5266,4.4694,4.6991,4.8155,4.8548,5.0018,5.0353,4.9953,4.9457,4.8746,4.7806,4.6333,4.4487,4.2762,4.3071,4.2495,4.1629,4.169,4.2178,4.2806,4.3197,4.4149,4.5213,4.5918,4.6723,4.7259,4.6887,4.6455,0.0,0.0,4.7384,4.7929,4.9076,4.9635,4.9892,4.9953,4.9909,4.9613,4.8879,4.7777,4.718,4.7621,4.7104,4.5932,4.3908,4.2781,4.1716,4.0586,4.0051,3.9162,3.7659,3.6413,3.5297,3.4416,3.2367,3.1488,3.1923,3.1563,3.1863,3.2945,3.3927,3.4659,3.5071,3.5129,3.5039,3.4718,3.351,3.3397,3.4225,3.4088,3.5176,3.7051,3.7891,3.8009,3.7615,3.7821,3.753,3.6719,3.4772,3.279,3.0786,0.0,0.0,0.0,0.0,0.0,0.0,0.0,0.0,0.0,4.3751,4.3886,4.3774,4.3774,4.3324,4.3094,4.324,0.0,0.0,4.3478,4.361,4.3683,4.3774,4.4229,4.4433,4.4347,4.4433,4.4468,4.4468,4.4438,4.4438,4.4468,4.4468,4.4035,4.3292,4.4735,4.4922,4.4293,4.6539,4.8156,4.9188,4.8964,4.9029,4.9174,4.8082,4.7562,4.707,4.4328,4.2298,4.1197,4.2673,4.28,4.2146,4.1199,4.1935,4.301,4.2687,4.3847,4.5362,4.5728,4.6897,4.7897,4.7322,4.6439,4.5767,0.0,0.0,0.0,4.7527,4.8271,4.8723,4.8583,4.8137,4.7344,4.6075,4.4851,4.3817,4.3036,4.3423,4.3048,4.0875,4.0147,3.9368,3.8177,3.6337,3.4856,3.4031,3.3025,3.2442,3.2417,3.0274,2.9998,3.2036,3.1032,3.1072,3.233,3.2942,3.291,3.2294,3.2473,3.2314,3.1759,3.1513,3.1834,3.2585,3.3482,3.4789,3.6417,3.7251,3.7311,3.6717,3.6725,3.6521,3.5753,3.2208,3.0636,2.9677,3.6119,3.7514,0.0,0.0,0.0,0.0,0.0,0.0,0.0,4.3825,4.3379,4.2947,4.2947,4.201,4.1645,4.2359,4.1772,4.1992,4.3404,4.2851,4.2622,4.2917,4.367,4.3858,4.3441,4.3873,4.4058,4.4058,4.3775,4.3791,4.4058,4.4058,4.4556,4.5372,4.4377,4.4443,4.5296,4.5071,4.455,4.3921,4.5258,4.8347,5.1797,4.8683,4.7078,4.6008,4.2568,4.1163,4.1069,4.2083,4.2366,4.249,4.3502,4.3128,4.2649,4.4262,4.4659,4.4935,4.6815,4.7902,4.8497,4.8431,4.7684,4.7141,4.7681,0.0,4.7638,4.8332,0.0,4.8711,4.7892,0.0,0.0,4.4432,4.3711,4.2621,3.9776,3.8906,3.8735,3.9171,3.7063,3.5443,3.5098,3.2944,3.1592,3.1676,2.9573,2.8421,2.8791,2.7508,2.7396,2.8781,2.868,2.8385,2.7825,2.8658,2.8655,2.7843,2.8213,2.8307,2.8087,2.8372,2.8843,2.9563,3.0299,3.1526,3.3121,3.3862,3.434,3.4744,3.6542,3.5071,3.1991,3.1512,2.8935,2.5613,3.5717,3.7019,0.0,0.0,0.0,0.0,0.0,0.0,0.0,4.3781,4.4033,4.4134,4.4134,4.352,4.2969,4.2631,4.2267,4.2269,4.278,4.2506,0.0,4.3192,4.3525,4.3606,4.3423,4.3622,4.371,4.371,4.3563,4.3563,4.371,4.371,4.3824,4.3996,4.3884,4.3924,4.418,4.5215,4.5663,4.5705,4.5901,4.7512,4.9415,4.6125,4.4177,4.2966,4.1476,4.072,4.048,4.0809,4.1472,4.1981,4.1242,4.1692,4.2477,4.2399,4.3165,4.4432,4.6052,4.6827,4.7378,4.8117,4.676,4.5387,4.6032,4.6075,4.604,4.6351,0.0,0.0,0.0,0.0,0.0,0.0,4.0068,3.8743,3.7314,3.482,3.4061,3.6594,3.6202,3.4889,3.2836,3.0325,2.8695,2.8302,2.7366,2.7129,2.7864,2.7653,2.7641,2.7977,2.8014,2.7534,2.6473,2.7004,2.7182,2.709,2.7454,2.7785,2.813,2.8278,2.8853,2.9671,3.0266,3.1276,3.2555,3.3281,3.308,3.2454,3.3452,3.2896,3.1061,2.8463,2.6346,2.4448,3.5277,0.0,0.0,0.0,0.0,0.0,0.0,4.1833,4.3263,4.4043,4.4541,4.4791,4.4756,4.4288,4.3655,4.2878,4.2387,4.2173,4.2283,4.2103,4.2249,4.28,4.3461,4.3608,4.3167,4.3608,4.3718,4.3515,4.3515,4.3515,4.3497,4.3339,4.3178,4.3021,4.3279,4.3302,4.327,4.467,4.5411,4.5575,4.5156,4.5206,4.535,4.3495,4.2044,4.1006,4.1006,4.0703,4.0407,4.0729,4.1344,4.1711,4.0078,4.1001,4.2453,4.089,4.2031,4.4012,4.4936,4.5771,4.657,4.7478,4.5804,4.4002,4.4307,4.4004,4.3584,4.3372,4.4665,0.0,0.0,0.0,4.1584,3.8615,0.0,3.5201,3.4565,3.1817,3.1027,3.4188,3.4453,3.3183,3.0187,2.7871,2.6114,2.5048,2.544,2.6059,2.6902,2.7385,2.7733,2.7899,2.7417,2.6568,2.5459,2.5654,2.5707,2.5689,2.6062,2.6593,2.717,2.7289,2.7881,2.8769,2.9185,2.9919,3.1011,3.1606,3.0761,2.9128,2.9438,2.9202,2.8268,2.5689,2.3914,2.251,3.5005,3.6283,0.0,3.7825,3.7911,3.8736,4.1177,4.188,4.2832,4.4816,4.4451,4.3995,4.393,4.2993,4.2492,4.2795,4.1381,4.0985,4.2209,4.1572,4.1132,4.1168,4.3424,4.3938,4.2359,4.3864,4.4268,4.3515,4.3515,4.3515,4.3497,4.2995,4.311,4.3792,4.268,4.2562,4.3256,4.268,4.1621,4.0393,4.0941,4.0746,4.021,4.1667,4.18,4.1196,4.1196,4.1097,4.1218,4.2667,4.2673,4.1977,4.193,4.2308,4.2504,4.1046,4.2124,4.3795,4.3826,4.5215,4.6694,4.6725,4.5562,4.4155,4.3426,4.1994,4.0613,3.9832,3.9949,4.0134,4.0074,3.8953,3.7553,3.5694,3.4301,0.0,0.0,3.0357,3.0602,3.2203,3.0652,2.8695,2.6718,2.5478,2.406,2.229,2.3538,2.4543,2.5081,2.5631,2.6655,2.8176,2.6338,2.4939,2.4101,2.4052,2.3464,2.2188,2.2768,2.3226,2.348,2.4058,2.4709,2.5302,2.5523,2.6141,2.6988,2.7378,2.6249,2.4495,2.4755,2.3555,2.1825,2.3909,2.2029,1.8403,0.0,0.0,0.0,3.693,3.747,3.8636,4.0813,4.234,4.3819,4.5247,4.5733,4.6106,4.6599,4.587,4.4972,4.4081,4.2961,4.2301,4.2299,4.2543,4.269,4.269,4.4488,4.4849,4.3447,4.426,4.4407,4.3818,4.3614,4.3303,4.294,4.2259,4.2129,4.2559,4.1684,4.1197,4.1076,4.2389,4.2107,4.0651,4.0035,3.9591,3.9392,4.0278,4.0482,4.0326,4.0753,4.0836,4.0951,4.1848,4.2236,4.2252,4.1761,4.2303,4.2762,4.0644,4.0919,4.1735,4.1395,4.1451,4.1987,4.3647,4.1984,3.973,3.917,3.7835,3.6319,3.5021,3.547,3.603,3.5597,3.5131,3.4176,3.2198,3.0759,2.9291,0.0,2.6385,2.5264,2.4321,2.5693,2.5943,2.3831,2.1158,1.9801,2.0315,2.0727,2.1985,2.4399,2.5364,2.5708,2.5404,2.3777,2.2171,2.0709,1.9724,1.9002,1.8575,1.9066,1.9524,1.9865,2.0199,2.0687,2.1245,2.1402,2.1827,2.2386,2.2714,2.2459,2.1938,2.2257,2.0962,1.9063,1.9836,1.9235,1.7926,3.578,3.6434,3.6877,3.712,3.8144,3.957,4.1444,4.322,4.4755,4.5905,4.6848,4.7482,4.7672,4.7124,4.6166,4.4739,4.3691,4.2996,4.274,4.2947,4.3204,4.3515,4.4782,4.4959,4.3839,4.4665,4.4702,4.3818,4.37,4.2991,4.1742,4.0831,4.036,4.0231,4.0105,3.9696,3.9233,4.1493,4.121,3.9151,3.8383,3.8198,3.841,3.8917,3.9977,4.1247,4.1374,4.1143,4.0854,4.1224,4.0999,4.0461,3.9826,4.0423,4.1065,3.9109,3.9476,4.0349,3.9799,3.964,3.9897,4.1005,3.9099,3.6597,3.5386,3.3617,3.1655,2.9604,3.0285,3.0883,2.9525,2.985,2.9762,0.0,0.0,2.5973,0.0,2.2779,2.0838,1.8063,2.1242,2.2724,2.0309,1.7983,1.6888,1.7447,1.8621,2.0058,2.1877,2.3233,2.3411,2.236,2.0676,1.9236,1.8228,1.724,1.6807,1.6887,1.7408,1.7859,1.822,1.8521,1.8852,1.9282,1.9504,1.9846,2.0279,2.0584,2.0298,1.9742,1.9962,1.854,1.6641,1.7576,1.7534,1.6871,3.6363,3.6897,3.7388,3.8589,3.9929,4.1459,4.3076,4.4372,4.5607,4.6789,4.7727,4.7959,4.7104,4.6692,4.5992,4.4789,4.3573,4.3011,4.3424,4.2766,4.2675,4.3409,4.4234,4.4289,4.348,4.4985,4.5004,4.3409,4.3626,4.2391,3.9848,3.8772,3.7838,3.7112,3.806,3.8185,3.7778,3.9909,3.8894,3.5869,3.5945,3.64,3.703,3.7495,4.0081,4.3381,4.2823,4.1811,4.0753,4.0783,3.9168,3.7044,3.6481,3.7138,3.7881,3.6608,3.793,3.9589,3.8855,3.9513,4.0113,3.878,3.6891,3.4718,3.2135,2.9427,2.6613,2.3718,2.4408,2.4703,2.2185,2.3298,2.4335,0.0,0.0,2.2823,2.0693,1.9515,1.7409,1.3597,1.6993,1.8537,1.5902,1.5523,1.4897,1.3519,1.6762,1.8443,1.7513,1.9148,1.9807,1.9082,1.7292,1.645,1.6708,1.6599,1.6649,1.6805,1.7507,1.7931,1.8177,1.8514,1.8897,1.9184,1.9341,1.9759,2.0259,2.0383,1.9312,1.7588,1.7588,1.6305,1.4599,1.6944,1.6704,1.5215,3.658,3.8458,4.0167,4.1172,4.1784,4.2506,4.3589,4.5273,4.6752,4.7654,4.8016,4.8304,4.8711,4.7307,4.6123,4.5519,4.4383,4.3463,4.294,4.3265,4.3129,4.2246,4.359,4.3775,4.263,4.3899,4.3656,4.1781,4.1403,3.9682,3.6754,3.638,3.5879,3.5288,3.7305,3.7267,3.5882,3.8478,3.7436,3.4125,3.4185,3.4464,3.4913,3.4594,3.6193,3.8738,3.9599,3.9389,3.8815,3.9335,3.8781,3.7731,3.6695,3.7454,3.8276,3.5755,3.6418,3.751,3.5475,3.5115,3.4988,3.3357,3.1711,2.9884,2.7555,2.4617,2.1864,2.0105,1.8984,1.8392,1.858,1.9899,2.0798,2.0359,2.0458,1.9802,1.7843,1.6297,1.3642,0.8931,0.8344,0.8184,0.7611,0.7471,0.7271,0.7012,0.9299,1.1664,1.3943,1.5006,1.6131,1.724,1.5901,1.5088,1.4991,1.385,1.3346,1.3521,1.3763,1.4121,1.4418,1.4673,1.4839,1.4982,1.5188,1.5516,1.5808,1.5854,1.554,1.5168,1.5168,1.4956,1.4631,1.5293,1.5419,1.5371,3.6979,3.9447,4.1541,4.2375,4.2885,4.3478,4.4298,4.6129,4.7586,4.8048,4.8298,4.8496,4.8583,4.6994,4.5526,4.473,4.3923,4.3105,4.2391,4.242,4.2127,4.1348,4.1835,4.1615,4.0476,4.0982,4.0433,3.8765,3.7444,3.5429,3.2755,3.2478,3.226,3.2193,3.4451,3.5302,3.5094,3.5917,3.4605,3.1962,3.2265,3.2253,0.0,3.2655,3.3664,3.4969,3.5737,3.5981,3.6077,3.6434,3.5753,3.4634,3.417,3.4695,3.5173,3.3681,3.4141,3.4815,3.3379,3.2502,3.1628,3.0057,2.8072,2.6002,2.425,2.1381,1.8741,1.7411,1.6286,1.5357,1.4417,1.674,1.9052,1.9561,1.8495,1.6924,1.4993,1.2711,0.9367,0.4171,0.2119,0.0929,0.031,0.2244,0.3592,0.3653,0.6247,0.8361,0.9598,1.0739,1.1523,1.1901,1.1175,1.0748,1.065,0.9761,0.9395,0.9515,0.9677,0.9956,1.0193,1.0372,1.0483,1.0456,1.072,1.0835,1.0986,1.1039,1.1726,1.2869,1.3915,1.4536,1.4753,1.4882,1.5181,1.5341,3.7767,4.0215,4.2174,4.2901,4.3569,4.4308,4.5223,4.6727,4.7837,4.7943,4.8291,4.8207,4.7457,4.597,4.4501,4.3169,4.2553,4.1959,4.133,4.0309,3.9747,3.974,3.8923,3.8091,3.7274,3.6915,3.6101,3.4806,3.266,3.0502,2.8409,2.8008,2.8123,2.8827,3.081,3.2705,3.4273,3.2692,3.0993,2.9348,2.9916,2.9522,2.8768,3.0496,3.1323,3.1498,3.1498,3.2203,3.3126,3.3126,3.1876,3.0314,3.0548,3.0775,3.1005,3.1184,3.1628,3.1955,3.1803,3.0675,2.9196,2.7622,2.5267,2.2991,2.167,1.9174,1.6684,1.5267,1.4863,1.3803,1.0564,1.3914,1.7702,1.929,1.6915,1.4152,1.2045,0.8963,0.4923,-0.0426,-0.2442,0.0,-0.5566,-0.1367,0.1572,0.1833,0.5033,0.6447,0.5315,0.6683,0.6955,0.5788,0.5823,0.5836,0.583,0.5842,0.5926,0.6079,0.621,0.6427,0.6566,0.6639,0.6709,0.6772,0.6842,0.6959,0.6966,0.703,0.8308,1.0456,1.2645,1.3597,1.3761,1.4052,1.433,1.4285,3.9832,4.1555,4.2895,4.3942,4.4034,4.4595,4.6396,4.6391,4.6455,4.7124,4.6707,4.6265,4.6151,4.4572,4.3189,4.2304,4.074,3.9318,3.8106,3.6287,3.5034,3.4618,3.3553,3.2889,3.2725,3.2274,3.1595,3.0547,2.8714,2.681,2.4811,2.5037,2.5961,2.7503,2.9239,3.0216,3.0487,2.9083,2.7342,2.5582,2.5904,2.5504,2.4775,2.5119,2.6082,2.7201,2.7201,2.9188,3.1841,3.1841,3.1285,3.0426,2.9492,3.0166,3.1207,3.0299,3.0223,3.0221,2.912,2.7709,2.5955,2.3366,2.2332,2.1288,1.8754,1.6665,1.4861,1.3599,1.2033,1.0758,1.0115,1.1851,1.3939,1.5659,1.4203,1.1814,0.8658,0.5304,0.1209,-0.4037,-0.609,-0.7177,-0.7488,-0.5228,-0.3201,-0.1869,0.0203,0.1904,0.3167,0.3583,0.4358,0.557,0.5819,0.5985,0.5981,0.6171,0.6302,0.6374,0.6459,0.6544,0.6633,0.6789,0.6828,0.6845,0.7007,0.7037,0.704,0.7054,0.7324,0.7781,0.8222,0.849,0.8684,0.8842,0.8996,0.9387,4.0476,4.1874,4.2842,4.3232,4.3322,4.3838,4.5414,4.4835,4.4872,4.6756,4.627,4.5425,4.4584,4.2496,4.0469,3.8817,3.7398,3.5478,3.2926,3.1814,3.0678,2.9402,2.8835,2.8013,2.6789,2.5972,2.493,2.3711,2.1496,2.0117,1.9588,2.0466,2.1743,2.3408,2.6632,2.7675,2.6981,2.6387,2.4845,2.2823,2.3519,2.3331,2.2742,2.3347,2.4154,2.4931,2.4931,2.6028,2.7577,2.8129,2.7495,2.6397,2.6027,2.6475,2.7135,2.6752,2.6707,2.6532,2.5014,2.3529,2.1872,1.9644,1.8532,1.7606,1.6283,1.463,1.3308,1.2775,1.1208,1.0343,1.1437,1.1449,1.1956,1.3743,1.1063,0.7801,0.5255,0.1093,-0.3299,-0.7667,-0.8855,-0.9354,-0.9346,-0.7699,-0.5484,-0.2918,-0.1927,-0.0687,0.1211,0.0416,0.0781,0.2665,0.2859,0.288,0.2872,0.2955,0.3099,0.3133,0.3167,0.3201,0.3237,0.3252,0.3357,0.3288,0.3394,0.3401,0.349,0.474,0.5293,0.5414,0.674,0.7269,0.7452,0.7581,0.6912,0.5879,4.0617,4.1789,4.2482,4.2465,4.2501,4.2926,4.4161,4.3326,4.3446,4.6029,4.5466,4.4176,4.2593,4.004,3.7427,3.4851,3.3392,3.1213,2.7873,2.7248,2.6322,2.4792,2.4238,2.3119,2.1317,1.986,1.861,1.7506,1.5557,1.492,1.5662,1.7049,1.8485,2.0106,2.4189,2.5164,2.3791,2.4,2.2797,2.0688,2.1651,2.1622,2.1229,2.2196,2.2871,2.3319,2.3319,2.3319,2.3438,2.4313,2.3807,2.2868,2.3201,2.3354,2.3349,2.3317,2.3063,2.2486,2.0856,1.9344,1.794,1.6634,1.5446,1.448,1.4183,1.3108,1.2147,1.191,1.0937,1.0482,1.1762,1.0795,1.0083,1.0813,0.7146,0.327,0.0654,-0.3609,-0.7777,-1.1351,-1.1439,-1.1059,-1.0724,-0.9115,-0.6727,-0.3577,-0.3398,-0.2764,-0.129,-0.266,-0.259,-0.0661,-0.0611,-0.0476,0.0,0.0,0.0,0.0,0.0,0.0,0.0,0.0,0.0,0.0,0.0,0.0,0.018,0.2061,0.2793,0.3004,0.5052,0.585,0.5839,0.6097,0.48,0.3053,4.0745,4.1407,4.2108,4.2825,4.2342,4.2413,4.3978,4.2924,4.2533,4.4002,4.2853,4.1314,3.9747,3.7378,3.476,3.1796,2.9269,2.6941,2.4755,2.2827,2.1708,2.1551,1.9445,1.8193,1.7964,1.5651,1.4582,1.4956,1.5065,1.544,1.6096,1.766,1.9194,2.0717,2.3047,2.2944,2.1117,2.1658,2.084,1.9158,1.9573,1.9652,1.9649,1.9723,2.0616,2.1813,2.1813,2.1813,2.1798,2.1937,2.2751,2.3667,2.3717,2.3717,2.3478,2.2071,2.0658,1.9256,1.7646,1.613,1.5004,1.4826,1.4718,1.4242,1.2749,1.2337,1.1845,1.0507,1.0224,0.9857,0.8561,0.8138,0.7074,0.3984,0.1816,-0.1271,-0.6435,-0.8866,-1.1461,-1.5158,-1.4059,-1.2441,-1.1016,-0.9297,-0.7451,-0.55,-0.5243,-0.5165,-0.5282,-0.5437,-0.4638,-0.2707,-0.2758,-0.1881,0.0,0.0,0.0,0.0,0.0,0.0,0.0,0.0,0.0,0.0,0.0,0.0,0.0,0.0269,0.0361,0.0365,0.0645,0.0656,0.0668,0.0682,0.0592,0.0398,3.9386,4.0027,4.0431,4.0353,4.0109,3.9892,4.0001,3.8937,3.8079,3.8011,3.8401,3.7551,3.4666,3.2075,2.8984,2.5127,2.335,2.1448,1.9256,1.833,1.752,1.6793,1.5839,1.4611,1.3025,1.2119,1.146,1.1046,1.2269,1.3153,1.3831,1.6109,1.803,1.9682,2.0469,2.0384,1.9626,1.9878,1.958,1.8931,1.9052,1.9212,1.9403,1.9172,1.9601,2.0256,2.0256,2.0256,2.0141,1.9176,1.9869,2.0973,2.0014,1.9713,1.9411,1.7811,1.6903,1.6093,1.4489,1.3627,1.2689,1.074,1.0258,0.9855,0.8167,0.7814,0.7997,0.8533,0.8804,0.8377,0.6704,0.4609,0.2687,0.1211,-0.3159,-0.7121,-0.9359,-1.2947,-1.5913,-1.7347,-1.5974,-1.4604,-1.3949,-1.1561,-0.9799,-0.91,-0.813,-0.7094,-0.6144,-0.6019,-0.5066,-0.3196,-0.1936,-0.0833,0.0,0.0,0.0,0.0,0.0,-0.0718,-0.215,-0.0628,0.0,0.0,0.0,0.0,0.0,0.0,0.0,0.0,0.0,0.0,0.0,0.0,0.0,0.0,3.7782,3.8041,3.7998,3.7601,3.7253,3.669,3.5672,3.4476,3.3148,3.1741,3.1942,3.1612,3.0122,2.7143,2.3763,1.9983,1.8398,1.6754,1.4731,1.4589,1.422,1.3343,1.2958,1.1922,1.0128,1.0196,0.9995,0.9402,1.1602,1.2971,1.3529,1.6035,1.7811,1.8931,1.9011,1.8998,1.8931,1.9011,1.9052,1.8994,1.8524,1.8468,1.868,1.8416,1.8468,1.8765,1.9243,1.9127,1.8519,1.7384,1.7443,1.7806,1.668,1.6315,1.5961,1.4361,1.3885,1.3526,1.1916,1.1125,1.0212,0.7967,0.7052,0.6346,0.5192,0.4896,0.5319,0.6714,0.7096,0.656,0.4217,0.1754,-0.0677,-0.2887,-0.7388,-1.1164,-1.275,-1.6172,-1.8728,-1.9337,-1.7445,-1.605,-1.6115,-1.3259,-1.1389,-1.145,-1.0523,-0.9071,-0.7194,-0.697,-0.5773,-0.3282,-0.1729,-0.0593,0.0,0.0,-0.0356,-0.1076,-0.1076,-0.233,-0.4561,-0.215,-0.1076,-0.0987,-0.0269,0.0,0.0,0.0,0.0,0.0,0.0,0.0,0.0,0.0,0.0,0.0,3.623,3.5613,3.4923,3.4953,3.4068,3.2949,3.1644,3.0163,2.8271,2.5837,2.3023,2.2816,2.6831,2.3329,1.9807,1.7644,1.523,1.3324,1.2037,1.195,1.195,1.1901,1.073,1.0078,1.0205,1.0314,1.0613,1.1043,1.4418,1.6172,1.6502,1.8435,1.9199,1.8931,1.9225,1.9199,1.8945,1.9239,1.9359,1.9243,1.7677,1.702,1.702,1.702,1.702,1.7267,1.8823,1.8402,1.702,1.702,1.5961,1.4658,1.4658,1.4599,1.4302,1.2689,1.2217,1.1856,1.0301,0.8647,0.7418,0.7423,0.6141,0.4937,0.488,0.4896,0.4936,0.5086,0.5311,0.4353,0.0735,0.0,-0.2344,-0.9612,-1.0664,-1.2463,-1.785,-1.8536,-1.9249,-2.1316,-1.8504,-1.6435,-1.6581,-1.3673,-1.1769,-1.1626,-1.2033,-1.1296,-0.897,-0.9019,-0.7264,-0.2998,-0.3018,-0.2071,0.0,0.0,-0.1165,-0.358,-0.358,-0.4829,-0.6968,-0.4651,-0.358,-0.3401,-0.1076,0.0,0.0,0.0,0.0,0.0,0.0,0.0,0.0,0.0,0.0,0.0,3.1487,3.0642,2.991,3.0085,2.9026,2.7555,2.5864,2.4304,2.2523,2.0288,1.7825,1.6772,1.8041,1.6863,1.4978,1.2571,1.1647,1.1053,1.0632,1.0583,1.0645,1.0721,1.033,1.0323,1.0801,1.093,1.1648,1.3014,1.5345,1.7163,1.8505,1.9304,1.8907,1.7625,1.7711,1.7102,1.5979,1.6057,1.6149,1.609,1.5548,1.537,1.537,1.537,1.537,1.5429,1.5972,1.5795,1.5192,1.4113,1.3407,1.2569,1.0379,1.123,1.2449,0.9721,0.8939,0.8575,0.6935,0.608,0.5418,0.4357,0.3686,0.2957,0.1806,0.2482,0.3033,0.1865,0.167,0.1003,-0.1407,-0.3813,-0.6614,-1.0101,-1.2644,-1.5265,-1.8155,-1.8582,-1.8871,-1.9553,-1.6783,-1.4751,-1.482,-1.3153,-1.2013,-1.2074,-1.2494,-1.1729,-0.9392,-0.7995,-0.5997,-0.3308,-0.3369,-0.2373,0.0,-0.3217,-0.4383,-0.358,-0.5186,-0.6344,-0.7057,-0.6347,-0.5097,-0.349,-0.1076,0.0,0.0,0.0,0.0,0.0,0.0,0.0,0.0,0.0,0.0,0.0,2.6743,2.5854,2.5016,2.4743,2.3596,2.2145,2.0508,1.9188,1.7725,1.5822,1.3956,1.2789,1.2656,1.2093,1.1295,1.0194,0.9655,0.9341,0.927,0.9325,0.9411,0.9462,0.9524,0.9999,1.0982,1.1756,1.3024,1.4788,1.6765,1.7993,1.8532,1.8639,1.7789,1.6079,1.6079,1.5548,1.4599,1.4599,1.4599,1.454,1.3944,1.3706,1.3706,1.3706,1.3706,1.3765,1.4361,1.4183,1.3467,1.1831,1.0868,0.9916,0.7281,0.7838,0.905,0.7062,0.6442,0.6206,0.5193,0.4462,0.3735,0.2781,0.2033,0.128,0.0262,0.0333,0.0336,-0.0806,-0.1542,-0.2543,-0.4356,-0.7111,-0.994,-1.2379,-1.5156,-1.7672,-1.9438,-1.9131,-1.8773,-1.8959,-1.6127,-1.4177,-1.4315,-1.3148,-1.2305,-1.2291,-1.2705,-1.1968,-0.9667,-0.8397,-0.6916,-0.4846,-0.4901,-0.416,-0.2687,-0.5633,-0.6793,-0.6258,-0.8664,-0.9824,-0.9735,-0.8842,-0.7684,-0.6168,-0.3759,-0.215,-0.1347,-0.1375,-0.0833,0.0,0.0,0.0,0.0,0.0,0.0,0.0,2.1976,2.1123,2.0108,1.8895,1.7765,1.6641,1.5568,1.4745,1.3754,1.2339,1.1344,1.0657,1.0325,0.9102,0.8816,1.0002,0.8969,0.8194,0.8002,0.8187,0.8327,0.8333,0.8431,0.9263,1.0909,1.2558,1.4307,1.6177,1.8148,1.8286,1.6844,1.6844,1.5961,1.4421,1.4421,1.4361,1.4242,1.4242,1.4242,1.4123,1.2629,1.2037,1.2037,1.2053,1.1993,1.2045,1.3555,1.3084,1.1458,0.997,0.8459,0.6908,0.5258,0.4715,0.4702,0.4703,0.4749,0.47,0.4574,0.3464,0.2342,0.231,0.1033,-0.0195,-0.0197,-0.1597,-0.2887,-0.2887,-0.4361,-0.6105,-0.7897,-0.9837,-1.2394,-1.5952,-1.7937,-1.954,-2.1149,-1.9772,-1.8648,-1.9005,-1.6197,-1.4383,-1.4712,-1.3469,-1.2637,-1.2372,-1.2752,-1.2155,-1.0148,-1.0372,-0.9512,-0.7187,-0.7265,-0.7254,-0.7057,-0.7413,-0.8753,-1.0984,-1.3224,-1.4299,-1.421,-1.1788,-1.0717,-1.054,-0.8129,-0.5901,-0.3854,-0.3845,-0.2495,-0.0557,-0.0569,-0.0576,-0.0581,-0.0587,-0.0593,-0.0498,1.6086,1.4924,1.375,1.2567,1.1156,1.0312,1.0547,1.01,0.9706,0.9587,0.9372,0.9173,0.9137,0.8892,0.8838,0.9033,0.8443,0.8029,0.7988,0.8187,0.8368,0.8425,0.8689,0.96,1.13,1.2012,1.323,1.5024,1.5494,1.5548,1.5192,1.5192,1.4302,1.2749,1.2749,1.2097,1.0959,1.0959,1.0959,1.0899,1.0543,1.0361,1.0375,1.0497,0.9663,0.8611,0.9081,0.8106,0.6589,0.621,0.5835,0.521,0.3575,0.3069,0.3067,0.3056,0.3054,0.2802,0.1537,0.0898,0.0579,0.0588,-0.0726,-0.2064,-0.2071,-0.3481,-0.476,-0.476,-0.6282,-0.8127,-0.9678,-1.1578,-1.4059,-1.7455,-1.8337,-1.8806,-1.9333,-1.7995,-1.6594,-1.5579,-1.3887,-1.2835,-1.3061,-1.3012,-1.2922,-1.2963,-1.3173,-1.3155,-1.2894,-1.3079,-1.1356,-0.7269,-0.885,-0.8998,-0.7146,-1.0717,-1.2863,-1.3489,-1.4033,-1.4299,-1.421,-1.1788,-1.0717,-1.054,-0.8129,-0.679,-0.6267,-0.6395,-0.6173,-0.5641,-0.5844,-0.5906,-0.599,-0.609,-0.6135,-0.5854,1.0594,0.9791,0.8983,0.7822,0.6883,0.6697,0.7788,0.7749,0.7938,0.8883,0.8954,0.8913,0.8913,0.8866,0.8804,0.8716,0.8486,0.8316,0.8248,0.8384,0.8506,0.8581,0.8872,0.9761,1.1253,1.1759,1.2849,1.4599,1.4599,1.4242,1.3526,1.3526,1.226,1.003,1.003,0.9121,0.7551,0.7551,0.7551,0.7551,0.7551,0.7551,0.7561,0.7614,0.7089,0.6285,0.632,0.571,0.4814,0.4045,0.3789,0.3344,0.0907,0.013,-0.0065,-0.085,-0.0519,-0.0257,-0.2011,-0.247,-0.2478,-0.2448,-0.3285,-0.3995,-0.3995,-0.541,-0.6774,-0.6821,-0.8979,-1.1179,-1.2022,-1.4504,-1.6949,-1.8638,-1.9581,-2.0098,-2.0195,-1.882,-1.7348,-1.5919,-1.4596,-1.3461,-1.277,-1.2983,-1.3166,-1.3173,-1.4419,-1.5256,-1.5346,-1.662,-1.5176,-1.0533,-1.1666,-1.1699,-1.0357,-1.2952,-1.4299,-1.4299,-1.4299,-1.4299,-1.4299,-1.2952,-1.2325,-1.2243,-1.1036,-0.989,-0.8828,-0.9011,-0.8528,-0.7535,-0.7674,-0.7838,-0.7821,-0.7969,-0.8025,-0.7636,0.5806,0.5591,0.5199,0.4017,0.3848,0.4364,0.597,0.6427,0.7148,0.8833,0.9151,0.9248,0.9248,0.894,0.8777,0.8777,0.8757,0.8669,0.8492,0.8628,0.8602,0.838,0.8654,0.9237,1.0116,1.0635,1.161,1.3163,1.331,1.2611,1.1117,1.1246,0.9788,0.6996,0.6996,0.6259,0.4916,0.4916,0.4923,0.4872,0.4872,0.4878,0.4895,0.4903,0.4611,0.4112,0.4176,0.3809,0.3162,0.1745,0.1293,0.0778,-0.2165,-0.3099,-0.3435,-0.5275,-0.4679,-0.3761,-0.5053,-0.5398,-0.5419,-0.5443,-0.5705,-0.6017,-0.6032,-0.7483,-0.8834,-0.8938,-1.1684,-1.4199,-1.4413,-1.736,-1.9844,-1.985,-2.1027,-2.1912,-2.1819,-2.0539,-1.9138,-1.7842,-1.672,-1.551,-1.4178,-1.4326,-1.4451,-1.4333,-1.6551,-1.7841,-1.7841,-1.9883,-1.9312,-1.5425,-1.5344,-1.5344,-1.5344,-1.5344,-1.5344,-1.5344,-1.5344,-1.5168,-1.4822,-1.4822,-1.4659,-1.434,-1.4462,-1.3341,-1.1464,-1.1689,-1.0571,-0.8731,-0.8909,-0.8984,-0.9016,-0.9174,-0.9233,-0.8845,0.3083,0.2799,0.2396,0.0937,0.0704,0.123,0.269,0.4147,0.561,0.7084,0.8479,0.9347,0.9347,0.9248,0.9139,0.9139,0.8974,0.8784,0.8499,0.8628,0.8164,0.691,0.7137,0.6694,0.5524,0.5713,0.6038,0.6428,0.7362,0.723,0.6075,0.6991,0.6686,0.5284,0.5284,0.5161,0.4916,0.4916,0.4888,0.488,0.488,0.4916,0.4919,0.5056,0.3189,0.0586,0.0727,-0.1196,-0.3858,-0.406,-0.4193,-0.4262,-0.4809,-0.5012,-0.5348,-0.7093,-0.7408,-0.692,-0.5741,-0.5412,-0.5446,-0.5653,-0.6816,-0.7883,-0.8045,-0.9544,-1.0901,-1.0927,-1.2955,-1.5115,-1.6165,-1.836,-2.0472,-2.1706,-2.1806,-2.1424,-2.0841,-2.006,-1.9343,-1.8702,-1.8531,-1.8631,-1.893,-1.913,-1.9342,-1.957,-2.0085,-2.0403,-2.0403,-2.0878,-2.0836,-2.0183,-2.0096,-2.0096,-2.0096,-2.0096,-2.0096,-2.0096,-2.0096,-1.915,-1.7247,-1.7247,-1.6279,-1.4482,-1.4502,-1.4313,-1.416,-1.4336,-1.4287,-1.4034,-1.4322,-1.4498,-1.4617,-1.4781,-1.4837,-1.444,0.1133,0.102,0.0783,0.0119,0.0,0.0536,0.2142,0.3032,0.4053,0.5646,0.6446,0.6887,0.6887,0.6725,0.6661,0.6661,0.656,0.6488,0.6335,0.7155,0.6952,0.5465,0.5591,0.5378,0.4704,0.4712,0.4788,0.4924,0.5426,0.5406,0.4916,0.5468,0.4916,0.3566,0.2639,0.1779,0.086,-0.0062,0.0062,0.088,0.0823,0.1404,0.2191,0.124,-0.0131,-0.1642,-0.2597,-0.3952,-0.5429,-0.5429,-0.5429,-0.5563,-0.6498,-0.6831,-0.7174,-0.8985,-0.9551,-0.9411,-0.8604,-0.8491,-0.8666,-0.8708,-0.9405,-1.0116,-1.0183,-1.0947,-1.1935,-1.3161,-1.5026,-1.7034,-1.8687,-2.0554,-2.2077,-2.2789,-2.2405,-2.2044,-2.1982,-2.1938,-2.1603,-2.0799,-2.0946,-2.1011,-2.0529,-2.0619,-2.0709,-2.0894,-2.2224,-2.2961,-2.2961,-2.4268,-2.4935,-2.4935,-2.2514,-2.1221,-2.1221,-2.1221,-2.1221,-2.1221,-2.1221,-2.0616,-1.9662,-1.9662,-1.9163,-1.8308,-1.6997,-1.6605,-1.6682,-1.5575,-1.5174,-1.533,-1.5554,-1.5723,-1.5872,-1.6029,-1.6137,-1.5784,0.0,0.0,0.0,0.0,0.0,0.0424,0.1694,0.2238,0.2915,0.4174,0.4562,0.4767,0.4767,0.4641,0.4539,0.4539,0.4522,0.4337,0.3986,0.5039,0.5133,0.3992,0.3754,0.3635,0.3752,0.3651,0.368,0.3785,0.3786,0.3566,0.3193,0.3071,0.2211,0.0738,-0.0616,-0.1912,-0.3218,-0.458,-0.4368,-0.3181,-0.328,-0.2527,-0.1434,-0.2828,-0.3499,-0.3897,-0.5272,-0.6164,-0.6631,-0.6631,-0.6631,-0.6902,-0.8267,-0.8678,-0.8974,-1.0541,-1.1023,-1.105,-1.105,-1.1192,-1.1335,-1.1321,-1.147,-1.164,-1.1708,-1.2223,-1.3193,-1.4943,-1.726,-1.9433,-2.0796,-2.2456,-2.3607,-2.3541,-2.302,-2.2886,-2.3634,-2.3875,-2.381,-2.33,-2.3678,-2.3515,-2.2527,-2.2485,-2.2605,-2.266,-2.4535,-2.5616,-2.5556,-2.7259,-2.8301,-2.8234,-2.4679,-2.2858,-2.2858,-2.2858,-2.2858,-2.2858,-2.2858,-2.2514,-2.1998,-2.1998,-2.1894,-2.1646,-1.9867,-1.8902,-1.8492,-1.6793,-1.5849,-1.5479,-1.5594,-1.575,-1.592,-1.6035,-1.6157,-1.5931,0.0,0.0,0.0,0.0,0.0,0.0062,0.0185,0.1477,0.252,0.2647,0.3993,0.4909,0.4909,0.4781,0.4674,0.4674,0.4552,0.3869,0.2465,0.246,0.2498,0.2347,0.109,0.0347,0.0353,0.0358,0.0361,0.0362,0.0367,-0.0432,-0.1969,-0.2459,-0.3318,-0.4364,-0.4608,-0.4765,-0.4956,-0.5224,-0.53,-0.5171,-0.5174,-0.5152,-0.5015,-0.5152,-0.5882,-0.681,-0.6951,-0.8429,-1.0319,-1.0319,-1.0319,-1.0339,-1.0611,-1.0657,-1.0751,-1.1104,-1.1246,-1.1362,-1.1362,-1.1274,-1.1274,-1.1681,-1.1701,-1.1694,-1.1965,-1.3823,-1.5574,-1.5735,-1.9162,-2.203,-2.1625,-2.3189,-2.4449,-2.4182,-2.3647,-2.3661,-2.4796,-2.473,-2.4935,-2.5937,-2.6347,-2.669,-2.7188,-2.7171,-2.7385,-2.7649,-2.805,-2.8188,-2.7981,-2.8332,-2.8444,-2.8234,-2.7883,-2.7701,-2.7701,-2.7701,-2.7701,-2.7701,-2.7701,-2.6588,-2.4434,-2.4434,-2.3478,-2.1868,-2.171,-2.0596,-1.8845,-1.8677,-1.7412,-1.5622,-1.5635,-1.5811,-1.6069,-1.6076,-1.609,-1.6096,0.0,0.0,0.0,0.0,0.0,0.0,0.0,0.0555,0.0925,0.0925,0.1479,0.1848,0.1848,0.1838,0.177,0.177,0.1761,0.1453,0.0848,0.0841,0.083,0.0817,0.0292,0.0,0.0,0.0,-0.0482,-0.1565,-0.1528,-0.2401,-0.3996,-0.418,-0.4487,-0.4981,-0.611,-0.6652,-0.6728,-0.8044,-0.7896,-0.6893,-0.6951,-0.6332,-0.5496,-0.6631,-0.7293,-0.7821,-0.8921,-0.9905,-1.0715,-1.0715,-1.0777,-1.0872,-1.0914,-1.1077,-1.1267,-1.1504,-1.1619,-1.1687,-1.1782,-1.1694,-1.1619,-1.1789,-1.1932,-1.2359,-1.3798,-1.5075,-1.6635,-1.9156,-2.1187,-2.2781,-2.382,-2.4498,-2.493,-2.501,-2.4676,-2.4703,-2.5504,-2.5678,-2.6026,-2.6841,-2.7188,-2.7602,-2.8203,-2.8257,-2.8377,-2.8671,-2.8804,-2.8751,-2.8444,-2.8364,-2.8355,-2.8234,-2.8221,-2.8221,-2.8221,-2.8221,-2.8221,-2.8221,-2.8221,-2.7701,-2.6842,-2.6842,-2.6534,-2.594,-2.468,-2.3683,-2.3101,-2.1908,-2.0973,-2.0288,-2.0508,-2.0721,-2.096,-2.096,-2.104,-2.0832,-0.0663,-0.0793,-0.0925,-0.1479,-0.154,-0.1356,-0.0863,-0.0802,-0.0617,-0.0062,0.0,0.0,0.0,0.0,0.0,0.0,0.0,0.0,0.0,-0.0489,-0.0543,0.0,0.0,-0.0238,-0.0777,-0.0849,-0.1648,-0.3293,-0.3406,-0.4238,-0.5796,-0.5796,-0.6106,-0.6669,-0.7964,-0.8529,-0.8603,-0.9993,-0.9836,-0.8722,-0.8806,-0.8102,-0.7169,-0.8368,-0.9299,-1.0082,-1.1373,-1.2857,-1.4116,-1.3293,-1.3203,-1.3259,-1.2331,-1.1846,-1.1653,-1.1904,-1.1938,-1.2079,-1.2895,-1.3044,-1.3059,-1.2926,-1.3088,-1.3801,-1.5934,-1.7281,-1.8872,-2.1739,-2.3056,-2.4118,-2.5553,-2.5625,-2.5558,-2.5758,-2.5625,-2.5665,-2.6159,-2.648,-2.6854,-2.7348,-2.7655,-2.8043,-2.8551,-2.8604,-2.8724,-2.9018,-2.9125,-2.9098,-2.8898,-2.8591,-2.843,-2.843,-2.843,-2.843,-2.843,-2.8315,-2.8221,-2.8221,-2.8328,-2.8283,-2.8297,-2.8377,-2.8591,-2.8798,-2.7297,-2.6371,-2.5826,-2.4675,-2.3759,-2.3223,-2.3551,-2.3774,-2.388,-2.388,-2.3971,-2.369,-0.2165,-0.2497,-0.3016,-0.461,-0.4916,-0.4364,-0.277,-0.2524,-0.191,-0.0247,0.0,0.0,0.0,0.0,0.0,0.0,0.0,0.0,0.0,-0.1602,-0.1774,-0.0121,-0.006,-0.0789,-0.2462,-0.2623,-0.352,-0.515,-0.5291,-0.6225,-0.7832,-0.7832,-0.873,-1.0347,-1.0426,-1.0493,-1.05,-1.0656,-1.0717,-1.0717,-1.0717,-1.0717,-1.0717,-1.0724,-1.2173,-1.422,-1.422,-1.7588,-2.1608,-1.9033,-1.8473,-1.8281,-1.5386,-1.3405,-1.2169,-1.2319,-1.2258,-1.2611,-1.4769,-1.5556,-1.5735,-1.5378,-1.5336,-1.5957,-1.8488,-2.0858,-2.2591,-2.2851,-2.4809,-2.6386,-2.6386,-2.6386,-2.6386,-2.64,-2.64,-2.6507,-2.6787,-2.7081,-2.7375,-2.7669,-2.7963,-2.8355,-2.8577,-2.8604,-2.8738,-2.9032,-2.9312,-2.9486,-2.9486,-2.9205,-2.9045,-2.9045,-2.9045,-2.9045,-2.9045,-2.8444,-2.8234,-2.8234,-2.8457,-2.8604,-2.8617,-2.8911,-2.9205,-2.9486,-2.9486,-2.8271,-2.6253,-2.6603,-2.5355,-2.3317,-2.3646,-2.3871,-2.3967,-2.3967,-2.3967,-2.3578,-0.2161,-0.2497,-0.3016,-0.461,-0.4916,-0.4732,-0.4242,-0.32,-0.2339,-0.1848,-0.074,0.0,0.0,0.0,0.0,0.0,0.0,-0.0494,-0.1663,-0.2216,-0.2837,-0.3534,-0.3596,-0.3789,-0.4306,-0.4497,-0.5358,-0.7014,-0.7047,-0.7959,-0.957,-0.957,-1.0453,-1.2162,-1.2267,-1.2339,-1.2355,-1.2465,-1.1828,-1.0717,-1.0717,-1.0717,-1.0731,-1.0772,-1.2141,-1.4219,-1.6275,-1.7984,-1.9283,-1.8783,-1.8992,-1.9127,-1.7599,-1.6849,-1.647,-1.6681,-1.6775,-1.6992,-1.7721,-1.8066,-1.8143,-1.7842,-1.7931,-1.8735,-2.0968,-2.2136,-2.3207,-2.4737,-2.578,-2.6453,-2.6653,-2.6694,-2.676,-2.6974,-2.7175,-2.7335,-2.7428,-2.7696,-2.7993,-2.8003,-2.8167,-2.8337,-2.8858,-2.8911,-2.9112,-2.9619,-2.9553,-2.9486,-2.9486,-2.9205,-2.9138,-2.9339,-2.9352,-2.9446,-2.9659,-2.8871,-2.847,-2.847,-2.8564,-2.8604,-2.8617,-2.8911,-2.9085,-2.9179,-2.9392,-2.9172,-2.8552,-2.9041,-2.8907,-2.8272,-2.8731,-2.8966,-2.9053,-2.9251,-2.9326,-2.8739,-0.2996,-0.3469,-0.418,-0.6446,-0.6813,-0.663,-0.6018,-0.5035,-0.3996,-0.2647,-0.1602,-0.074,-0.0062,0.0,0.0,0.0,-0.0682,-0.1739,-0.3413,-0.4179,-0.5084,-0.6139,-0.6873,-0.6878,-0.6206,-0.6357,-0.7562,-0.9877,-0.9239,-1.0168,-1.2483,-1.1793,-1.2419,-1.407,-1.4189,-1.3793,-1.3155,-1.3274,-1.2281,-1.0717,-1.0717,-1.0758,-1.0886,-1.1709,-1.3251,-1.527,-1.7803,-1.9157,-1.9917,-2.0142,-2.017,-2.0014,-1.9544,-1.9021,-1.8597,-1.8739,-1.8907,-1.9239,-2.0154,-2.0494,-2.0869,-2.1585,-2.119,-2.1213,-2.3361,-2.3987,-2.4541,-2.5858,-2.636,-2.6653,-2.6947,-2.7094,-2.7268,-2.7562,-2.7762,-2.7869,-2.7869,-2.8114,-2.8221,-2.8221,-2.8221,-2.8377,-2.8978,-2.9045,-2.9285,-2.9873,-2.9753,-2.9659,-2.9659,-2.9593,-2.9646,-2.982,-2.994,-3.0087,-3.0261,-2.9619,-2.9179,-2.8951,-2.8951,-2.8951,-2.8965,-2.9379,-2.9566,-2.9579,-2.9873,-2.9993,-3.0034,-3.0515,-3.0702,-3.0755,-3.1223,-3.133,-3.1263,-3.1557,-3.092,-2.9392,-0.4261,-0.5051,-0.6141,-0.9268,-0.9822,-0.9329,-0.785,-0.7484,-0.6263,-0.3143,-0.2587,-0.1849,-0.0186,-0.0124,-0.0247,-0.0248,-0.1878,-0.365,-0.522,-0.6882,-0.7965,-0.8289,-0.9825,-1.0032,-0.8561,-0.8474,-1.0084,-1.3319,-1.1899,-1.2824,-1.5879,-1.4324,-1.452,-1.6203,-1.6118,-1.5135,-1.3521,-1.3521,-1.2413,-1.0724,-1.0731,-1.0886,-1.1347,-1.3175,-1.5097,-1.7094,-1.8866,-2.0722,-2.2472,-2.2525,-2.1868,-2.1029,-2.1386,-2.0605,-1.951,-1.951,-1.9765,-2.0433,-2.2346,-2.3014,-2.3763,-2.5911,-2.4695,-2.3512,-2.5609,-2.6157,-2.6224,-2.6413,-2.668,-2.6947,-2.7255,-2.7522,-2.7789,-2.8181,-2.8221,-2.8221,-2.8221,-2.8221,-2.8221,-2.8221,-2.8221,-2.8364,-2.8951,-2.9045,-2.9312,-2.9873,-2.9913,-2.9927,-2.9953,-3.0207,-3.0381,-3.0434,-3.0702,-3.0849,-3.0875,-3.0581,-3.014,-2.9566,-2.9566,-2.9566,-2.9579,-3.014,-3.0421,-3.0448,-3.0688,-3.0808,-3.0849,-3.1089,-3.1183,-3.1209,-3.1517,-3.1463,-3.1169,-3.1299,-2.969,-2.7045,-0.4514,-0.5941,-0.7484,-0.9451,-0.9822,-0.97,-0.9329,-0.8221,-0.6653,-0.4618,-0.3284,-0.1865,-0.0191,-0.1263,-0.2139,-0.21,-0.3766,-0.5496,-0.7091,-0.7561,-0.9014,-1.1818,-1.2315,-1.3023,-1.4143,-1.2832,-1.3183,-1.5261,-1.5213,-1.5517,-1.6308,-1.5913,-1.6637,-1.8338,-1.8079,-1.6947,-1.5329,-1.5329,-1.3513,-1.0731,-1.0786,-1.1783,-1.3234,-1.3848,-1.6177,-1.9197,-1.9747,-2.1171,-2.2832,-2.3313,-2.3311,-2.319,-2.3697,-2.3789,-2.3757,-2.3757,-2.4189,-2.4712,-2.5413,-2.5753,-2.6133,-2.692,-2.665,-2.6397,-2.688,-2.6987,-2.7001,-2.7068,-2.7121,-2.7255,-2.7549,-2.7655,-2.7789,-2.8181,-2.8221,-2.8221,-2.8221,-2.8221,-2.8221,-2.8221,-2.8221,-2.8283,-2.8671,-2.9112,-2.9539,-2.9887,-2.9913,-3.002,-3.0247,-3.0327,-3.0568,-3.1022,-3.1102,-3.1249,-3.1476,-3.1183,-3.0742,-3.0167,-3.0167,-3.0167,-3.0181,-3.0541,-3.0822,-3.1022,-3.0862,-3.0929,-3.1116,-3.0955,-3.0889,-3.0915,-3.1209,-3.1276,-3.0995,-2.9366,-2.8414,-2.7273,-0.5754,-0.6808,-0.7911,-0.9511,-0.9883,-0.9869,-0.9869,-0.9243,-0.8176,-0.6526,-0.5549,-0.4422,-0.2762,-0.3447,-0.4267,-0.507,-0.607,-0.7324,-0.9015,-0.9903,-1.1257,-1.3108,-1.4014,-1.5277,-1.7076,-1.6237,-1.6237,-1.7152,-1.6661,-1.7237,-1.89,-1.8149,-1.8746,-2.0404,-2.0266,-1.9203,-1.7489,-1.6633,-1.4721,-1.2277,-1.2361,-1.305,-1.4224,-1.6128,-1.8147,-2.0093,-2.1212,-2.2388,-2.3367,-2.3821,-2.3981,-2.4075,-2.4663,-2.505,-2.5344,-2.5625,-2.6026,-2.644,-2.6734,-2.6921,-2.7108,-2.7402,-2.7468,-2.7442,-2.7295,-2.7268,-2.7268,-2.7268,-2.7375,-2.7522,-2.7669,-2.7816,-2.7963,-2.8207,-2.8221,-2.8221,-2.8221,-2.8221,-2.8221,-2.8221,-2.8221,-2.8323,-2.8764,-2.9219,-2.9606,-2.99,-3.0047,-3.0194,-3.0354,-3.0621,-3.0915,-3.1209,-3.149,-3.1717,-3.1877,-3.1864,-3.1704,-3.1396,-3.0835,-3.0568,-3.0581,-3.1009,-3.1289,-3.145,-3.157,-3.1637,-3.1637,-3.1476,-3.133,-3.1236,-3.153,-3.1557,-3.122,-2.9019,-2.6606,-2.3947,-0.7184,-0.7633,-0.8261,-0.9645,-1.0005,-1.0024,-1.0024,-1.0202,-0.971,-0.7986,-0.7778,-0.7203,-0.5562,-0.5691,-0.6533,-0.8146,-0.8426,-0.9205,-1.0846,-1.2489,-1.3613,-1.4166,-1.5658,-1.7293,-1.8896,-1.9008,-1.9008,-1.896,-1.7893,-1.8827,-2.163,-2.0435,-2.0693,-2.2058,-2.2058,-2.1104,-1.9346,-1.7901,-1.6225,-1.4662,-1.4629,-1.4916,-1.5589,-1.8774,-2.0245,-2.0865,-2.2728,-2.3554,-2.3808,-2.4102,-2.4235,-2.4369,-2.4917,-2.5317,-2.5692,-2.6226,-2.66,-2.6894,-2.7241,-2.7348,-2.7415,-2.7696,-2.7776,-2.7709,-2.7468,-2.7415,-2.7415,-2.7415,-2.7602,-2.7776,-2.7776,-2.8016,-2.8301,-2.8301,-2.8301,-2.8301,-2.8301,-2.8261,-2.8221,-2.8221,-2.8221,-2.8377,-2.8978,-2.9259,-2.9566,-2.9967,-3.0221,-3.0421,-3.0568,-3.1036,-3.1343,-3.145,-3.1917,-3.2185,-3.2185,-3.2425,-3.2643,-3.2629,-3.1557,-3.1062,-3.1036,-3.157,-3.1824,-3.1851,-3.2332,-3.2438,-3.2251,-3.2144,-3.1984,-3.1837,-3.2024,-3.1984,-3.1482,-2.8819,-2.4417,-1.964,-0.7485,-0.8697,-0.9748,-1.0132,-1.0236,-1.0249,-1.0249,-1.0263,-0.9678,-0.8031,-0.783,-0.7195,-0.5583,-0.6726,-0.8387,-1.0122,-1.034,-1.1073,-1.2833,-1.346,-1.4932,-1.7678,-1.853,-1.9495,-2.0729,-2.1029,-2.1042,-2.0779,-2.1059,-2.145,-2.1937,-2.1951,-2.215,-2.2365,-2.2365,-2.1398,-1.9752,-1.9771,-1.8827,-1.7237,-1.7359,-1.8184,-1.9542,-2.0415,-2.1632,-2.2951,-2.3523,-2.3741,-2.3808,-2.4102,-2.4369,-2.4636,-2.497,-2.5451,-2.5959,-2.6293,-2.66,-2.6947,-2.7495,-2.7642,-2.7709,-2.8003,-2.8167,-2.8154,-2.8114,-2.8114,-2.8114,-2.8114,-2.814,-2.8167,-2.8167,-2.8337,-2.8537,-2.8537,-2.8537,-2.8537,-2.8537,-2.831,-2.8221,-2.8221,-2.8221,-2.8377,-2.8978,-2.9072,-2.9432,-3.0234,-3.0341,-3.0688,-3.145,-3.157,-3.1837,-3.2345,-3.2438,-3.2492,-3.2492,-3.2629,-3.2643,-3.2643,-3.2385,-3.2171,-3.1931,-3.2278,-3.2522,-3.2438,-3.2519,-3.2666,-3.2826,-3.2305,-3.2238,-3.2412,-3.2185,-3.2238,-3.1868,-2.7037,-2.2021,-1.7468,-0.8889,-0.948,-1.0038,-1.0256,-1.0344,-1.0399,-1.0399,-1.0473,-1.0287,-0.9551,-0.9437,-0.9115,-0.8429,-1.0092,-1.154,-1.2355,-1.3436,-1.4423,-1.5224,-1.6312,-1.752,-1.8935,-2.0162,-2.1122,-2.1603,-2.1724,-2.1737,-2.1603,-2.1857,-2.2071,-2.2245,-2.2873,-2.318,-2.318,-2.334,-2.2894,-2.197,-2.1003,-2.019,-1.948,-1.952,-1.9998,-2.0793,-2.2044,-2.295,-2.3621,-2.3901,-2.4222,-2.4529,-2.4649,-2.489,-2.5211,-2.5665,-2.5985,-2.6319,-2.6934,-2.7215,-2.7402,-2.7829,-2.7949,-2.7976,-2.8194,-2.8221,-2.8221,-2.8221,-2.8221,-2.8221,-2.8221,-2.8283,-2.8404,-2.8404,-2.8644,-2.8845,-2.8845,-2.8711,-2.8604,-2.8604,-2.8337,-2.8288,-2.8377,-2.8404,-2.8698,-2.9459,-2.9526,-2.9833,-3.0541,-3.0902,-3.1263,-3.165,-3.1984,-3.2278,-3.2629,-3.2706,-3.2786,-3.2786,-3.2946,-3.3026,-3.3026,-3.2866,-3.2545,-3.2118,-3.2412,-3.2452,-3.2318,-3.2639,-3.2772,-3.2732,-3.2639,-3.2572,-3.2643,-3.2572,-3.1874,-3.0303,-2.6446,-2.2876,-1.9767]}]]